<?xml version="1.0" encoding="UTF-8" standalone="no" ?>
<gpx xmlns="http://www.topografix.com/GPX/1/1" xmlns:xsi="http://www.w3.org/2001/XMLSchema-instance" xsi:schemaLocation="http://www.topografix.com/GPX/1/1 http://www.topografix.com/GPX/1/1/gpx.xsd" version="1.1" creator="VisuGPX - https://www.visugpx.com">
  <metadata>
    <name>Autour des étangs du Roi</name>
    <desc><![CDATA[Dipti en dextre et en compagnie de Damoiseau]]></desc>
  </metadata>
  <trk>
    <name><![CDATA[Untitled]]></name>
    <trkseg>
      <trkpt lat="48.70655" lon="1.75578">
        <ele>178</ele>
        <time>2014-08-03T08:37:34.000Z</time>
      </trkpt>
      <trkpt lat="48.70654" lon="1.7558">
        <ele>178.19999694824</ele>
        <time>2014-08-03T08:37:35.000Z</time>
      </trkpt>
      <trkpt lat="48.70653" lon="1.75581">
        <ele>178.19999694824</ele>
        <time>2014-08-03T08:37:36.000Z</time>
      </trkpt>
      <trkpt lat="48.70587" lon="1.75588">
        <ele>183.80000305176</ele>
        <time>2014-08-03T08:39:25.000Z</time>
      </trkpt>
      <trkpt lat="48.70586" lon="1.75587">
        <ele>183.80000305176</ele>
        <time>2014-08-03T08:39:26.000Z</time>
      </trkpt>
      <trkpt lat="48.70586" lon="1.75587">
        <ele>183.80000305176</ele>
        <time>2014-08-03T08:39:27.000Z</time>
      </trkpt>
      <trkpt lat="48.7058" lon="1.75583">
        <ele>183.80000305176</ele>
        <time>2014-08-03T08:39:30.000Z</time>
      </trkpt>
      <trkpt lat="48.70576" lon="1.7558">
        <ele>183.80000305176</ele>
        <time>2014-08-03T08:39:31.000Z</time>
      </trkpt>
      <trkpt lat="48.7056" lon="1.75566">
        <ele>183.80000305176</ele>
        <time>2014-08-03T08:39:35.000Z</time>
      </trkpt>
      <trkpt lat="48.70548" lon="1.75556">
        <ele>183.60000610352</ele>
        <time>2014-08-03T08:39:42.000Z</time>
      </trkpt>
      <trkpt lat="48.7054" lon="1.7555">
        <ele>183.60000610352</ele>
        <time>2014-08-03T08:39:48.000Z</time>
      </trkpt>
      <trkpt lat="48.70538" lon="1.75551">
        <ele>183.60000610352</ele>
        <time>2014-08-03T08:39:59.000Z</time>
      </trkpt>
      <trkpt lat="48.70536" lon="1.7555">
        <ele>183.60000610352</ele>
        <time>2014-08-03T08:40:02.000Z</time>
      </trkpt>
      <trkpt lat="48.70524" lon="1.75537">
        <ele>183.19999694824</ele>
        <time>2014-08-03T08:40:12.000Z</time>
      </trkpt>
      <trkpt lat="48.70523" lon="1.75536">
        <ele>183.19999694824</ele>
        <time>2014-08-03T08:40:15.000Z</time>
      </trkpt>
      <trkpt lat="48.70495" lon="1.75507">
        <ele>182.80000305176</ele>
        <time>2014-08-03T08:40:41.000Z</time>
      </trkpt>
      <trkpt lat="48.70494" lon="1.75505">
        <ele>182.80000305176</ele>
        <time>2014-08-03T08:40:44.000Z</time>
      </trkpt>
      <trkpt lat="48.70476" lon="1.75485">
        <ele>182.60000610352</ele>
        <time>2014-08-03T08:41:08.000Z</time>
      </trkpt>
      <trkpt lat="48.70469" lon="1.75475">
        <ele>182.60000610352</ele>
        <time>2014-08-03T08:41:22.000Z</time>
      </trkpt>
      <trkpt lat="48.70451" lon="1.75454">
        <ele>182.60000610352</ele>
        <time>2014-08-03T08:41:38.000Z</time>
      </trkpt>
      <trkpt lat="48.70444" lon="1.75451">
        <ele>182.80000305176</ele>
        <time>2014-08-03T08:41:47.000Z</time>
      </trkpt>
      <trkpt lat="48.70441" lon="1.75446">
        <ele>182.80000305176</ele>
        <time>2014-08-03T08:41:55.000Z</time>
      </trkpt>
      <trkpt lat="48.70428" lon="1.75439">
        <ele>182.80000305176</ele>
        <time>2014-08-03T08:42:07.000Z</time>
      </trkpt>
      <trkpt lat="48.70443" lon="1.75443">
        <ele>182.80000305176</ele>
        <time>2014-08-03T08:42:49.000Z</time>
      </trkpt>
      <trkpt lat="48.70441" lon="1.75452">
        <ele>183</ele>
        <time>2014-08-03T08:43:00.000Z</time>
      </trkpt>
      <trkpt lat="48.70411" lon="1.75436">
        <ele>182.39999389648</ele>
        <time>2014-08-03T08:43:23.000Z</time>
      </trkpt>
      <trkpt lat="48.70406" lon="1.75436">
        <ele>182.39999389648</ele>
        <time>2014-08-03T08:43:27.000Z</time>
      </trkpt>
      <trkpt lat="48.70392" lon="1.75429">
        <ele>182</ele>
        <time>2014-08-03T08:43:32.000Z</time>
      </trkpt>
      <trkpt lat="48.70367" lon="1.75415">
        <ele>181.39999389648</ele>
        <time>2014-08-03T08:43:39.000Z</time>
      </trkpt>
      <trkpt lat="48.70358" lon="1.75407">
        <ele>181.19999694824</ele>
        <time>2014-08-03T08:43:45.000Z</time>
      </trkpt>
      <trkpt lat="48.70359" lon="1.75408">
        <ele>181.19999694824</ele>
        <time>2014-08-03T08:43:51.000Z</time>
      </trkpt>
      <trkpt lat="48.70361" lon="1.75406">
        <ele>181.19999694824</ele>
        <time>2014-08-03T08:43:55.000Z</time>
      </trkpt>
      <trkpt lat="48.70364" lon="1.75408">
        <ele>181.19999694824</ele>
        <time>2014-08-03T08:44:01.000Z</time>
      </trkpt>
      <trkpt lat="48.70362" lon="1.75408">
        <ele>181.19999694824</ele>
        <time>2014-08-03T08:44:05.000Z</time>
      </trkpt>
      <trkpt lat="48.70363" lon="1.7541">
        <ele>181.19999694824</ele>
        <time>2014-08-03T08:44:10.000Z</time>
      </trkpt>
      <trkpt lat="48.70355" lon="1.75399">
        <ele>181</ele>
        <time>2014-08-03T08:44:18.000Z</time>
      </trkpt>
      <trkpt lat="48.7034" lon="1.75375">
        <ele>180.60000610352</ele>
        <time>2014-08-03T08:44:31.000Z</time>
      </trkpt>
      <trkpt lat="48.70327" lon="1.75361">
        <ele>180.39999389648</ele>
        <time>2014-08-03T08:44:38.000Z</time>
      </trkpt>
      <trkpt lat="48.70319" lon="1.75358">
        <ele>180.19999694824</ele>
        <time>2014-08-03T08:44:45.000Z</time>
      </trkpt>
      <trkpt lat="48.70317" lon="1.75354">
        <ele>180.19999694824</ele>
        <time>2014-08-03T08:44:49.000Z</time>
      </trkpt>
      <trkpt lat="48.70301" lon="1.75319">
        <ele>179.80000305176</ele>
        <time>2014-08-03T08:45:27.000Z</time>
      </trkpt>
      <trkpt lat="48.703" lon="1.75319">
        <ele>179.80000305176</ele>
        <time>2014-08-03T08:45:37.000Z</time>
      </trkpt>
      <trkpt lat="48.703" lon="1.75318">
        <ele>179.80000305176</ele>
        <time>2014-08-03T08:45:38.000Z</time>
      </trkpt>
      <trkpt lat="48.70295" lon="1.75314">
        <ele>179.60000610352</ele>
        <time>2014-08-03T08:45:41.000Z</time>
      </trkpt>
      <trkpt lat="48.70292" lon="1.75314">
        <ele>179.60000610352</ele>
        <time>2014-08-03T08:45:44.000Z</time>
      </trkpt>
      <trkpt lat="48.70291" lon="1.75308">
        <ele>179.60000610352</ele>
        <time>2014-08-03T08:45:52.000Z</time>
      </trkpt>
      <trkpt lat="48.70289" lon="1.75309">
        <ele>179.60000610352</ele>
        <time>2014-08-03T08:46:05.000Z</time>
      </trkpt>
      <trkpt lat="48.70296" lon="1.75314">
        <ele>179.60000610352</ele>
        <time>2014-08-03T08:46:11.000Z</time>
      </trkpt>
      <trkpt lat="48.70292" lon="1.75312">
        <ele>179.60000610352</ele>
        <time>2014-08-03T08:46:16.000Z</time>
      </trkpt>
      <trkpt lat="48.70288" lon="1.7531">
        <ele>179.60000610352</ele>
        <time>2014-08-03T08:46:17.000Z</time>
      </trkpt>
      <trkpt lat="48.70288" lon="1.75311">
        <ele>179.60000610352</ele>
        <time>2014-08-03T08:46:21.000Z</time>
      </trkpt>
      <trkpt lat="48.70288" lon="1.75312">
        <ele>179.60000610352</ele>
        <time>2014-08-03T08:46:23.000Z</time>
      </trkpt>
      <trkpt lat="48.70294" lon="1.75314">
        <ele>179.60000610352</ele>
        <time>2014-08-03T08:46:27.000Z</time>
      </trkpt>
      <trkpt lat="48.70299" lon="1.75317">
        <ele>179.80000305176</ele>
        <time>2014-08-03T08:46:29.000Z</time>
      </trkpt>
      <trkpt lat="48.70298" lon="1.75314">
        <ele>179.80000305176</ele>
        <time>2014-08-03T08:46:38.000Z</time>
      </trkpt>
      <trkpt lat="48.70297" lon="1.75296">
        <ele>180</ele>
        <time>2014-08-03T08:47:34.000Z</time>
      </trkpt>
      <trkpt lat="48.70296" lon="1.75296">
        <ele>180</ele>
        <time>2014-08-03T08:47:36.000Z</time>
      </trkpt>
      <trkpt lat="48.70287" lon="1.75292">
        <ele>179.80000305176</ele>
        <time>2014-08-03T08:47:42.000Z</time>
      </trkpt>
      <trkpt lat="48.70281" lon="1.75287">
        <ele>179.60000610352</ele>
        <time>2014-08-03T08:47:48.000Z</time>
      </trkpt>
      <trkpt lat="48.70273" lon="1.75283">
        <ele>179.60000610352</ele>
        <time>2014-08-03T08:47:54.000Z</time>
      </trkpt>
      <trkpt lat="48.70269" lon="1.7528">
        <ele>179.39999389648</ele>
        <time>2014-08-03T08:47:58.000Z</time>
      </trkpt>
      <trkpt lat="48.70261" lon="1.75276">
        <ele>179</ele>
        <time>2014-08-03T08:48:04.000Z</time>
      </trkpt>
      <trkpt lat="48.70255" lon="1.75271">
        <ele>178.80000305176</ele>
        <time>2014-08-03T08:48:10.000Z</time>
      </trkpt>
      <trkpt lat="48.70253" lon="1.75268">
        <ele>178.80000305176</ele>
        <time>2014-08-03T08:48:15.000Z</time>
      </trkpt>
      <trkpt lat="48.70249" lon="1.75262">
        <ele>178.60000610352</ele>
        <time>2014-08-03T08:48:21.000Z</time>
      </trkpt>
      <trkpt lat="48.70242" lon="1.75252">
        <ele>178.39999389648</ele>
        <time>2014-08-03T08:48:34.000Z</time>
      </trkpt>
      <trkpt lat="48.70239" lon="1.75252">
        <ele>178.39999389648</ele>
        <time>2014-08-03T08:48:39.000Z</time>
      </trkpt>
      <trkpt lat="48.70222" lon="1.75248">
        <ele>177.60000610352</ele>
        <time>2014-08-03T08:48:52.000Z</time>
      </trkpt>
      <trkpt lat="48.7021" lon="1.75248">
        <ele>177</ele>
        <time>2014-08-03T08:49:01.000Z</time>
      </trkpt>
      <trkpt lat="48.70204" lon="1.7526">
        <ele>176.60000610352</ele>
        <time>2014-08-03T08:49:11.000Z</time>
      </trkpt>
      <trkpt lat="48.70195" lon="1.75266">
        <ele>176.39999389648</ele>
        <time>2014-08-03T08:49:18.000Z</time>
      </trkpt>
      <trkpt lat="48.70191" lon="1.7527">
        <ele>176.19999694824</ele>
        <time>2014-08-03T08:49:24.000Z</time>
      </trkpt>
      <trkpt lat="48.70189" lon="1.75269">
        <ele>176</ele>
        <time>2014-08-03T08:49:27.000Z</time>
      </trkpt>
      <trkpt lat="48.70178" lon="1.75262">
        <ele>176</ele>
        <time>2014-08-03T08:49:29.000Z</time>
      </trkpt>
      <trkpt lat="48.70164" lon="1.75258">
        <ele>175.80000305176</ele>
        <time>2014-08-03T08:49:35.000Z</time>
      </trkpt>
      <trkpt lat="48.70164" lon="1.75264">
        <ele>175.80000305176</ele>
        <time>2014-08-03T08:49:38.000Z</time>
      </trkpt>
      <trkpt lat="48.70157" lon="1.7527">
        <ele>175.60000610352</ele>
        <time>2014-08-03T08:49:45.000Z</time>
      </trkpt>
      <trkpt lat="48.70152" lon="1.75268">
        <ele>175.60000610352</ele>
        <time>2014-08-03T08:49:52.000Z</time>
      </trkpt>
      <trkpt lat="48.70147" lon="1.7527">
        <ele>175.60000610352</ele>
        <time>2014-08-03T08:49:58.000Z</time>
      </trkpt>
      <trkpt lat="48.70141" lon="1.75273">
        <ele>175.39999389648</ele>
        <time>2014-08-03T08:50:03.000Z</time>
      </trkpt>
      <trkpt lat="48.70136" lon="1.75278">
        <ele>175.19999694824</ele>
        <time>2014-08-03T08:50:10.000Z</time>
      </trkpt>
      <trkpt lat="48.70133" lon="1.75281">
        <ele>175</ele>
        <time>2014-08-03T08:50:12.000Z</time>
      </trkpt>
      <trkpt lat="48.70129" lon="1.75292">
        <ele>174.60000610352</ele>
        <time>2014-08-03T08:50:17.000Z</time>
      </trkpt>
      <trkpt lat="48.70119" lon="1.75297">
        <ele>174.19999694824</ele>
        <time>2014-08-03T08:50:26.000Z</time>
      </trkpt>
      <trkpt lat="48.70117" lon="1.75298">
        <ele>174</ele>
        <time>2014-08-03T08:50:27.000Z</time>
      </trkpt>
      <trkpt lat="48.7011" lon="1.75301">
        <ele>173.80000305176</ele>
        <time>2014-08-03T08:50:33.000Z</time>
      </trkpt>
      <trkpt lat="48.70105" lon="1.75305">
        <ele>173.39999389648</ele>
        <time>2014-08-03T08:50:39.000Z</time>
      </trkpt>
      <trkpt lat="48.70096" lon="1.75311">
        <ele>173.19999694824</ele>
        <time>2014-08-03T08:50:47.000Z</time>
      </trkpt>
      <trkpt lat="48.7009" lon="1.75309">
        <ele>173.19999694824</ele>
        <time>2014-08-03T08:50:50.000Z</time>
      </trkpt>
      <trkpt lat="48.70079" lon="1.75315">
        <ele>172.80000305176</ele>
        <time>2014-08-03T08:50:57.000Z</time>
      </trkpt>
      <trkpt lat="48.70075" lon="1.75318">
        <ele>172.80000305176</ele>
        <time>2014-08-03T08:50:59.000Z</time>
      </trkpt>
      <trkpt lat="48.70069" lon="1.75324">
        <ele>172.39999389648</ele>
        <time>2014-08-03T08:51:03.000Z</time>
      </trkpt>
      <trkpt lat="48.70067" lon="1.75327">
        <ele>172.19999694824</ele>
        <time>2014-08-03T08:51:05.000Z</time>
      </trkpt>
      <trkpt lat="48.70059" lon="1.75329">
        <ele>171.80000305176</ele>
        <time>2014-08-03T08:51:12.000Z</time>
      </trkpt>
      <trkpt lat="48.70051" lon="1.75328">
        <ele>171.80000305176</ele>
        <time>2014-08-03T08:51:20.000Z</time>
      </trkpt>
      <trkpt lat="48.7005" lon="1.75329">
        <ele>171.80000305176</ele>
        <time>2014-08-03T08:51:21.000Z</time>
      </trkpt>
      <trkpt lat="48.70044" lon="1.75333">
        <ele>171.39999389648</ele>
        <time>2014-08-03T08:51:29.000Z</time>
      </trkpt>
      <trkpt lat="48.70039" lon="1.75339">
        <ele>171</ele>
        <time>2014-08-03T08:51:35.000Z</time>
      </trkpt>
      <trkpt lat="48.70036" lon="1.75345">
        <ele>170.60000610352</ele>
        <time>2014-08-03T08:51:40.000Z</time>
      </trkpt>
      <trkpt lat="48.70025" lon="1.75342">
        <ele>171</ele>
        <time>2014-08-03T08:51:48.000Z</time>
      </trkpt>
      <trkpt lat="48.70015" lon="1.75345">
        <ele>171</ele>
        <time>2014-08-03T08:51:56.000Z</time>
      </trkpt>
      <trkpt lat="48.70008" lon="1.75353">
        <ele>170.60000610352</ele>
        <time>2014-08-03T08:52:02.000Z</time>
      </trkpt>
      <trkpt lat="48.70006" lon="1.75355">
        <ele>170.60000610352</ele>
        <time>2014-08-03T08:52:04.000Z</time>
      </trkpt>
      <trkpt lat="48.69999" lon="1.75352">
        <ele>170.80000305176</ele>
        <time>2014-08-03T08:52:10.000Z</time>
      </trkpt>
      <trkpt lat="48.69989" lon="1.75356">
        <ele>170.60000610352</ele>
        <time>2014-08-03T08:52:18.000Z</time>
      </trkpt>
      <trkpt lat="48.69982" lon="1.75359">
        <ele>170.60000610352</ele>
        <time>2014-08-03T08:52:24.000Z</time>
      </trkpt>
      <trkpt lat="48.69981" lon="1.7536">
        <ele>170.60000610352</ele>
        <time>2014-08-03T08:52:25.000Z</time>
      </trkpt>
      <trkpt lat="48.69978" lon="1.75361">
        <ele>170.60000610352</ele>
        <time>2014-08-03T08:52:28.000Z</time>
      </trkpt>
      <trkpt lat="48.69974" lon="1.75361">
        <ele>170.80000305176</ele>
        <time>2014-08-03T08:52:32.000Z</time>
      </trkpt>
      <trkpt lat="48.69972" lon="1.75362">
        <ele>170.80000305176</ele>
        <time>2014-08-03T08:52:34.000Z</time>
      </trkpt>
      <trkpt lat="48.69963" lon="1.75368">
        <ele>171.19999694824</ele>
        <time>2014-08-03T08:52:42.000Z</time>
      </trkpt>
      <trkpt lat="48.69954" lon="1.7537">
        <ele>171.60000610352</ele>
        <time>2014-08-03T08:52:48.000Z</time>
      </trkpt>
      <trkpt lat="48.69951" lon="1.75375">
        <ele>171.60000610352</ele>
        <time>2014-08-03T08:52:53.000Z</time>
      </trkpt>
      <trkpt lat="48.69944" lon="1.75377">
        <ele>172</ele>
        <time>2014-08-03T08:52:58.000Z</time>
      </trkpt>
      <trkpt lat="48.69932" lon="1.75384">
        <ele>172.19999694824</ele>
        <time>2014-08-03T08:53:06.000Z</time>
      </trkpt>
      <trkpt lat="48.69921" lon="1.75386">
        <ele>172</ele>
        <time>2014-08-03T08:53:15.000Z</time>
      </trkpt>
      <trkpt lat="48.69915" lon="1.7539">
        <ele>171.80000305176</ele>
        <time>2014-08-03T08:53:19.000Z</time>
      </trkpt>
      <trkpt lat="48.69907" lon="1.75396">
        <ele>171.39999389648</ele>
        <time>2014-08-03T08:53:26.000Z</time>
      </trkpt>
      <trkpt lat="48.69903" lon="1.75397">
        <ele>171.39999389648</ele>
        <time>2014-08-03T08:53:30.000Z</time>
      </trkpt>
      <trkpt lat="48.69894" lon="1.75388">
        <ele>171.39999389648</ele>
        <time>2014-08-03T08:53:38.000Z</time>
      </trkpt>
      <trkpt lat="48.6989" lon="1.75381">
        <ele>171.39999389648</ele>
        <time>2014-08-03T08:53:44.000Z</time>
      </trkpt>
      <trkpt lat="48.69888" lon="1.75371">
        <ele>171.60000610352</ele>
        <time>2014-08-03T08:53:50.000Z</time>
      </trkpt>
      <trkpt lat="48.69887" lon="1.75362">
        <ele>171.80000305176</ele>
        <time>2014-08-03T08:53:55.000Z</time>
      </trkpt>
      <trkpt lat="48.69886" lon="1.75353">
        <ele>172</ele>
        <time>2014-08-03T08:53:59.000Z</time>
      </trkpt>
      <trkpt lat="48.69881" lon="1.75341">
        <ele>172</ele>
        <time>2014-08-03T08:54:04.000Z</time>
      </trkpt>
      <trkpt lat="48.6988" lon="1.75332">
        <ele>172.19999694824</ele>
        <time>2014-08-03T08:54:09.000Z</time>
      </trkpt>
      <trkpt lat="48.69879" lon="1.75324">
        <ele>172.19999694824</ele>
        <time>2014-08-03T08:54:14.000Z</time>
      </trkpt>
      <trkpt lat="48.69877" lon="1.75312">
        <ele>172.39999389648</ele>
        <time>2014-08-03T08:54:22.000Z</time>
      </trkpt>
      <trkpt lat="48.69876" lon="1.75311">
        <ele>172.39999389648</ele>
        <time>2014-08-03T08:54:23.000Z</time>
      </trkpt>
      <trkpt lat="48.69874" lon="1.75305">
        <ele>172.39999389648</ele>
        <time>2014-08-03T08:54:26.000Z</time>
      </trkpt>
      <trkpt lat="48.69872" lon="1.75296">
        <ele>172.60000610352</ele>
        <time>2014-08-03T08:54:30.000Z</time>
      </trkpt>
      <trkpt lat="48.69871" lon="1.75281">
        <ele>172.60000610352</ele>
        <time>2014-08-03T08:54:38.000Z</time>
      </trkpt>
      <trkpt lat="48.69869" lon="1.75274">
        <ele>172.80000305176</ele>
        <time>2014-08-03T08:54:42.000Z</time>
      </trkpt>
      <trkpt lat="48.69868" lon="1.75263">
        <ele>172.80000305176</ele>
        <time>2014-08-03T08:54:49.000Z</time>
      </trkpt>
      <trkpt lat="48.69865" lon="1.75252">
        <ele>173</ele>
        <time>2014-08-03T08:54:56.000Z</time>
      </trkpt>
      <trkpt lat="48.6986" lon="1.75241">
        <ele>173</ele>
        <time>2014-08-03T08:55:02.000Z</time>
      </trkpt>
      <trkpt lat="48.69857" lon="1.75226">
        <ele>172.60000610352</ele>
        <time>2014-08-03T08:55:09.000Z</time>
      </trkpt>
      <trkpt lat="48.69855" lon="1.75211">
        <ele>172</ele>
        <time>2014-08-03T08:55:17.000Z</time>
      </trkpt>
      <trkpt lat="48.69855" lon="1.7521">
        <ele>172</ele>
        <time>2014-08-03T08:55:18.000Z</time>
      </trkpt>
      <trkpt lat="48.69854" lon="1.75206">
        <ele>171.80000305176</ele>
        <time>2014-08-03T08:55:20.000Z</time>
      </trkpt>
      <trkpt lat="48.69853" lon="1.752">
        <ele>171.60000610352</ele>
        <time>2014-08-03T08:55:24.000Z</time>
      </trkpt>
      <trkpt lat="48.69853" lon="1.75186">
        <ele>171.19999694824</ele>
        <time>2014-08-03T08:55:32.000Z</time>
      </trkpt>
      <trkpt lat="48.69853" lon="1.75179">
        <ele>170.80000305176</ele>
        <time>2014-08-03T08:55:36.000Z</time>
      </trkpt>
      <trkpt lat="48.6985" lon="1.75167">
        <ele>170.39999389648</ele>
        <time>2014-08-03T08:55:43.000Z</time>
      </trkpt>
      <trkpt lat="48.69848" lon="1.75153">
        <ele>170</ele>
        <time>2014-08-03T08:55:51.000Z</time>
      </trkpt>
      <trkpt lat="48.69848" lon="1.75148">
        <ele>169.80000305176</ele>
        <time>2014-08-03T08:55:54.000Z</time>
      </trkpt>
      <trkpt lat="48.69847" lon="1.75138">
        <ele>169.80000305176</ele>
        <time>2014-08-03T08:56:00.000Z</time>
      </trkpt>
      <trkpt lat="48.69845" lon="1.75125">
        <ele>169.80000305176</ele>
        <time>2014-08-03T08:56:08.000Z</time>
      </trkpt>
      <trkpt lat="48.69843" lon="1.75119">
        <ele>169.80000305176</ele>
        <time>2014-08-03T08:56:11.000Z</time>
      </trkpt>
      <trkpt lat="48.69842" lon="1.75109">
        <ele>169.80000305176</ele>
        <time>2014-08-03T08:56:18.000Z</time>
      </trkpt>
      <trkpt lat="48.69842" lon="1.75101">
        <ele>169.80000305176</ele>
        <time>2014-08-03T08:56:22.000Z</time>
      </trkpt>
      <trkpt lat="48.69842" lon="1.75089">
        <ele>169.80000305176</ele>
        <time>2014-08-03T08:56:28.000Z</time>
      </trkpt>
      <trkpt lat="48.69842" lon="1.75085">
        <ele>169.80000305176</ele>
        <time>2014-08-03T08:56:30.000Z</time>
      </trkpt>
      <trkpt lat="48.69839" lon="1.75072">
        <ele>169.60000610352</ele>
        <time>2014-08-03T08:56:37.000Z</time>
      </trkpt>
      <trkpt lat="48.69839" lon="1.75071">
        <ele>169.60000610352</ele>
        <time>2014-08-03T08:56:38.000Z</time>
      </trkpt>
      <trkpt lat="48.69837" lon="1.75064">
        <ele>169.39999389648</ele>
        <time>2014-08-03T08:56:42.000Z</time>
      </trkpt>
      <trkpt lat="48.69837" lon="1.75061">
        <ele>169.39999389648</ele>
        <time>2014-08-03T08:56:44.000Z</time>
      </trkpt>
      <trkpt lat="48.69833" lon="1.75049">
        <ele>169</ele>
        <time>2014-08-03T08:56:51.000Z</time>
      </trkpt>
      <trkpt lat="48.6983" lon="1.75034">
        <ele>168.80000305176</ele>
        <time>2014-08-03T08:56:59.000Z</time>
      </trkpt>
      <trkpt lat="48.69828" lon="1.7502">
        <ele>168.39999389648</ele>
        <time>2014-08-03T08:57:06.000Z</time>
      </trkpt>
      <trkpt lat="48.69827" lon="1.75007">
        <ele>168.19999694824</ele>
        <time>2014-08-03T08:57:12.000Z</time>
      </trkpt>
      <trkpt lat="48.69826" lon="1.74994">
        <ele>168.19999694824</ele>
        <time>2014-08-03T08:57:19.000Z</time>
      </trkpt>
      <trkpt lat="48.69825" lon="1.74981">
        <ele>168</ele>
        <time>2014-08-03T08:57:26.000Z</time>
      </trkpt>
      <trkpt lat="48.69825" lon="1.74974">
        <ele>168</ele>
        <time>2014-08-03T08:57:30.000Z</time>
      </trkpt>
      <trkpt lat="48.69823" lon="1.74965">
        <ele>167.80000305176</ele>
        <time>2014-08-03T08:57:35.000Z</time>
      </trkpt>
      <trkpt lat="48.69816" lon="1.74952">
        <ele>167.60000610352</ele>
        <time>2014-08-03T08:57:44.000Z</time>
      </trkpt>
      <trkpt lat="48.69815" lon="1.74937">
        <ele>167.39999389648</ele>
        <time>2014-08-03T08:57:52.000Z</time>
      </trkpt>
      <trkpt lat="48.69813" lon="1.74931">
        <ele>167.19999694824</ele>
        <time>2014-08-03T08:57:55.000Z</time>
      </trkpt>
      <trkpt lat="48.69814" lon="1.74918">
        <ele>166.80000305176</ele>
        <time>2014-08-03T08:58:02.000Z</time>
      </trkpt>
      <trkpt lat="48.69814" lon="1.74916">
        <ele>166.80000305176</ele>
        <time>2014-08-03T08:58:03.000Z</time>
      </trkpt>
      <trkpt lat="48.69811" lon="1.74909">
        <ele>166.60000610352</ele>
        <time>2014-08-03T08:58:07.000Z</time>
      </trkpt>
      <trkpt lat="48.69811" lon="1.74904">
        <ele>166.39999389648</ele>
        <time>2014-08-03T08:58:09.000Z</time>
      </trkpt>
      <trkpt lat="48.69811" lon="1.74889">
        <ele>166.39999389648</ele>
        <time>2014-08-03T08:58:17.000Z</time>
      </trkpt>
      <trkpt lat="48.69813" lon="1.74883">
        <ele>166.19999694824</ele>
        <time>2014-08-03T08:58:20.000Z</time>
      </trkpt>
      <trkpt lat="48.69817" lon="1.7488">
        <ele>166.19999694824</ele>
        <time>2014-08-03T08:58:24.000Z</time>
      </trkpt>
      <trkpt lat="48.69829" lon="1.74877">
        <ele>166.60000610352</ele>
        <time>2014-08-03T08:58:33.000Z</time>
      </trkpt>
      <trkpt lat="48.69841" lon="1.74868">
        <ele>167.80000305176</ele>
        <time>2014-08-03T08:58:40.000Z</time>
      </trkpt>
      <trkpt lat="48.69851" lon="1.74862">
        <ele>168.80000305176</ele>
        <time>2014-08-03T08:58:46.000Z</time>
      </trkpt>
      <trkpt lat="48.69857" lon="1.74859">
        <ele>169.39999389648</ele>
        <time>2014-08-03T08:58:52.000Z</time>
      </trkpt>
      <trkpt lat="48.69857" lon="1.74859">
        <ele>169.39999389648</ele>
        <time>2014-08-03T08:58:54.000Z</time>
      </trkpt>
      <trkpt lat="48.69864" lon="1.74855">
        <ele>170</ele>
        <time>2014-08-03T08:59:02.000Z</time>
      </trkpt>
      <trkpt lat="48.69873" lon="1.74851">
        <ele>170.80000305176</ele>
        <time>2014-08-03T08:59:06.000Z</time>
      </trkpt>
      <trkpt lat="48.69882" lon="1.74845">
        <ele>171.19999694824</ele>
        <time>2014-08-03T08:59:15.000Z</time>
      </trkpt>
      <trkpt lat="48.69891" lon="1.74841">
        <ele>171</ele>
        <time>2014-08-03T08:59:21.000Z</time>
      </trkpt>
      <trkpt lat="48.69895" lon="1.74839">
        <ele>171</ele>
        <time>2014-08-03T08:59:24.000Z</time>
      </trkpt>
      <trkpt lat="48.69898" lon="1.74838">
        <ele>170.80000305176</ele>
        <time>2014-08-03T08:59:26.000Z</time>
      </trkpt>
      <trkpt lat="48.69905" lon="1.74834">
        <ele>170.60000610352</ele>
        <time>2014-08-03T08:59:31.000Z</time>
      </trkpt>
      <trkpt lat="48.6991" lon="1.7483">
        <ele>170.60000610352</ele>
        <time>2014-08-03T08:59:36.000Z</time>
      </trkpt>
      <trkpt lat="48.69914" lon="1.74828">
        <ele>170.39999389648</ele>
        <time>2014-08-03T08:59:38.000Z</time>
      </trkpt>
      <trkpt lat="48.69922" lon="1.74824">
        <ele>170.19999694824</ele>
        <time>2014-08-03T08:59:45.000Z</time>
      </trkpt>
      <trkpt lat="48.69934" lon="1.7482">
        <ele>170</ele>
        <time>2014-08-03T08:59:52.000Z</time>
      </trkpt>
      <trkpt lat="48.69942" lon="1.74816">
        <ele>170.19999694824</ele>
        <time>2014-08-03T08:59:59.000Z</time>
      </trkpt>
      <trkpt lat="48.69947" lon="1.74814">
        <ele>170.19999694824</ele>
        <time>2014-08-03T09:00:05.000Z</time>
      </trkpt>
      <trkpt lat="48.69953" lon="1.74812">
        <ele>170.39999389648</ele>
        <time>2014-08-03T09:00:10.000Z</time>
      </trkpt>
      <trkpt lat="48.69961" lon="1.74807">
        <ele>170.60000610352</ele>
        <time>2014-08-03T09:00:16.000Z</time>
      </trkpt>
      <trkpt lat="48.69969" lon="1.74804">
        <ele>170.80000305176</ele>
        <time>2014-08-03T09:00:23.000Z</time>
      </trkpt>
      <trkpt lat="48.69971" lon="1.74805">
        <ele>170.80000305176</ele>
        <time>2014-08-03T09:00:27.000Z</time>
      </trkpt>
      <trkpt lat="48.69971" lon="1.74806">
        <ele>170.80000305176</ele>
        <time>2014-08-03T09:00:30.000Z</time>
      </trkpt>
      <trkpt lat="48.69974" lon="1.74802">
        <ele>170.80000305176</ele>
        <time>2014-08-03T09:00:45.000Z</time>
      </trkpt>
      <trkpt lat="48.69986" lon="1.74796">
        <ele>171.19999694824</ele>
        <time>2014-08-03T09:00:53.000Z</time>
      </trkpt>
      <trkpt lat="48.69993" lon="1.74792">
        <ele>171.19999694824</ele>
        <time>2014-08-03T09:00:59.000Z</time>
      </trkpt>
      <trkpt lat="48.70004" lon="1.74788">
        <ele>170.60000610352</ele>
        <time>2014-08-03T09:01:07.000Z</time>
      </trkpt>
      <trkpt lat="48.70016" lon="1.74784">
        <ele>169.80000305176</ele>
        <time>2014-08-03T09:01:15.000Z</time>
      </trkpt>
      <trkpt lat="48.70027" lon="1.74777">
        <ele>169.60000610352</ele>
        <time>2014-08-03T09:01:23.000Z</time>
      </trkpt>
      <trkpt lat="48.70033" lon="1.74774">
        <ele>169.80000305176</ele>
        <time>2014-08-03T09:01:29.000Z</time>
      </trkpt>
      <trkpt lat="48.70034" lon="1.74773">
        <ele>169.80000305176</ele>
        <time>2014-08-03T09:01:32.000Z</time>
      </trkpt>
      <trkpt lat="48.70039" lon="1.74773">
        <ele>170</ele>
        <time>2014-08-03T09:01:38.000Z</time>
      </trkpt>
      <trkpt lat="48.70045" lon="1.74771">
        <ele>170.19999694824</ele>
        <time>2014-08-03T09:01:42.000Z</time>
      </trkpt>
      <trkpt lat="48.70052" lon="1.74772">
        <ele>170.39999389648</ele>
        <time>2014-08-03T09:01:48.000Z</time>
      </trkpt>
      <trkpt lat="48.70058" lon="1.74769">
        <ele>170.80000305176</ele>
        <time>2014-08-03T09:01:52.000Z</time>
      </trkpt>
      <trkpt lat="48.70071" lon="1.74763">
        <ele>171.60000610352</ele>
        <time>2014-08-03T09:02:00.000Z</time>
      </trkpt>
      <trkpt lat="48.70073" lon="1.74762">
        <ele>171.80000305176</ele>
        <time>2014-08-03T09:02:03.000Z</time>
      </trkpt>
      <trkpt lat="48.7008" lon="1.74761">
        <ele>172.39999389648</ele>
        <time>2014-08-03T09:02:09.000Z</time>
      </trkpt>
      <trkpt lat="48.70089" lon="1.74757">
        <ele>173</ele>
        <time>2014-08-03T09:02:16.000Z</time>
      </trkpt>
      <trkpt lat="48.70098" lon="1.74753">
        <ele>173.60000610352</ele>
        <time>2014-08-03T09:02:23.000Z</time>
      </trkpt>
      <trkpt lat="48.70106" lon="1.74749">
        <ele>174</ele>
        <time>2014-08-03T09:02:30.000Z</time>
      </trkpt>
      <trkpt lat="48.70115" lon="1.74742">
        <ele>174.39999389648</ele>
        <time>2014-08-03T09:02:37.000Z</time>
      </trkpt>
      <trkpt lat="48.70121" lon="1.74737">
        <ele>174.60000610352</ele>
        <time>2014-08-03T09:02:41.000Z</time>
      </trkpt>
      <trkpt lat="48.70127" lon="1.7473">
        <ele>174.80000305176</ele>
        <time>2014-08-03T09:02:47.000Z</time>
      </trkpt>
      <trkpt lat="48.70128" lon="1.74729">
        <ele>174.80000305176</ele>
        <time>2014-08-03T09:02:48.000Z</time>
      </trkpt>
      <trkpt lat="48.70136" lon="1.74725">
        <ele>175</ele>
        <time>2014-08-03T09:02:54.000Z</time>
      </trkpt>
      <trkpt lat="48.70141" lon="1.74722">
        <ele>175.19999694824</ele>
        <time>2014-08-03T09:02:59.000Z</time>
      </trkpt>
      <trkpt lat="48.7015" lon="1.74716">
        <ele>175.39999389648</ele>
        <time>2014-08-03T09:03:06.000Z</time>
      </trkpt>
      <trkpt lat="48.70161" lon="1.74708">
        <ele>175.60000610352</ele>
        <time>2014-08-03T09:03:13.000Z</time>
      </trkpt>
      <trkpt lat="48.70174" lon="1.74704">
        <ele>175.39999389648</ele>
        <time>2014-08-03T09:03:21.000Z</time>
      </trkpt>
      <trkpt lat="48.70179" lon="1.74703">
        <ele>175.39999389648</ele>
        <time>2014-08-03T09:03:25.000Z</time>
      </trkpt>
      <trkpt lat="48.70185" lon="1.74706">
        <ele>175.39999389648</ele>
        <time>2014-08-03T09:03:31.000Z</time>
      </trkpt>
      <trkpt lat="48.70195" lon="1.74702">
        <ele>174.80000305176</ele>
        <time>2014-08-03T09:03:39.000Z</time>
      </trkpt>
      <trkpt lat="48.702" lon="1.74704">
        <ele>174.39999389648</ele>
        <time>2014-08-03T09:03:43.000Z</time>
      </trkpt>
      <trkpt lat="48.70209" lon="1.74701">
        <ele>173.60000610352</ele>
        <time>2014-08-03T09:03:47.000Z</time>
      </trkpt>
      <trkpt lat="48.70213" lon="1.74697">
        <ele>173.19999694824</ele>
        <time>2014-08-03T09:03:51.000Z</time>
      </trkpt>
      <trkpt lat="48.70218" lon="1.74694">
        <ele>172.60000610352</ele>
        <time>2014-08-03T09:03:55.000Z</time>
      </trkpt>
      <trkpt lat="48.7023" lon="1.74686">
        <ele>171.60000610352</ele>
        <time>2014-08-03T09:04:04.000Z</time>
      </trkpt>
      <trkpt lat="48.70238" lon="1.74682">
        <ele>171</ele>
        <time>2014-08-03T09:04:09.000Z</time>
      </trkpt>
      <trkpt lat="48.70246" lon="1.74679">
        <ele>170.39999389648</ele>
        <time>2014-08-03T09:04:14.000Z</time>
      </trkpt>
      <trkpt lat="48.70252" lon="1.74678">
        <ele>170</ele>
        <time>2014-08-03T09:04:20.000Z</time>
      </trkpt>
      <trkpt lat="48.70261" lon="1.74674">
        <ele>169.19999694824</ele>
        <time>2014-08-03T09:04:27.000Z</time>
      </trkpt>
      <trkpt lat="48.70268" lon="1.7467">
        <ele>168.80000305176</ele>
        <time>2014-08-03T09:04:31.000Z</time>
      </trkpt>
      <trkpt lat="48.7028" lon="1.74665">
        <ele>168</ele>
        <time>2014-08-03T09:04:39.000Z</time>
      </trkpt>
      <trkpt lat="48.70281" lon="1.74664">
        <ele>168</ele>
        <time>2014-08-03T09:04:42.000Z</time>
      </trkpt>
      <trkpt lat="48.70291" lon="1.74662">
        <ele>168.19999694824</ele>
        <time>2014-08-03T09:05:25.000Z</time>
      </trkpt>
      <trkpt lat="48.70295" lon="1.74661">
        <ele>168.19999694824</ele>
        <time>2014-08-03T09:05:27.000Z</time>
      </trkpt>
      <trkpt lat="48.70305" lon="1.74656">
        <ele>168.39999389648</ele>
        <time>2014-08-03T09:05:32.000Z</time>
      </trkpt>
      <trkpt lat="48.70314" lon="1.74649">
        <ele>168.60000610352</ele>
        <time>2014-08-03T09:05:39.000Z</time>
      </trkpt>
      <trkpt lat="48.70313" lon="1.74643">
        <ele>168.60000610352</ele>
        <time>2014-08-03T09:05:44.000Z</time>
      </trkpt>
      <trkpt lat="48.70309" lon="1.74636">
        <ele>168.60000610352</ele>
        <time>2014-08-03T09:05:49.000Z</time>
      </trkpt>
      <trkpt lat="48.70304" lon="1.74627">
        <ele>168.80000305176</ele>
        <time>2014-08-03T09:05:54.000Z</time>
      </trkpt>
      <trkpt lat="48.70299" lon="1.74611">
        <ele>168.80000305176</ele>
        <time>2014-08-03T09:06:03.000Z</time>
      </trkpt>
      <trkpt lat="48.70295" lon="1.74594">
        <ele>169</ele>
        <time>2014-08-03T09:06:11.000Z</time>
      </trkpt>
      <trkpt lat="48.70293" lon="1.74579">
        <ele>169.60000610352</ele>
        <time>2014-08-03T09:06:18.000Z</time>
      </trkpt>
      <trkpt lat="48.70293" lon="1.74578">
        <ele>169.60000610352</ele>
        <time>2014-08-03T09:06:19.000Z</time>
      </trkpt>
      <trkpt lat="48.70291" lon="1.7457">
        <ele>169.80000305176</ele>
        <time>2014-08-03T09:06:24.000Z</time>
      </trkpt>
      <trkpt lat="48.70286" lon="1.74558">
        <ele>170</ele>
        <time>2014-08-03T09:06:31.000Z</time>
      </trkpt>
      <trkpt lat="48.70283" lon="1.7455">
        <ele>170.19999694824</ele>
        <time>2014-08-03T09:06:36.000Z</time>
      </trkpt>
      <trkpt lat="48.70279" lon="1.74545">
        <ele>170.19999694824</ele>
        <time>2014-08-03T09:06:40.000Z</time>
      </trkpt>
      <trkpt lat="48.70273" lon="1.74534">
        <ele>170.39999389648</ele>
        <time>2014-08-03T09:06:45.000Z</time>
      </trkpt>
      <trkpt lat="48.70268" lon="1.74519">
        <ele>170.80000305176</ele>
        <time>2014-08-03T09:06:50.000Z</time>
      </trkpt>
      <trkpt lat="48.70266" lon="1.74512">
        <ele>171</ele>
        <time>2014-08-03T09:06:53.000Z</time>
      </trkpt>
      <trkpt lat="48.70263" lon="1.74506">
        <ele>171.19999694824</ele>
        <time>2014-08-03T09:06:56.000Z</time>
      </trkpt>
      <trkpt lat="48.70263" lon="1.74498">
        <ele>171.60000610352</ele>
        <time>2014-08-03T09:07:01.000Z</time>
      </trkpt>
      <trkpt lat="48.7026" lon="1.74486">
        <ele>172</ele>
        <time>2014-08-03T09:07:07.000Z</time>
      </trkpt>
      <trkpt lat="48.70259" lon="1.74478">
        <ele>172</ele>
        <time>2014-08-03T09:07:11.000Z</time>
      </trkpt>
      <trkpt lat="48.70262" lon="1.74463">
        <ele>172.60000610352</ele>
        <time>2014-08-03T09:07:19.000Z</time>
      </trkpt>
      <trkpt lat="48.70262" lon="1.74454">
        <ele>173</ele>
        <time>2014-08-03T09:07:24.000Z</time>
      </trkpt>
      <trkpt lat="48.70261" lon="1.74453">
        <ele>173</ele>
        <time>2014-08-03T09:07:25.000Z</time>
      </trkpt>
      <trkpt lat="48.70264" lon="1.74445">
        <ele>173.39999389648</ele>
        <time>2014-08-03T09:07:30.000Z</time>
      </trkpt>
      <trkpt lat="48.70265" lon="1.74443">
        <ele>173.39999389648</ele>
        <time>2014-08-03T09:07:32.000Z</time>
      </trkpt>
      <trkpt lat="48.70266" lon="1.74434">
        <ele>173.80000305176</ele>
        <time>2014-08-03T09:07:36.000Z</time>
      </trkpt>
      <trkpt lat="48.70265" lon="1.74422">
        <ele>174.19999694824</ele>
        <time>2014-08-03T09:07:42.000Z</time>
      </trkpt>
      <trkpt lat="48.70267" lon="1.74412">
        <ele>174.60000610352</ele>
        <time>2014-08-03T09:07:48.000Z</time>
      </trkpt>
      <trkpt lat="48.70268" lon="1.74401">
        <ele>175</ele>
        <time>2014-08-03T09:07:54.000Z</time>
      </trkpt>
      <trkpt lat="48.70267" lon="1.74395">
        <ele>175.39999389648</ele>
        <time>2014-08-03T09:07:58.000Z</time>
      </trkpt>
      <trkpt lat="48.70266" lon="1.74385">
        <ele>175.80000305176</ele>
        <time>2014-08-03T09:08:05.000Z</time>
      </trkpt>
      <trkpt lat="48.70265" lon="1.74373">
        <ele>176.19999694824</ele>
        <time>2014-08-03T09:08:11.000Z</time>
      </trkpt>
      <trkpt lat="48.70259" lon="1.74364">
        <ele>176.39999389648</ele>
        <time>2014-08-03T09:08:15.000Z</time>
      </trkpt>
      <trkpt lat="48.70259" lon="1.74363">
        <ele>176.39999389648</ele>
        <time>2014-08-03T09:08:16.000Z</time>
      </trkpt>
      <trkpt lat="48.70256" lon="1.74353">
        <ele>176.80000305176</ele>
        <time>2014-08-03T09:08:20.000Z</time>
      </trkpt>
      <trkpt lat="48.70252" lon="1.74342">
        <ele>177.19999694824</ele>
        <time>2014-08-03T09:08:25.000Z</time>
      </trkpt>
      <trkpt lat="48.70248" lon="1.7433">
        <ele>177.60000610352</ele>
        <time>2014-08-03T09:08:30.000Z</time>
      </trkpt>
      <trkpt lat="48.7025" lon="1.74322">
        <ele>178</ele>
        <time>2014-08-03T09:08:34.000Z</time>
      </trkpt>
      <trkpt lat="48.70248" lon="1.74312">
        <ele>178.19999694824</ele>
        <time>2014-08-03T09:08:39.000Z</time>
      </trkpt>
      <trkpt lat="48.70249" lon="1.74308">
        <ele>178.19999694824</ele>
        <time>2014-08-03T09:08:43.000Z</time>
      </trkpt>
      <trkpt lat="48.70247" lon="1.74299">
        <ele>178.39999389648</ele>
        <time>2014-08-03T09:08:47.000Z</time>
      </trkpt>
      <trkpt lat="48.70245" lon="1.74289">
        <ele>178.39999389648</ele>
        <time>2014-08-03T09:08:52.000Z</time>
      </trkpt>
      <trkpt lat="48.70244" lon="1.74288">
        <ele>178.39999389648</ele>
        <time>2014-08-03T09:08:54.000Z</time>
      </trkpt>
      <trkpt lat="48.70243" lon="1.74276">
        <ele>178.60000610352</ele>
        <time>2014-08-03T09:09:01.000Z</time>
      </trkpt>
      <trkpt lat="48.70243" lon="1.74267">
        <ele>178.60000610352</ele>
        <time>2014-08-03T09:09:07.000Z</time>
      </trkpt>
      <trkpt lat="48.70244" lon="1.74261">
        <ele>178.80000305176</ele>
        <time>2014-08-03T09:09:11.000Z</time>
      </trkpt>
      <trkpt lat="48.70243" lon="1.74258">
        <ele>178.80000305176</ele>
        <time>2014-08-03T09:09:15.000Z</time>
      </trkpt>
      <trkpt lat="48.70241" lon="1.74253">
        <ele>178.80000305176</ele>
        <time>2014-08-03T09:09:18.000Z</time>
      </trkpt>
      <trkpt lat="48.70233" lon="1.74244">
        <ele>178.60000610352</ele>
        <time>2014-08-03T09:09:23.000Z</time>
      </trkpt>
      <trkpt lat="48.70227" lon="1.74234">
        <ele>178.60000610352</ele>
        <time>2014-08-03T09:09:29.000Z</time>
      </trkpt>
      <trkpt lat="48.70219" lon="1.74226">
        <ele>178.39999389648</ele>
        <time>2014-08-03T09:09:37.000Z</time>
      </trkpt>
      <trkpt lat="48.70216" lon="1.74227">
        <ele>178.39999389648</ele>
        <time>2014-08-03T09:09:41.000Z</time>
      </trkpt>
      <trkpt lat="48.70213" lon="1.74223">
        <ele>178.19999694824</ele>
        <time>2014-08-03T09:09:43.000Z</time>
      </trkpt>
      <trkpt lat="48.7021" lon="1.74214">
        <ele>178.39999389648</ele>
        <time>2014-08-03T09:09:48.000Z</time>
      </trkpt>
      <trkpt lat="48.70201" lon="1.74202">
        <ele>178.39999389648</ele>
        <time>2014-08-03T09:09:55.000Z</time>
      </trkpt>
      <trkpt lat="48.70197" lon="1.74191">
        <ele>178.39999389648</ele>
        <time>2014-08-03T09:10:01.000Z</time>
      </trkpt>
      <trkpt lat="48.70196" lon="1.74184">
        <ele>178.60000610352</ele>
        <time>2014-08-03T09:10:05.000Z</time>
      </trkpt>
      <trkpt lat="48.70195" lon="1.74175">
        <ele>178.80000305176</ele>
        <time>2014-08-03T09:10:11.000Z</time>
      </trkpt>
      <trkpt lat="48.70192" lon="1.74169">
        <ele>178.80000305176</ele>
        <time>2014-08-03T09:10:15.000Z</time>
      </trkpt>
      <trkpt lat="48.7019" lon="1.74157">
        <ele>179</ele>
        <time>2014-08-03T09:10:20.000Z</time>
      </trkpt>
      <trkpt lat="48.70187" lon="1.74144">
        <ele>179</ele>
        <time>2014-08-03T09:10:27.000Z</time>
      </trkpt>
      <trkpt lat="48.70186" lon="1.74137">
        <ele>179</ele>
        <time>2014-08-03T09:10:31.000Z</time>
      </trkpt>
      <trkpt lat="48.70186" lon="1.74135">
        <ele>179</ele>
        <time>2014-08-03T09:10:32.000Z</time>
      </trkpt>
      <trkpt lat="48.70186" lon="1.74125">
        <ele>179</ele>
        <time>2014-08-03T09:10:39.000Z</time>
      </trkpt>
      <trkpt lat="48.70185" lon="1.74123">
        <ele>179</ele>
        <time>2014-08-03T09:10:40.000Z</time>
      </trkpt>
      <trkpt lat="48.70184" lon="1.74113">
        <ele>179</ele>
        <time>2014-08-03T09:10:45.000Z</time>
      </trkpt>
      <trkpt lat="48.70178" lon="1.74102">
        <ele>178.80000305176</ele>
        <time>2014-08-03T09:10:50.000Z</time>
      </trkpt>
      <trkpt lat="48.70179" lon="1.741">
        <ele>179</ele>
        <time>2014-08-03T09:10:51.000Z</time>
      </trkpt>
      <trkpt lat="48.70176" lon="1.74091">
        <ele>178.80000305176</ele>
        <time>2014-08-03T09:10:56.000Z</time>
      </trkpt>
      <trkpt lat="48.70173" lon="1.7408">
        <ele>178.80000305176</ele>
        <time>2014-08-03T09:11:02.000Z</time>
      </trkpt>
      <trkpt lat="48.70171" lon="1.74074">
        <ele>178.80000305176</ele>
        <time>2014-08-03T09:11:05.000Z</time>
      </trkpt>
      <trkpt lat="48.70168" lon="1.74067">
        <ele>178.80000305176</ele>
        <time>2014-08-03T09:11:10.000Z</time>
      </trkpt>
      <trkpt lat="48.70167" lon="1.74053">
        <ele>178.80000305176</ele>
        <time>2014-08-03T09:11:17.000Z</time>
      </trkpt>
      <trkpt lat="48.70168" lon="1.74043">
        <ele>178.80000305176</ele>
        <time>2014-08-03T09:11:23.000Z</time>
      </trkpt>
      <trkpt lat="48.70168" lon="1.74041">
        <ele>178.80000305176</ele>
        <time>2014-08-03T09:11:24.000Z</time>
      </trkpt>
      <trkpt lat="48.70176" lon="1.74031">
        <ele>178.80000305176</ele>
        <time>2014-08-03T09:11:30.000Z</time>
      </trkpt>
      <trkpt lat="48.70177" lon="1.74029">
        <ele>178.80000305176</ele>
        <time>2014-08-03T09:11:31.000Z</time>
      </trkpt>
      <trkpt lat="48.70174" lon="1.7402">
        <ele>178.80000305176</ele>
        <time>2014-08-03T09:11:35.000Z</time>
      </trkpt>
      <trkpt lat="48.70173" lon="1.74011">
        <ele>178.80000305176</ele>
        <time>2014-08-03T09:11:40.000Z</time>
      </trkpt>
      <trkpt lat="48.70173" lon="1.74">
        <ele>178.80000305176</ele>
        <time>2014-08-03T09:11:46.000Z</time>
      </trkpt>
      <trkpt lat="48.70181" lon="1.73988">
        <ele>179</ele>
        <time>2014-08-03T09:11:54.000Z</time>
      </trkpt>
      <trkpt lat="48.70185" lon="1.7398">
        <ele>179</ele>
        <time>2014-08-03T09:12:00.000Z</time>
      </trkpt>
      <trkpt lat="48.70188" lon="1.73974">
        <ele>178.80000305176</ele>
        <time>2014-08-03T09:12:04.000Z</time>
      </trkpt>
      <trkpt lat="48.70192" lon="1.73972">
        <ele>179</ele>
        <time>2014-08-03T09:12:08.000Z</time>
      </trkpt>
      <trkpt lat="48.702" lon="1.73962">
        <ele>179</ele>
        <time>2014-08-03T09:12:16.000Z</time>
      </trkpt>
      <trkpt lat="48.70204" lon="1.73955">
        <ele>179</ele>
        <time>2014-08-03T09:12:22.000Z</time>
      </trkpt>
      <trkpt lat="48.70207" lon="1.73953">
        <ele>179</ele>
        <time>2014-08-03T09:12:25.000Z</time>
      </trkpt>
      <trkpt lat="48.70212" lon="1.73946">
        <ele>179.19999694824</ele>
        <time>2014-08-03T09:12:31.000Z</time>
      </trkpt>
      <trkpt lat="48.70215" lon="1.7394">
        <ele>179.19999694824</ele>
        <time>2014-08-03T09:12:35.000Z</time>
      </trkpt>
      <trkpt lat="48.70226" lon="1.73935">
        <ele>179.19999694824</ele>
        <time>2014-08-03T09:12:41.000Z</time>
      </trkpt>
      <trkpt lat="48.70231" lon="1.73927">
        <ele>178.80000305176</ele>
        <time>2014-08-03T09:12:47.000Z</time>
      </trkpt>
      <trkpt lat="48.70234" lon="1.73919">
        <ele>178.60000610352</ele>
        <time>2014-08-03T09:12:52.000Z</time>
      </trkpt>
      <trkpt lat="48.70237" lon="1.73913">
        <ele>178.39999389648</ele>
        <time>2014-08-03T09:12:56.000Z</time>
      </trkpt>
      <trkpt lat="48.70242" lon="1.73908">
        <ele>178.19999694824</ele>
        <time>2014-08-03T09:13:02.000Z</time>
      </trkpt>
      <trkpt lat="48.70242" lon="1.73902">
        <ele>178</ele>
        <time>2014-08-03T09:13:06.000Z</time>
      </trkpt>
      <trkpt lat="48.70243" lon="1.73901">
        <ele>178</ele>
        <time>2014-08-03T09:13:07.000Z</time>
      </trkpt>
      <trkpt lat="48.70242" lon="1.7389">
        <ele>178</ele>
        <time>2014-08-03T09:13:14.000Z</time>
      </trkpt>
      <trkpt lat="48.7024" lon="1.73877">
        <ele>178</ele>
        <time>2014-08-03T09:13:21.000Z</time>
      </trkpt>
      <trkpt lat="48.70245" lon="1.7387">
        <ele>178</ele>
        <time>2014-08-03T09:13:25.000Z</time>
      </trkpt>
      <trkpt lat="48.70251" lon="1.73862">
        <ele>178</ele>
        <time>2014-08-03T09:13:32.000Z</time>
      </trkpt>
      <trkpt lat="48.70253" lon="1.73855">
        <ele>178</ele>
        <time>2014-08-03T09:13:36.000Z</time>
      </trkpt>
      <trkpt lat="48.70256" lon="1.73846">
        <ele>178</ele>
        <time>2014-08-03T09:13:42.000Z</time>
      </trkpt>
      <trkpt lat="48.70258" lon="1.73837">
        <ele>178</ele>
        <time>2014-08-03T09:13:47.000Z</time>
      </trkpt>
      <trkpt lat="48.70259" lon="1.73823">
        <ele>178</ele>
        <time>2014-08-03T09:13:54.000Z</time>
      </trkpt>
      <trkpt lat="48.70259" lon="1.73822">
        <ele>178</ele>
        <time>2014-08-03T09:13:55.000Z</time>
      </trkpt>
      <trkpt lat="48.70258" lon="1.73807">
        <ele>178</ele>
        <time>2014-08-03T09:14:03.000Z</time>
      </trkpt>
      <trkpt lat="48.70259" lon="1.73798">
        <ele>178</ele>
        <time>2014-08-03T09:14:08.000Z</time>
      </trkpt>
      <trkpt lat="48.70262" lon="1.73788">
        <ele>178</ele>
        <time>2014-08-03T09:14:14.000Z</time>
      </trkpt>
      <trkpt lat="48.70265" lon="1.73771">
        <ele>178</ele>
        <time>2014-08-03T09:14:24.000Z</time>
      </trkpt>
      <trkpt lat="48.70266" lon="1.73763">
        <ele>178</ele>
        <time>2014-08-03T09:14:28.000Z</time>
      </trkpt>
      <trkpt lat="48.70268" lon="1.7375">
        <ele>178</ele>
        <time>2014-08-03T09:14:35.000Z</time>
      </trkpt>
      <trkpt lat="48.70268" lon="1.73736">
        <ele>178</ele>
        <time>2014-08-03T09:14:42.000Z</time>
      </trkpt>
      <trkpt lat="48.70269" lon="1.73734">
        <ele>178</ele>
        <time>2014-08-03T09:14:43.000Z</time>
      </trkpt>
      <trkpt lat="48.70269" lon="1.73728">
        <ele>178.19999694824</ele>
        <time>2014-08-03T09:14:49.000Z</time>
      </trkpt>
      <trkpt lat="48.70265" lon="1.73726">
        <ele>178.19999694824</ele>
        <time>2014-08-03T09:14:54.000Z</time>
      </trkpt>
      <trkpt lat="48.70261" lon="1.73727">
        <ele>178.19999694824</ele>
        <time>2014-08-03T09:14:59.000Z</time>
      </trkpt>
      <trkpt lat="48.70257" lon="1.73727">
        <ele>178.19999694824</ele>
        <time>2014-08-03T09:15:05.000Z</time>
      </trkpt>
      <trkpt lat="48.70255" lon="1.73726">
        <ele>178.19999694824</ele>
        <time>2014-08-03T09:15:07.000Z</time>
      </trkpt>
      <trkpt lat="48.7025" lon="1.73725">
        <ele>178.19999694824</ele>
        <time>2014-08-03T09:15:11.000Z</time>
      </trkpt>
      <trkpt lat="48.70242" lon="1.73727">
        <ele>178.19999694824</ele>
        <time>2014-08-03T09:15:16.000Z</time>
      </trkpt>
      <trkpt lat="48.7024" lon="1.73731">
        <ele>178</ele>
        <time>2014-08-03T09:15:20.000Z</time>
      </trkpt>
      <trkpt lat="48.70237" lon="1.73731">
        <ele>178</ele>
        <time>2014-08-03T09:15:22.000Z</time>
      </trkpt>
      <trkpt lat="48.70229" lon="1.73728">
        <ele>178.19999694824</ele>
        <time>2014-08-03T09:15:30.000Z</time>
      </trkpt>
      <trkpt lat="48.70228" lon="1.73728">
        <ele>178.19999694824</ele>
        <time>2014-08-03T09:15:31.000Z</time>
      </trkpt>
      <trkpt lat="48.70222" lon="1.73727">
        <ele>178.19999694824</ele>
        <time>2014-08-03T09:15:36.000Z</time>
      </trkpt>
      <trkpt lat="48.70214" lon="1.73727">
        <ele>178.19999694824</ele>
        <time>2014-08-03T09:15:43.000Z</time>
      </trkpt>
      <trkpt lat="48.70206" lon="1.73728">
        <ele>178.19999694824</ele>
        <time>2014-08-03T09:15:48.000Z</time>
      </trkpt>
      <trkpt lat="48.70196" lon="1.73726">
        <ele>178.19999694824</ele>
        <time>2014-08-03T09:15:53.000Z</time>
      </trkpt>
      <trkpt lat="48.70195" lon="1.73725">
        <ele>178.19999694824</ele>
        <time>2014-08-03T09:15:57.000Z</time>
      </trkpt>
      <trkpt lat="48.70194" lon="1.73725">
        <ele>178.19999694824</ele>
        <time>2014-08-03T09:15:58.000Z</time>
      </trkpt>
      <trkpt lat="48.70187" lon="1.73721">
        <ele>178.19999694824</ele>
        <time>2014-08-03T09:16:06.000Z</time>
      </trkpt>
      <trkpt lat="48.70179" lon="1.73724">
        <ele>178</ele>
        <time>2014-08-03T09:16:12.000Z</time>
      </trkpt>
      <trkpt lat="48.70171" lon="1.73728">
        <ele>177.80000305176</ele>
        <time>2014-08-03T09:16:18.000Z</time>
      </trkpt>
      <trkpt lat="48.70168" lon="1.7373">
        <ele>178</ele>
        <time>2014-08-03T09:16:20.000Z</time>
      </trkpt>
      <trkpt lat="48.7016" lon="1.73727">
        <ele>177.80000305176</ele>
        <time>2014-08-03T09:16:27.000Z</time>
      </trkpt>
      <trkpt lat="48.70153" lon="1.73723">
        <ele>177.80000305176</ele>
        <time>2014-08-03T09:16:33.000Z</time>
      </trkpt>
      <trkpt lat="48.70144" lon="1.73719">
        <ele>177.80000305176</ele>
        <time>2014-08-03T09:16:41.000Z</time>
      </trkpt>
      <trkpt lat="48.70139" lon="1.73718">
        <ele>177.80000305176</ele>
        <time>2014-08-03T09:16:45.000Z</time>
      </trkpt>
      <trkpt lat="48.7013" lon="1.73718">
        <ele>177.80000305176</ele>
        <time>2014-08-03T09:16:52.000Z</time>
      </trkpt>
      <trkpt lat="48.70125" lon="1.73718">
        <ele>177.80000305176</ele>
        <time>2014-08-03T09:16:56.000Z</time>
      </trkpt>
      <trkpt lat="48.70116" lon="1.73716">
        <ele>177.80000305176</ele>
        <time>2014-08-03T09:17:00.000Z</time>
      </trkpt>
      <trkpt lat="48.701" lon="1.73714">
        <ele>177.80000305176</ele>
        <time>2014-08-03T09:17:08.000Z</time>
      </trkpt>
      <trkpt lat="48.70089" lon="1.73709">
        <ele>178</ele>
        <time>2014-08-03T09:17:15.000Z</time>
      </trkpt>
      <trkpt lat="48.70082" lon="1.73709">
        <ele>178.19999694824</ele>
        <time>2014-08-03T09:17:21.000Z</time>
      </trkpt>
      <trkpt lat="48.70082" lon="1.73709">
        <ele>178.19999694824</ele>
        <time>2014-08-03T09:17:22.000Z</time>
      </trkpt>
      <trkpt lat="48.70072" lon="1.73705">
        <ele>178.39999389648</ele>
        <time>2014-08-03T09:17:38.000Z</time>
      </trkpt>
      <trkpt lat="48.70068" lon="1.73702">
        <ele>178.39999389648</ele>
        <time>2014-08-03T09:17:41.000Z</time>
      </trkpt>
      <trkpt lat="48.70059" lon="1.73709">
        <ele>178.39999389648</ele>
        <time>2014-08-03T09:17:49.000Z</time>
      </trkpt>
      <trkpt lat="48.70055" lon="1.73711">
        <ele>178.39999389648</ele>
        <time>2014-08-03T09:17:53.000Z</time>
      </trkpt>
      <trkpt lat="48.70052" lon="1.73713">
        <ele>178.19999694824</ele>
        <time>2014-08-03T09:17:56.000Z</time>
      </trkpt>
      <trkpt lat="48.70044" lon="1.73712">
        <ele>178.39999389648</ele>
        <time>2014-08-03T09:18:03.000Z</time>
      </trkpt>
      <trkpt lat="48.70042" lon="1.7371">
        <ele>178.39999389648</ele>
        <time>2014-08-03T09:18:06.000Z</time>
      </trkpt>
      <trkpt lat="48.70033" lon="1.73708">
        <ele>178.39999389648</ele>
        <time>2014-08-03T09:18:11.000Z</time>
      </trkpt>
      <trkpt lat="48.70024" lon="1.73702">
        <ele>178.39999389648</ele>
        <time>2014-08-03T09:18:18.000Z</time>
      </trkpt>
      <trkpt lat="48.70017" lon="1.73705">
        <ele>178.39999389648</ele>
        <time>2014-08-03T09:18:24.000Z</time>
      </trkpt>
      <trkpt lat="48.70014" lon="1.73704">
        <ele>178.19999694824</ele>
        <time>2014-08-03T09:18:28.000Z</time>
      </trkpt>
      <trkpt lat="48.70006" lon="1.73702">
        <ele>178.19999694824</ele>
        <time>2014-08-03T09:18:34.000Z</time>
      </trkpt>
      <trkpt lat="48.69998" lon="1.737">
        <ele>178</ele>
        <time>2014-08-03T09:18:40.000Z</time>
      </trkpt>
      <trkpt lat="48.69995" lon="1.73701">
        <ele>177.80000305176</ele>
        <time>2014-08-03T09:18:44.000Z</time>
      </trkpt>
      <trkpt lat="48.69991" lon="1.73703">
        <ele>177.80000305176</ele>
        <time>2014-08-03T09:18:48.000Z</time>
      </trkpt>
      <trkpt lat="48.69984" lon="1.73704">
        <ele>177.60000610352</ele>
        <time>2014-08-03T09:18:53.000Z</time>
      </trkpt>
      <trkpt lat="48.69976" lon="1.73701">
        <ele>177.39999389648</ele>
        <time>2014-08-03T09:18:59.000Z</time>
      </trkpt>
      <trkpt lat="48.69968" lon="1.73698">
        <ele>177.19999694824</ele>
        <time>2014-08-03T09:19:05.000Z</time>
      </trkpt>
      <trkpt lat="48.69958" lon="1.73697">
        <ele>177</ele>
        <time>2014-08-03T09:19:11.000Z</time>
      </trkpt>
      <trkpt lat="48.69951" lon="1.73699">
        <ele>176.80000305176</ele>
        <time>2014-08-03T09:19:17.000Z</time>
      </trkpt>
      <trkpt lat="48.69942" lon="1.73699">
        <ele>176.60000610352</ele>
        <time>2014-08-03T09:19:25.000Z</time>
      </trkpt>
      <trkpt lat="48.69935" lon="1.73698">
        <ele>176.60000610352</ele>
        <time>2014-08-03T09:19:31.000Z</time>
      </trkpt>
      <trkpt lat="48.6993" lon="1.73697">
        <ele>176.60000610352</ele>
        <time>2014-08-03T09:19:36.000Z</time>
      </trkpt>
      <trkpt lat="48.69928" lon="1.73696">
        <ele>176.80000305176</ele>
        <time>2014-08-03T09:19:38.000Z</time>
      </trkpt>
      <trkpt lat="48.69919" lon="1.73694">
        <ele>177</ele>
        <time>2014-08-03T09:19:44.000Z</time>
      </trkpt>
      <trkpt lat="48.69912" lon="1.73692">
        <ele>177.19999694824</ele>
        <time>2014-08-03T09:19:49.000Z</time>
      </trkpt>
      <trkpt lat="48.69904" lon="1.7369">
        <ele>177.39999389648</ele>
        <time>2014-08-03T09:19:54.000Z</time>
      </trkpt>
      <trkpt lat="48.699" lon="1.7369">
        <ele>177.39999389648</ele>
        <time>2014-08-03T09:19:58.000Z</time>
      </trkpt>
      <trkpt lat="48.6989" lon="1.73689">
        <ele>177.60000610352</ele>
        <time>2014-08-03T09:20:03.000Z</time>
      </trkpt>
      <trkpt lat="48.69879" lon="1.7369">
        <ele>178</ele>
        <time>2014-08-03T09:20:11.000Z</time>
      </trkpt>
      <trkpt lat="48.69875" lon="1.7369">
        <ele>178</ele>
        <time>2014-08-03T09:20:15.000Z</time>
      </trkpt>
      <trkpt lat="48.6987" lon="1.73689">
        <ele>178.19999694824</ele>
        <time>2014-08-03T09:20:19.000Z</time>
      </trkpt>
      <trkpt lat="48.69865" lon="1.73687">
        <ele>178.39999389648</ele>
        <time>2014-08-03T09:20:23.000Z</time>
      </trkpt>
      <trkpt lat="48.69855" lon="1.73686">
        <ele>178.60000610352</ele>
        <time>2014-08-03T09:20:28.000Z</time>
      </trkpt>
      <trkpt lat="48.69846" lon="1.73684">
        <ele>178.80000305176</ele>
        <time>2014-08-03T09:20:34.000Z</time>
      </trkpt>
      <trkpt lat="48.6984" lon="1.73683">
        <ele>178.80000305176</ele>
        <time>2014-08-03T09:20:39.000Z</time>
      </trkpt>
      <trkpt lat="48.69833" lon="1.73685">
        <ele>178.80000305176</ele>
        <time>2014-08-03T09:20:43.000Z</time>
      </trkpt>
      <trkpt lat="48.69827" lon="1.73685">
        <ele>179</ele>
        <time>2014-08-03T09:20:48.000Z</time>
      </trkpt>
      <trkpt lat="48.69821" lon="1.73683">
        <ele>179</ele>
        <time>2014-08-03T09:20:54.000Z</time>
      </trkpt>
      <trkpt lat="48.69817" lon="1.73683">
        <ele>179</ele>
        <time>2014-08-03T09:20:59.000Z</time>
      </trkpt>
      <trkpt lat="48.69808" lon="1.73684">
        <ele>179.19999694824</ele>
        <time>2014-08-03T09:21:06.000Z</time>
      </trkpt>
      <trkpt lat="48.69796" lon="1.73681">
        <ele>179.39999389648</ele>
        <time>2014-08-03T09:21:13.000Z</time>
      </trkpt>
      <trkpt lat="48.69789" lon="1.73683">
        <ele>179.19999694824</ele>
        <time>2014-08-03T09:21:18.000Z</time>
      </trkpt>
      <trkpt lat="48.69783" lon="1.73686">
        <ele>179</ele>
        <time>2014-08-03T09:21:23.000Z</time>
      </trkpt>
      <trkpt lat="48.69781" lon="1.73683">
        <ele>179.19999694824</ele>
        <time>2014-08-03T09:21:29.000Z</time>
      </trkpt>
      <trkpt lat="48.69779" lon="1.73682">
        <ele>179</ele>
        <time>2014-08-03T09:21:31.000Z</time>
      </trkpt>
      <trkpt lat="48.69769" lon="1.73688">
        <ele>178.80000305176</ele>
        <time>2014-08-03T09:21:40.000Z</time>
      </trkpt>
      <trkpt lat="48.69765" lon="1.7369">
        <ele>178.80000305176</ele>
        <time>2014-08-03T09:21:43.000Z</time>
      </trkpt>
      <trkpt lat="48.69762" lon="1.73696">
        <ele>178.60000610352</ele>
        <time>2014-08-03T09:21:47.000Z</time>
      </trkpt>
      <trkpt lat="48.69752" lon="1.73713">
        <ele>177.80000305176</ele>
        <time>2014-08-03T09:21:56.000Z</time>
      </trkpt>
      <trkpt lat="48.69748" lon="1.73724">
        <ele>177.60000610352</ele>
        <time>2014-08-03T09:22:03.000Z</time>
      </trkpt>
      <trkpt lat="48.69742" lon="1.73737">
        <ele>177.60000610352</ele>
        <time>2014-08-03T09:22:10.000Z</time>
      </trkpt>
      <trkpt lat="48.6974" lon="1.73741">
        <ele>177.60000610352</ele>
        <time>2014-08-03T09:22:15.000Z</time>
      </trkpt>
      <trkpt lat="48.69732" lon="1.73755">
        <ele>177.39999389648</ele>
        <time>2014-08-03T09:22:22.000Z</time>
      </trkpt>
      <trkpt lat="48.69727" lon="1.73768">
        <ele>177.19999694824</ele>
        <time>2014-08-03T09:22:29.000Z</time>
      </trkpt>
      <trkpt lat="48.69719" lon="1.7378">
        <ele>177.19999694824</ele>
        <time>2014-08-03T09:22:38.000Z</time>
      </trkpt>
      <trkpt lat="48.69714" lon="1.73789">
        <ele>177.19999694824</ele>
        <time>2014-08-03T09:22:44.000Z</time>
      </trkpt>
      <trkpt lat="48.69714" lon="1.73791">
        <ele>177</ele>
        <time>2014-08-03T09:22:45.000Z</time>
      </trkpt>
      <trkpt lat="48.6971" lon="1.738">
        <ele>177</ele>
        <time>2014-08-03T09:22:51.000Z</time>
      </trkpt>
      <trkpt lat="48.697" lon="1.73816">
        <ele>176.80000305176</ele>
        <time>2014-08-03T09:23:02.000Z</time>
      </trkpt>
      <trkpt lat="48.69691" lon="1.73829">
        <ele>176.80000305176</ele>
        <time>2014-08-03T09:23:11.000Z</time>
      </trkpt>
      <trkpt lat="48.69684" lon="1.73842">
        <ele>176.80000305176</ele>
        <time>2014-08-03T09:23:20.000Z</time>
      </trkpt>
      <trkpt lat="48.69677" lon="1.73852">
        <ele>177</ele>
        <time>2014-08-03T09:23:28.000Z</time>
      </trkpt>
      <trkpt lat="48.69672" lon="1.7386">
        <ele>177.19999694824</ele>
        <time>2014-08-03T09:23:34.000Z</time>
      </trkpt>
      <trkpt lat="48.69666" lon="1.73874">
        <ele>177.39999389648</ele>
        <time>2014-08-03T09:23:43.000Z</time>
      </trkpt>
      <trkpt lat="48.69662" lon="1.73888">
        <ele>177.60000610352</ele>
        <time>2014-08-03T09:23:49.000Z</time>
      </trkpt>
      <trkpt lat="48.69659" lon="1.73897">
        <ele>177.80000305176</ele>
        <time>2014-08-03T09:23:54.000Z</time>
      </trkpt>
      <trkpt lat="48.69659" lon="1.73899">
        <ele>178</ele>
        <time>2014-08-03T09:23:55.000Z</time>
      </trkpt>
      <trkpt lat="48.69652" lon="1.73905">
        <ele>178.39999389648</ele>
        <time>2014-08-03T09:24:01.000Z</time>
      </trkpt>
      <trkpt lat="48.69645" lon="1.73916">
        <ele>178.80000305176</ele>
        <time>2014-08-03T09:24:09.000Z</time>
      </trkpt>
      <trkpt lat="48.6964" lon="1.73929">
        <ele>178.80000305176</ele>
        <time>2014-08-03T09:24:15.000Z</time>
      </trkpt>
      <trkpt lat="48.69634" lon="1.73939">
        <ele>179</ele>
        <time>2014-08-03T09:24:21.000Z</time>
      </trkpt>
      <trkpt lat="48.69626" lon="1.73951">
        <ele>179.19999694824</ele>
        <time>2014-08-03T09:24:29.000Z</time>
      </trkpt>
      <trkpt lat="48.69623" lon="1.73955">
        <ele>179.39999389648</ele>
        <time>2014-08-03T09:24:32.000Z</time>
      </trkpt>
      <trkpt lat="48.69619" lon="1.73962">
        <ele>179.39999389648</ele>
        <time>2014-08-03T09:24:36.000Z</time>
      </trkpt>
      <trkpt lat="48.69615" lon="1.7397">
        <ele>179.60000610352</ele>
        <time>2014-08-03T09:24:40.000Z</time>
      </trkpt>
      <trkpt lat="48.6961" lon="1.7398">
        <ele>179.80000305176</ele>
        <time>2014-08-03T09:24:46.000Z</time>
      </trkpt>
      <trkpt lat="48.69605" lon="1.73989">
        <ele>179.80000305176</ele>
        <time>2014-08-03T09:24:51.000Z</time>
      </trkpt>
      <trkpt lat="48.69602" lon="1.73994">
        <ele>179.80000305176</ele>
        <time>2014-08-03T09:24:55.000Z</time>
      </trkpt>
      <trkpt lat="48.69595" lon="1.74007">
        <ele>179.80000305176</ele>
        <time>2014-08-03T09:25:03.000Z</time>
      </trkpt>
      <trkpt lat="48.6959" lon="1.74019">
        <ele>179.60000610352</ele>
        <time>2014-08-03T09:25:10.000Z</time>
      </trkpt>
      <trkpt lat="48.69585" lon="1.74027">
        <ele>179.39999389648</ele>
        <time>2014-08-03T09:25:16.000Z</time>
      </trkpt>
      <trkpt lat="48.69585" lon="1.74031">
        <ele>179.39999389648</ele>
        <time>2014-08-03T09:25:21.000Z</time>
      </trkpt>
      <trkpt lat="48.69578" lon="1.74047">
        <ele>179.19999694824</ele>
        <time>2014-08-03T09:25:30.000Z</time>
      </trkpt>
      <trkpt lat="48.69575" lon="1.74055">
        <ele>179</ele>
        <time>2014-08-03T09:25:35.000Z</time>
      </trkpt>
      <trkpt lat="48.69573" lon="1.74064">
        <ele>178.80000305176</ele>
        <time>2014-08-03T09:25:40.000Z</time>
      </trkpt>
      <trkpt lat="48.69563" lon="1.7408">
        <ele>178.80000305176</ele>
        <time>2014-08-03T09:25:50.000Z</time>
      </trkpt>
      <trkpt lat="48.69558" lon="1.74095">
        <ele>178.80000305176</ele>
        <time>2014-08-03T09:25:58.000Z</time>
      </trkpt>
      <trkpt lat="48.69549" lon="1.74111">
        <ele>178.60000610352</ele>
        <time>2014-08-03T09:26:08.000Z</time>
      </trkpt>
      <trkpt lat="48.69543" lon="1.74124">
        <ele>178.39999389648</ele>
        <time>2014-08-03T09:26:14.000Z</time>
      </trkpt>
      <trkpt lat="48.69537" lon="1.74137">
        <ele>178.19999694824</ele>
        <time>2014-08-03T09:26:18.000Z</time>
      </trkpt>
      <trkpt lat="48.69524" lon="1.74163">
        <ele>177.60000610352</ele>
        <time>2014-08-03T09:26:24.000Z</time>
      </trkpt>
      <trkpt lat="48.69509" lon="1.74194">
        <ele>173.60000610352</ele>
        <time>2014-08-03T09:26:32.000Z</time>
      </trkpt>
      <trkpt lat="48.69491" lon="1.74227">
        <ele>169.80000305176</ele>
        <time>2014-08-03T09:26:40.000Z</time>
      </trkpt>
      <trkpt lat="48.69481" lon="1.74246">
        <ele>168.80000305176</ele>
        <time>2014-08-03T09:26:45.000Z</time>
      </trkpt>
      <trkpt lat="48.69468" lon="1.74271">
        <ele>167.80000305176</ele>
        <time>2014-08-03T09:26:51.000Z</time>
      </trkpt>
      <trkpt lat="48.69453" lon="1.743">
        <ele>167</ele>
        <time>2014-08-03T09:26:58.000Z</time>
      </trkpt>
      <trkpt lat="48.6944" lon="1.74326">
        <ele>166.39999389648</ele>
        <time>2014-08-03T09:27:04.000Z</time>
      </trkpt>
      <trkpt lat="48.69432" lon="1.74344">
        <ele>166.80000305176</ele>
        <time>2014-08-03T09:27:08.000Z</time>
      </trkpt>
      <trkpt lat="48.69422" lon="1.74366">
        <ele>167.19999694824</ele>
        <time>2014-08-03T09:27:13.000Z</time>
      </trkpt>
      <trkpt lat="48.69413" lon="1.74381">
        <ele>167.19999694824</ele>
        <time>2014-08-03T09:27:17.000Z</time>
      </trkpt>
      <trkpt lat="48.69398" lon="1.7441">
        <ele>168.39999389648</ele>
        <time>2014-08-03T09:27:24.000Z</time>
      </trkpt>
      <trkpt lat="48.69386" lon="1.74439">
        <ele>168.39999389648</ele>
        <time>2014-08-03T09:27:30.000Z</time>
      </trkpt>
      <trkpt lat="48.69369" lon="1.7447">
        <ele>167.80000305176</ele>
        <time>2014-08-03T09:27:37.000Z</time>
      </trkpt>
      <trkpt lat="48.6935" lon="1.74509">
        <ele>167.39999389648</ele>
        <time>2014-08-03T09:27:45.000Z</time>
      </trkpt>
      <trkpt lat="48.69334" lon="1.74539">
        <ele>168</ele>
        <time>2014-08-03T09:27:52.000Z</time>
      </trkpt>
      <trkpt lat="48.69324" lon="1.74559">
        <ele>168.39999389648</ele>
        <time>2014-08-03T09:27:58.000Z</time>
      </trkpt>
      <trkpt lat="48.69318" lon="1.74571">
        <ele>168.39999389648</ele>
        <time>2014-08-03T09:28:04.000Z</time>
      </trkpt>
      <trkpt lat="48.69311" lon="1.74582">
        <ele>168.39999389648</ele>
        <time>2014-08-03T09:28:11.000Z</time>
      </trkpt>
      <trkpt lat="48.69309" lon="1.74588">
        <ele>168.39999389648</ele>
        <time>2014-08-03T09:28:14.000Z</time>
      </trkpt>
      <trkpt lat="48.69305" lon="1.74589">
        <ele>168.39999389648</ele>
        <time>2014-08-03T09:28:18.000Z</time>
      </trkpt>
      <trkpt lat="48.69304" lon="1.7458">
        <ele>168.39999389648</ele>
        <time>2014-08-03T09:28:25.000Z</time>
      </trkpt>
      <trkpt lat="48.69305" lon="1.74575">
        <ele>168.60000610352</ele>
        <time>2014-08-03T09:28:28.000Z</time>
      </trkpt>
      <trkpt lat="48.693" lon="1.74564">
        <ele>168.60000610352</ele>
        <time>2014-08-03T09:28:36.000Z</time>
      </trkpt>
      <trkpt lat="48.69293" lon="1.74557">
        <ele>168.80000305176</ele>
        <time>2014-08-03T09:28:43.000Z</time>
      </trkpt>
      <trkpt lat="48.69288" lon="1.7455">
        <ele>168.80000305176</ele>
        <time>2014-08-03T09:28:49.000Z</time>
      </trkpt>
      <trkpt lat="48.69282" lon="1.74544">
        <ele>168.80000305176</ele>
        <time>2014-08-03T09:28:54.000Z</time>
      </trkpt>
      <trkpt lat="48.69276" lon="1.74536">
        <ele>169</ele>
        <time>2014-08-03T09:29:00.000Z</time>
      </trkpt>
      <trkpt lat="48.69268" lon="1.74529">
        <ele>169</ele>
        <time>2014-08-03T09:29:06.000Z</time>
      </trkpt>
      <trkpt lat="48.69262" lon="1.74524">
        <ele>168.80000305176</ele>
        <time>2014-08-03T09:29:11.000Z</time>
      </trkpt>
      <trkpt lat="48.69253" lon="1.74512">
        <ele>168.39999389648</ele>
        <time>2014-08-03T09:29:19.000Z</time>
      </trkpt>
      <trkpt lat="48.69252" lon="1.74511">
        <ele>168.39999389648</ele>
        <time>2014-08-03T09:29:20.000Z</time>
      </trkpt>
      <trkpt lat="48.6924" lon="1.74504">
        <ele>168</ele>
        <time>2014-08-03T09:29:28.000Z</time>
      </trkpt>
      <trkpt lat="48.69233" lon="1.745">
        <ele>167.60000610352</ele>
        <time>2014-08-03T09:29:34.000Z</time>
      </trkpt>
      <trkpt lat="48.69228" lon="1.74495">
        <ele>167.60000610352</ele>
        <time>2014-08-03T09:29:39.000Z</time>
      </trkpt>
      <trkpt lat="48.69223" lon="1.7449">
        <ele>167.39999389648</ele>
        <time>2014-08-03T09:29:43.000Z</time>
      </trkpt>
      <trkpt lat="48.69213" lon="1.74483">
        <ele>166.80000305176</ele>
        <time>2014-08-03T09:29:51.000Z</time>
      </trkpt>
      <trkpt lat="48.69207" lon="1.74475">
        <ele>166.19999694824</ele>
        <time>2014-08-03T09:29:57.000Z</time>
      </trkpt>
      <trkpt lat="48.69201" lon="1.74466">
        <ele>165.80000305176</ele>
        <time>2014-08-03T09:30:03.000Z</time>
      </trkpt>
      <trkpt lat="48.69198" lon="1.74462">
        <ele>165.39999389648</ele>
        <time>2014-08-03T09:30:06.000Z</time>
      </trkpt>
      <trkpt lat="48.6919" lon="1.74454">
        <ele>165</ele>
        <time>2014-08-03T09:30:12.000Z</time>
      </trkpt>
      <trkpt lat="48.69186" lon="1.74449">
        <ele>164.60000610352</ele>
        <time>2014-08-03T09:30:17.000Z</time>
      </trkpt>
      <trkpt lat="48.69175" lon="1.7444">
        <ele>164</ele>
        <time>2014-08-03T09:30:27.000Z</time>
      </trkpt>
      <trkpt lat="48.69174" lon="1.74438">
        <ele>164</ele>
        <time>2014-08-03T09:30:29.000Z</time>
      </trkpt>
      <trkpt lat="48.69166" lon="1.74431">
        <ele>163.39999389648</ele>
        <time>2014-08-03T09:30:36.000Z</time>
      </trkpt>
      <trkpt lat="48.69162" lon="1.74427">
        <ele>163.19999694824</ele>
        <time>2014-08-03T09:30:39.000Z</time>
      </trkpt>
      <trkpt lat="48.69157" lon="1.74421">
        <ele>163</ele>
        <time>2014-08-03T09:30:44.000Z</time>
      </trkpt>
      <trkpt lat="48.69145" lon="1.74407">
        <ele>162.19999694824</ele>
        <time>2014-08-03T09:30:54.000Z</time>
      </trkpt>
      <trkpt lat="48.69137" lon="1.74397">
        <ele>161.80000305176</ele>
        <time>2014-08-03T09:31:01.000Z</time>
      </trkpt>
      <trkpt lat="48.69134" lon="1.74394">
        <ele>161.80000305176</ele>
        <time>2014-08-03T09:31:04.000Z</time>
      </trkpt>
      <trkpt lat="48.69126" lon="1.74388">
        <ele>161.60000610352</ele>
        <time>2014-08-03T09:31:11.000Z</time>
      </trkpt>
      <trkpt lat="48.69123" lon="1.74387">
        <ele>161.39999389648</ele>
        <time>2014-08-03T09:31:13.000Z</time>
      </trkpt>
      <trkpt lat="48.69116" lon="1.74383">
        <ele>161.39999389648</ele>
        <time>2014-08-03T09:31:19.000Z</time>
      </trkpt>
      <trkpt lat="48.69111" lon="1.7438">
        <ele>161.19999694824</ele>
        <time>2014-08-03T09:31:22.000Z</time>
      </trkpt>
      <trkpt lat="48.69109" lon="1.74376">
        <ele>161.19999694824</ele>
        <time>2014-08-03T09:31:25.000Z</time>
      </trkpt>
      <trkpt lat="48.69103" lon="1.74373">
        <ele>161</ele>
        <time>2014-08-03T09:31:31.000Z</time>
      </trkpt>
      <trkpt lat="48.69096" lon="1.74366">
        <ele>161</ele>
        <time>2014-08-03T09:31:37.000Z</time>
      </trkpt>
      <trkpt lat="48.69093" lon="1.74361">
        <ele>161</ele>
        <time>2014-08-03T09:31:40.000Z</time>
      </trkpt>
      <trkpt lat="48.69087" lon="1.74351">
        <ele>161</ele>
        <time>2014-08-03T09:31:46.000Z</time>
      </trkpt>
      <trkpt lat="48.69084" lon="1.74344">
        <ele>161</ele>
        <time>2014-08-03T09:31:50.000Z</time>
      </trkpt>
      <trkpt lat="48.69078" lon="1.7434">
        <ele>161</ele>
        <time>2014-08-03T09:31:54.000Z</time>
      </trkpt>
      <trkpt lat="48.6907" lon="1.74332">
        <ele>161</ele>
        <time>2014-08-03T09:32:01.000Z</time>
      </trkpt>
      <trkpt lat="48.69069" lon="1.74329">
        <ele>161</ele>
        <time>2014-08-03T09:32:03.000Z</time>
      </trkpt>
      <trkpt lat="48.69065" lon="1.74319">
        <ele>161</ele>
        <time>2014-08-03T09:32:09.000Z</time>
      </trkpt>
      <trkpt lat="48.69064" lon="1.74318">
        <ele>161.19999694824</ele>
        <time>2014-08-03T09:32:10.000Z</time>
      </trkpt>
      <trkpt lat="48.69052" lon="1.74313">
        <ele>161.39999389648</ele>
        <time>2014-08-03T09:32:18.000Z</time>
      </trkpt>
      <trkpt lat="48.6904" lon="1.74307">
        <ele>161.60000610352</ele>
        <time>2014-08-03T09:32:26.000Z</time>
      </trkpt>
      <trkpt lat="48.69034" lon="1.74301">
        <ele>162</ele>
        <time>2014-08-03T09:32:32.000Z</time>
      </trkpt>
      <trkpt lat="48.69029" lon="1.74292">
        <ele>162.39999389648</ele>
        <time>2014-08-03T09:32:39.000Z</time>
      </trkpt>
      <trkpt lat="48.69024" lon="1.74286">
        <ele>162.60000610352</ele>
        <time>2014-08-03T09:32:45.000Z</time>
      </trkpt>
      <trkpt lat="48.69018" lon="1.7428">
        <ele>162.80000305176</ele>
        <time>2014-08-03T09:32:51.000Z</time>
      </trkpt>
      <trkpt lat="48.69012" lon="1.74277">
        <ele>162.39999389648</ele>
        <time>2014-08-03T09:32:56.000Z</time>
      </trkpt>
      <trkpt lat="48.69006" lon="1.74268">
        <ele>162.39999389648</ele>
        <time>2014-08-03T09:33:03.000Z</time>
      </trkpt>
      <trkpt lat="48.68998" lon="1.74261">
        <ele>162</ele>
        <time>2014-08-03T09:33:09.000Z</time>
      </trkpt>
      <trkpt lat="48.68993" lon="1.74255">
        <ele>161.80000305176</ele>
        <time>2014-08-03T09:33:14.000Z</time>
      </trkpt>
      <trkpt lat="48.68986" lon="1.74248">
        <ele>161.60000610352</ele>
        <time>2014-08-03T09:33:20.000Z</time>
      </trkpt>
      <trkpt lat="48.68975" lon="1.74243">
        <ele>161</ele>
        <time>2014-08-03T09:33:28.000Z</time>
      </trkpt>
      <trkpt lat="48.68972" lon="1.7424">
        <ele>160.80000305176</ele>
        <time>2014-08-03T09:33:31.000Z</time>
      </trkpt>
      <trkpt lat="48.68967" lon="1.74237">
        <ele>160.60000610352</ele>
        <time>2014-08-03T09:33:35.000Z</time>
      </trkpt>
      <trkpt lat="48.68958" lon="1.74223">
        <ele>160.39999389648</ele>
        <time>2014-08-03T09:33:45.000Z</time>
      </trkpt>
      <trkpt lat="48.68952" lon="1.74219">
        <ele>160.19999694824</ele>
        <time>2014-08-03T09:33:49.000Z</time>
      </trkpt>
      <trkpt lat="48.68948" lon="1.74214">
        <ele>160</ele>
        <time>2014-08-03T09:33:53.000Z</time>
      </trkpt>
      <trkpt lat="48.68936" lon="1.74208">
        <ele>159.39999389648</ele>
        <time>2014-08-03T09:34:02.000Z</time>
      </trkpt>
      <trkpt lat="48.68926" lon="1.74201">
        <ele>159.19999694824</ele>
        <time>2014-08-03T09:34:10.000Z</time>
      </trkpt>
      <trkpt lat="48.68917" lon="1.74194">
        <ele>159</ele>
        <time>2014-08-03T09:34:17.000Z</time>
      </trkpt>
      <trkpt lat="48.68911" lon="1.74184">
        <ele>159</ele>
        <time>2014-08-03T09:34:25.000Z</time>
      </trkpt>
      <trkpt lat="48.68903" lon="1.74171">
        <ele>159.19999694824</ele>
        <time>2014-08-03T09:34:33.000Z</time>
      </trkpt>
      <trkpt lat="48.68898" lon="1.74162">
        <ele>159.39999389648</ele>
        <time>2014-08-03T09:34:40.000Z</time>
      </trkpt>
      <trkpt lat="48.68897" lon="1.7416">
        <ele>159.39999389648</ele>
        <time>2014-08-03T09:34:41.000Z</time>
      </trkpt>
      <trkpt lat="48.68894" lon="1.74159">
        <ele>159.19999694824</ele>
        <time>2014-08-03T09:34:44.000Z</time>
      </trkpt>
      <trkpt lat="48.68889" lon="1.74152">
        <ele>159.19999694824</ele>
        <time>2014-08-03T09:34:50.000Z</time>
      </trkpt>
      <trkpt lat="48.68877" lon="1.74145">
        <ele>158.60000610352</ele>
        <time>2014-08-03T09:34:59.000Z</time>
      </trkpt>
      <trkpt lat="48.68875" lon="1.74143">
        <ele>158.60000610352</ele>
        <time>2014-08-03T09:35:01.000Z</time>
      </trkpt>
      <trkpt lat="48.68871" lon="1.74136">
        <ele>158.60000610352</ele>
        <time>2014-08-03T09:35:06.000Z</time>
      </trkpt>
      <trkpt lat="48.68867" lon="1.74129">
        <ele>158.39999389648</ele>
        <time>2014-08-03T09:35:11.000Z</time>
      </trkpt>
      <trkpt lat="48.68863" lon="1.74126">
        <ele>158.19999694824</ele>
        <time>2014-08-03T09:35:14.000Z</time>
      </trkpt>
      <trkpt lat="48.68861" lon="1.74123">
        <ele>158.19999694824</ele>
        <time>2014-08-03T09:35:17.000Z</time>
      </trkpt>
      <trkpt lat="48.68859" lon="1.7412">
        <ele>158.19999694824</ele>
        <time>2014-08-03T09:35:19.000Z</time>
      </trkpt>
      <trkpt lat="48.68857" lon="1.74118">
        <ele>158</ele>
        <time>2014-08-03T09:35:22.000Z</time>
      </trkpt>
      <trkpt lat="48.68856" lon="1.74118">
        <ele>158</ele>
        <time>2014-08-03T09:35:25.000Z</time>
      </trkpt>
      <trkpt lat="48.68845" lon="1.74082">
        <ele>158.60000610352</ele>
        <time>2014-08-03T09:36:25.000Z</time>
      </trkpt>
      <trkpt lat="48.68838" lon="1.74085">
        <ele>158.39999389648</ele>
        <time>2014-08-03T09:36:30.000Z</time>
      </trkpt>
      <trkpt lat="48.68832" lon="1.74089">
        <ele>158.39999389648</ele>
        <time>2014-08-03T09:36:36.000Z</time>
      </trkpt>
      <trkpt lat="48.68822" lon="1.74087">
        <ele>158.19999694824</ele>
        <time>2014-08-03T09:36:42.000Z</time>
      </trkpt>
      <trkpt lat="48.6882" lon="1.74082">
        <ele>158.39999389648</ele>
        <time>2014-08-03T09:36:45.000Z</time>
      </trkpt>
      <trkpt lat="48.68816" lon="1.74077">
        <ele>158.39999389648</ele>
        <time>2014-08-03T09:36:49.000Z</time>
      </trkpt>
      <trkpt lat="48.68807" lon="1.74066">
        <ele>158.80000305176</ele>
        <time>2014-08-03T09:36:58.000Z</time>
      </trkpt>
      <trkpt lat="48.68804" lon="1.74063">
        <ele>159</ele>
        <time>2014-08-03T09:37:01.000Z</time>
      </trkpt>
      <trkpt lat="48.68797" lon="1.74055">
        <ele>159.39999389648</ele>
        <time>2014-08-03T09:37:07.000Z</time>
      </trkpt>
      <trkpt lat="48.68795" lon="1.74053">
        <ele>159.60000610352</ele>
        <time>2014-08-03T09:37:09.000Z</time>
      </trkpt>
      <trkpt lat="48.68788" lon="1.74059">
        <ele>159</ele>
        <time>2014-08-03T09:37:16.000Z</time>
      </trkpt>
      <trkpt lat="48.6878" lon="1.74073">
        <ele>158</ele>
        <time>2014-08-03T09:37:24.000Z</time>
      </trkpt>
      <trkpt lat="48.68773" lon="1.74084">
        <ele>157.39999389648</ele>
        <time>2014-08-03T09:37:32.000Z</time>
      </trkpt>
      <trkpt lat="48.68764" lon="1.74096">
        <ele>157.19999694824</ele>
        <time>2014-08-03T09:37:41.000Z</time>
      </trkpt>
      <trkpt lat="48.68757" lon="1.74105">
        <ele>157</ele>
        <time>2014-08-03T09:37:47.000Z</time>
      </trkpt>
      <trkpt lat="48.68751" lon="1.74117">
        <ele>157</ele>
        <time>2014-08-03T09:37:55.000Z</time>
      </trkpt>
      <trkpt lat="48.68745" lon="1.74126">
        <ele>156.80000305176</ele>
        <time>2014-08-03T09:38:01.000Z</time>
      </trkpt>
      <trkpt lat="48.68739" lon="1.74133">
        <ele>156.80000305176</ele>
        <time>2014-08-03T09:38:07.000Z</time>
      </trkpt>
      <trkpt lat="48.6873" lon="1.74144">
        <ele>156.39999389648</ele>
        <time>2014-08-03T09:38:15.000Z</time>
      </trkpt>
      <trkpt lat="48.68722" lon="1.74159">
        <ele>156.39999389648</ele>
        <time>2014-08-03T09:38:24.000Z</time>
      </trkpt>
      <trkpt lat="48.68712" lon="1.74174">
        <ele>157.39999389648</ele>
        <time>2014-08-03T09:38:34.000Z</time>
      </trkpt>
      <trkpt lat="48.68704" lon="1.74191">
        <ele>157.60000610352</ele>
        <time>2014-08-03T09:38:43.000Z</time>
      </trkpt>
      <trkpt lat="48.68698" lon="1.7421">
        <ele>157.39999389648</ele>
        <time>2014-08-03T09:38:51.000Z</time>
      </trkpt>
      <trkpt lat="48.68697" lon="1.74221">
        <ele>157.19999694824</ele>
        <time>2014-08-03T09:38:58.000Z</time>
      </trkpt>
      <trkpt lat="48.68698" lon="1.74228">
        <ele>157.19999694824</ele>
        <time>2014-08-03T09:39:04.000Z</time>
      </trkpt>
      <trkpt lat="48.68696" lon="1.74232">
        <ele>157</ele>
        <time>2014-08-03T09:39:11.000Z</time>
      </trkpt>
      <trkpt lat="48.68696" lon="1.74232">
        <ele>157</ele>
        <time>2014-08-03T09:39:12.000Z</time>
      </trkpt>
      <trkpt lat="48.687" lon="1.7422">
        <ele>157.19999694824</ele>
        <time>2014-08-03T09:39:25.000Z</time>
      </trkpt>
      <trkpt lat="48.68696" lon="1.74206">
        <ele>157.39999389648</ele>
        <time>2014-08-03T09:39:30.000Z</time>
      </trkpt>
      <trkpt lat="48.68694" lon="1.74193">
        <ele>157.60000610352</ele>
        <time>2014-08-03T09:39:37.000Z</time>
      </trkpt>
      <trkpt lat="48.68696" lon="1.74187">
        <ele>157.60000610352</ele>
        <time>2014-08-03T09:39:41.000Z</time>
      </trkpt>
      <trkpt lat="48.68695" lon="1.7418">
        <ele>157.60000610352</ele>
        <time>2014-08-03T09:39:45.000Z</time>
      </trkpt>
      <trkpt lat="48.68696" lon="1.7417">
        <ele>157.80000305176</ele>
        <time>2014-08-03T09:39:51.000Z</time>
      </trkpt>
      <trkpt lat="48.68695" lon="1.74163">
        <ele>157.80000305176</ele>
        <time>2014-08-03T09:39:55.000Z</time>
      </trkpt>
      <trkpt lat="48.68693" lon="1.74146">
        <ele>158.19999694824</ele>
        <time>2014-08-03T09:40:04.000Z</time>
      </trkpt>
      <trkpt lat="48.68693" lon="1.74144">
        <ele>158.39999389648</ele>
        <time>2014-08-03T09:40:05.000Z</time>
      </trkpt>
      <trkpt lat="48.68691" lon="1.7413">
        <ele>159.19999694824</ele>
        <time>2014-08-03T09:40:13.000Z</time>
      </trkpt>
      <trkpt lat="48.68691" lon="1.74124">
        <ele>159.60000610352</ele>
        <time>2014-08-03T09:40:16.000Z</time>
      </trkpt>
      <trkpt lat="48.68691" lon="1.74117">
        <ele>160</ele>
        <time>2014-08-03T09:40:20.000Z</time>
      </trkpt>
      <trkpt lat="48.68689" lon="1.74111">
        <ele>160.39999389648</ele>
        <time>2014-08-03T09:40:23.000Z</time>
      </trkpt>
      <trkpt lat="48.6869" lon="1.74095">
        <ele>161.39999389648</ele>
        <time>2014-08-03T09:40:29.000Z</time>
      </trkpt>
      <trkpt lat="48.68685" lon="1.74078">
        <ele>162.60000610352</ele>
        <time>2014-08-03T09:40:38.000Z</time>
      </trkpt>
      <trkpt lat="48.68685" lon="1.74066">
        <ele>163.19999694824</ele>
        <time>2014-08-03T09:40:44.000Z</time>
      </trkpt>
      <trkpt lat="48.68682" lon="1.74056">
        <ele>163.60000610352</ele>
        <time>2014-08-03T09:40:50.000Z</time>
      </trkpt>
      <trkpt lat="48.68678" lon="1.74046">
        <ele>164</ele>
        <time>2014-08-03T09:40:56.000Z</time>
      </trkpt>
      <trkpt lat="48.68674" lon="1.74033">
        <ele>164.39999389648</ele>
        <time>2014-08-03T09:41:04.000Z</time>
      </trkpt>
      <trkpt lat="48.68674" lon="1.74031">
        <ele>164.39999389648</ele>
        <time>2014-08-03T09:41:05.000Z</time>
      </trkpt>
      <trkpt lat="48.68673" lon="1.74021">
        <ele>164.80000305176</ele>
        <time>2014-08-03T09:41:10.000Z</time>
      </trkpt>
      <trkpt lat="48.68673" lon="1.74012">
        <ele>165</ele>
        <time>2014-08-03T09:41:14.000Z</time>
      </trkpt>
      <trkpt lat="48.6867" lon="1.7401">
        <ele>165.19999694824</ele>
        <time>2014-08-03T09:41:16.000Z</time>
      </trkpt>
      <trkpt lat="48.68671" lon="1.73999">
        <ele>165.60000610352</ele>
        <time>2014-08-03T09:41:21.000Z</time>
      </trkpt>
      <trkpt lat="48.68671" lon="1.73993">
        <ele>165.80000305176</ele>
        <time>2014-08-03T09:41:24.000Z</time>
      </trkpt>
      <trkpt lat="48.68669" lon="1.73975">
        <ele>166</ele>
        <time>2014-08-03T09:41:33.000Z</time>
      </trkpt>
      <trkpt lat="48.68669" lon="1.73973">
        <ele>166</ele>
        <time>2014-08-03T09:41:34.000Z</time>
      </trkpt>
      <trkpt lat="48.68663" lon="1.73962">
        <ele>166</ele>
        <time>2014-08-03T09:41:40.000Z</time>
      </trkpt>
      <trkpt lat="48.68659" lon="1.73953">
        <ele>166.19999694824</ele>
        <time>2014-08-03T09:41:46.000Z</time>
      </trkpt>
      <trkpt lat="48.68659" lon="1.73948">
        <ele>166.39999389648</ele>
        <time>2014-08-03T09:41:49.000Z</time>
      </trkpt>
      <trkpt lat="48.68658" lon="1.73945">
        <ele>166.60000610352</ele>
        <time>2014-08-03T09:41:51.000Z</time>
      </trkpt>
      <trkpt lat="48.68657" lon="1.73931">
        <ele>167</ele>
        <time>2014-08-03T09:41:58.000Z</time>
      </trkpt>
      <trkpt lat="48.68655" lon="1.73926">
        <ele>167</ele>
        <time>2014-08-03T09:42:00.000Z</time>
      </trkpt>
      <trkpt lat="48.68652" lon="1.73919">
        <ele>167.19999694824</ele>
        <time>2014-08-03T09:42:06.000Z</time>
      </trkpt>
      <trkpt lat="48.68651" lon="1.73913">
        <ele>167.39999389648</ele>
        <time>2014-08-03T09:42:09.000Z</time>
      </trkpt>
      <trkpt lat="48.68651" lon="1.739">
        <ele>167.80000305176</ele>
        <time>2014-08-03T09:42:14.000Z</time>
      </trkpt>
      <trkpt lat="48.68652" lon="1.73885">
        <ele>168.19999694824</ele>
        <time>2014-08-03T09:42:21.000Z</time>
      </trkpt>
      <trkpt lat="48.68652" lon="1.73872">
        <ele>168.60000610352</ele>
        <time>2014-08-03T09:42:28.000Z</time>
      </trkpt>
      <trkpt lat="48.68648" lon="1.73868">
        <ele>168.39999389648</ele>
        <time>2014-08-03T09:42:32.000Z</time>
      </trkpt>
      <trkpt lat="48.68647" lon="1.73859">
        <ele>168.60000610352</ele>
        <time>2014-08-03T09:42:36.000Z</time>
      </trkpt>
      <trkpt lat="48.68646" lon="1.73845">
        <ele>169</ele>
        <time>2014-08-03T09:42:43.000Z</time>
      </trkpt>
      <trkpt lat="48.68646" lon="1.73841">
        <ele>169</ele>
        <time>2014-08-03T09:42:45.000Z</time>
      </trkpt>
      <trkpt lat="48.68646" lon="1.73828">
        <ele>169.39999389648</ele>
        <time>2014-08-03T09:42:51.000Z</time>
      </trkpt>
      <trkpt lat="48.68645" lon="1.73827">
        <ele>169.39999389648</ele>
        <time>2014-08-03T09:42:52.000Z</time>
      </trkpt>
      <trkpt lat="48.68644" lon="1.73814">
        <ele>169.39999389648</ele>
        <time>2014-08-03T09:42:58.000Z</time>
      </trkpt>
      <trkpt lat="48.68642" lon="1.73801">
        <ele>169.19999694824</ele>
        <time>2014-08-03T09:43:05.000Z</time>
      </trkpt>
      <trkpt lat="48.68642" lon="1.73799">
        <ele>169.19999694824</ele>
        <time>2014-08-03T09:43:06.000Z</time>
      </trkpt>
      <trkpt lat="48.68641" lon="1.73796">
        <ele>169</ele>
        <time>2014-08-03T09:43:08.000Z</time>
      </trkpt>
      <trkpt lat="48.68639" lon="1.73793">
        <ele>169</ele>
        <time>2014-08-03T09:43:14.000Z</time>
      </trkpt>
      <trkpt lat="48.68638" lon="1.73793">
        <ele>169</ele>
        <time>2014-08-03T09:43:18.000Z</time>
      </trkpt>
      <trkpt lat="48.68635" lon="1.73783">
        <ele>168.80000305176</ele>
        <time>2014-08-03T09:43:26.000Z</time>
      </trkpt>
      <trkpt lat="48.68636" lon="1.73772">
        <ele>168.60000610352</ele>
        <time>2014-08-03T09:43:30.000Z</time>
      </trkpt>
      <trkpt lat="48.68635" lon="1.73763">
        <ele>168.60000610352</ele>
        <time>2014-08-03T09:43:35.000Z</time>
      </trkpt>
      <trkpt lat="48.68635" lon="1.7375">
        <ele>168.80000305176</ele>
        <time>2014-08-03T09:43:42.000Z</time>
      </trkpt>
      <trkpt lat="48.68635" lon="1.73741">
        <ele>168.80000305176</ele>
        <time>2014-08-03T09:43:47.000Z</time>
      </trkpt>
      <trkpt lat="48.68632" lon="1.73731">
        <ele>168.39999389648</ele>
        <time>2014-08-03T09:43:53.000Z</time>
      </trkpt>
      <trkpt lat="48.68631" lon="1.73718">
        <ele>167.60000610352</ele>
        <time>2014-08-03T09:44:00.000Z</time>
      </trkpt>
      <trkpt lat="48.6863" lon="1.73713">
        <ele>167.19999694824</ele>
        <time>2014-08-03T09:44:04.000Z</time>
      </trkpt>
      <trkpt lat="48.68626" lon="1.73699">
        <ele>166.19999694824</ele>
        <time>2014-08-03T09:44:12.000Z</time>
      </trkpt>
      <trkpt lat="48.68626" lon="1.73677">
        <ele>164.80000305176</ele>
        <time>2014-08-03T09:44:22.000Z</time>
      </trkpt>
      <trkpt lat="48.68624" lon="1.73656">
        <ele>164</ele>
        <time>2014-08-03T09:44:32.000Z</time>
      </trkpt>
      <trkpt lat="48.68622" lon="1.73643">
        <ele>163.80000305176</ele>
        <time>2014-08-03T09:44:38.000Z</time>
      </trkpt>
      <trkpt lat="48.68619" lon="1.73632">
        <ele>163.39999389648</ele>
        <time>2014-08-03T09:44:44.000Z</time>
      </trkpt>
      <trkpt lat="48.68616" lon="1.73618">
        <ele>163.19999694824</ele>
        <time>2014-08-03T09:44:52.000Z</time>
      </trkpt>
      <trkpt lat="48.68615" lon="1.73613">
        <ele>163.19999694824</ele>
        <time>2014-08-03T09:44:56.000Z</time>
      </trkpt>
      <trkpt lat="48.68612" lon="1.736">
        <ele>162.80000305176</ele>
        <time>2014-08-03T09:45:04.000Z</time>
      </trkpt>
      <trkpt lat="48.68606" lon="1.7359">
        <ele>162.19999694824</ele>
        <time>2014-08-03T09:45:11.000Z</time>
      </trkpt>
      <trkpt lat="48.68605" lon="1.73584">
        <ele>162.19999694824</ele>
        <time>2014-08-03T09:45:15.000Z</time>
      </trkpt>
      <trkpt lat="48.68603" lon="1.73578">
        <ele>162</ele>
        <time>2014-08-03T09:45:19.000Z</time>
      </trkpt>
      <trkpt lat="48.686" lon="1.73567">
        <ele>162.19999694824</ele>
        <time>2014-08-03T09:45:26.000Z</time>
      </trkpt>
      <trkpt lat="48.68601" lon="1.73558">
        <ele>162.39999389648</ele>
        <time>2014-08-03T09:45:32.000Z</time>
      </trkpt>
      <trkpt lat="48.68601" lon="1.73549">
        <ele>162.60000610352</ele>
        <time>2014-08-03T09:45:39.000Z</time>
      </trkpt>
      <trkpt lat="48.686" lon="1.73542">
        <ele>162.80000305176</ele>
        <time>2014-08-03T09:45:43.000Z</time>
      </trkpt>
      <trkpt lat="48.68599" lon="1.73531">
        <ele>163.19999694824</ele>
        <time>2014-08-03T09:45:49.000Z</time>
      </trkpt>
      <trkpt lat="48.68598" lon="1.73515">
        <ele>163.60000610352</ele>
        <time>2014-08-03T09:45:56.000Z</time>
      </trkpt>
      <trkpt lat="48.68593" lon="1.73501">
        <ele>164.19999694824</ele>
        <time>2014-08-03T09:46:03.000Z</time>
      </trkpt>
      <trkpt lat="48.68594" lon="1.73485">
        <ele>164.60000610352</ele>
        <time>2014-08-03T09:46:12.000Z</time>
      </trkpt>
      <trkpt lat="48.68592" lon="1.73474">
        <ele>165</ele>
        <time>2014-08-03T09:46:18.000Z</time>
      </trkpt>
      <trkpt lat="48.68589" lon="1.73457">
        <ele>165.80000305176</ele>
        <time>2014-08-03T09:46:29.000Z</time>
      </trkpt>
      <trkpt lat="48.68588" lon="1.7345">
        <ele>166</ele>
        <time>2014-08-03T09:46:33.000Z</time>
      </trkpt>
      <trkpt lat="48.68586" lon="1.73433">
        <ele>166.80000305176</ele>
        <time>2014-08-03T09:46:42.000Z</time>
      </trkpt>
      <trkpt lat="48.68586" lon="1.73424">
        <ele>167</ele>
        <time>2014-08-03T09:46:49.000Z</time>
      </trkpt>
      <trkpt lat="48.68583" lon="1.73417">
        <ele>167.39999389648</ele>
        <time>2014-08-03T09:46:56.000Z</time>
      </trkpt>
      <trkpt lat="48.68583" lon="1.73408">
        <ele>167.80000305176</ele>
        <time>2014-08-03T09:47:01.000Z</time>
      </trkpt>
      <trkpt lat="48.68583" lon="1.734">
        <ele>168</ele>
        <time>2014-08-03T09:47:05.000Z</time>
      </trkpt>
      <trkpt lat="48.68581" lon="1.73387">
        <ele>167.60000610352</ele>
        <time>2014-08-03T09:47:12.000Z</time>
      </trkpt>
      <trkpt lat="48.6858" lon="1.73383">
        <ele>167.60000610352</ele>
        <time>2014-08-03T09:47:14.000Z</time>
      </trkpt>
      <trkpt lat="48.68579" lon="1.73376">
        <ele>167.60000610352</ele>
        <time>2014-08-03T09:47:19.000Z</time>
      </trkpt>
      <trkpt lat="48.68576" lon="1.73362">
        <ele>167.60000610352</ele>
        <time>2014-08-03T09:47:26.000Z</time>
      </trkpt>
      <trkpt lat="48.68576" lon="1.73357">
        <ele>167.60000610352</ele>
        <time>2014-08-03T09:47:28.000Z</time>
      </trkpt>
      <trkpt lat="48.68576" lon="1.73351">
        <ele>167.60000610352</ele>
        <time>2014-08-03T09:47:31.000Z</time>
      </trkpt>
      <trkpt lat="48.68575" lon="1.73335">
        <ele>167.60000610352</ele>
        <time>2014-08-03T09:47:37.000Z</time>
      </trkpt>
      <trkpt lat="48.68571" lon="1.73312">
        <ele>167.60000610352</ele>
        <time>2014-08-03T09:47:48.000Z</time>
      </trkpt>
      <trkpt lat="48.68569" lon="1.73305">
        <ele>167.39999389648</ele>
        <time>2014-08-03T09:47:52.000Z</time>
      </trkpt>
      <trkpt lat="48.68567" lon="1.73294">
        <ele>167.19999694824</ele>
        <time>2014-08-03T09:47:58.000Z</time>
      </trkpt>
      <trkpt lat="48.68567" lon="1.73292">
        <ele>167.19999694824</ele>
        <time>2014-08-03T09:47:59.000Z</time>
      </trkpt>
      <trkpt lat="48.68565" lon="1.73278">
        <ele>167</ele>
        <time>2014-08-03T09:48:06.000Z</time>
      </trkpt>
      <trkpt lat="48.68562" lon="1.73266">
        <ele>166.80000305176</ele>
        <time>2014-08-03T09:48:12.000Z</time>
      </trkpt>
      <trkpt lat="48.68559" lon="1.73253">
        <ele>166.80000305176</ele>
        <time>2014-08-03T09:48:20.000Z</time>
      </trkpt>
      <trkpt lat="48.68555" lon="1.73239">
        <ele>166.60000610352</ele>
        <time>2014-08-03T09:48:28.000Z</time>
      </trkpt>
      <trkpt lat="48.68554" lon="1.73228">
        <ele>166.39999389648</ele>
        <time>2014-08-03T09:48:34.000Z</time>
      </trkpt>
      <trkpt lat="48.68552" lon="1.73211">
        <ele>166.19999694824</ele>
        <time>2014-08-03T09:48:41.000Z</time>
      </trkpt>
      <trkpt lat="48.68551" lon="1.732">
        <ele>166.19999694824</ele>
        <time>2014-08-03T09:48:47.000Z</time>
      </trkpt>
      <trkpt lat="48.68551" lon="1.73194">
        <ele>166.19999694824</ele>
        <time>2014-08-03T09:48:50.000Z</time>
      </trkpt>
      <trkpt lat="48.68553" lon="1.73187">
        <ele>166</ele>
        <time>2014-08-03T09:48:55.000Z</time>
      </trkpt>
      <trkpt lat="48.68557" lon="1.7318">
        <ele>166.60000610352</ele>
        <time>2014-08-03T09:49:00.000Z</time>
      </trkpt>
      <trkpt lat="48.68557" lon="1.73173">
        <ele>166.80000305176</ele>
        <time>2014-08-03T09:49:04.000Z</time>
      </trkpt>
      <trkpt lat="48.68559" lon="1.7317">
        <ele>167.19999694824</ele>
        <time>2014-08-03T09:49:11.000Z</time>
      </trkpt>
      <trkpt lat="48.68545" lon="1.73179">
        <ele>166</ele>
        <time>2014-08-03T09:50:00.000Z</time>
      </trkpt>
      <trkpt lat="48.68538" lon="1.73191">
        <ele>166.19999694824</ele>
        <time>2014-08-03T09:50:07.000Z</time>
      </trkpt>
      <trkpt lat="48.68528" lon="1.73207">
        <ele>166.60000610352</ele>
        <time>2014-08-03T09:50:18.000Z</time>
      </trkpt>
      <trkpt lat="48.68517" lon="1.73225">
        <ele>167</ele>
        <time>2014-08-03T09:50:30.000Z</time>
      </trkpt>
      <trkpt lat="48.68507" lon="1.73241">
        <ele>167.39999389648</ele>
        <time>2014-08-03T09:50:41.000Z</time>
      </trkpt>
      <trkpt lat="48.68501" lon="1.73249">
        <ele>167.80000305176</ele>
        <time>2014-08-03T09:50:46.000Z</time>
      </trkpt>
      <trkpt lat="48.68496" lon="1.73256">
        <ele>168</ele>
        <time>2014-08-03T09:50:51.000Z</time>
      </trkpt>
      <trkpt lat="48.68488" lon="1.73271">
        <ele>168.60000610352</ele>
        <time>2014-08-03T09:51:00.000Z</time>
      </trkpt>
      <trkpt lat="48.68481" lon="1.7328">
        <ele>169</ele>
        <time>2014-08-03T09:51:07.000Z</time>
      </trkpt>
      <trkpt lat="48.68476" lon="1.73293">
        <ele>168.80000305176</ele>
        <time>2014-08-03T09:51:15.000Z</time>
      </trkpt>
      <trkpt lat="48.68475" lon="1.73297">
        <ele>168.80000305176</ele>
        <time>2014-08-03T09:51:17.000Z</time>
      </trkpt>
      <trkpt lat="48.68466" lon="1.7331">
        <ele>168.39999389648</ele>
        <time>2014-08-03T09:51:26.000Z</time>
      </trkpt>
      <trkpt lat="48.68462" lon="1.73318">
        <ele>168.39999389648</ele>
        <time>2014-08-03T09:51:32.000Z</time>
      </trkpt>
      <trkpt lat="48.6846" lon="1.7332">
        <ele>168.19999694824</ele>
        <time>2014-08-03T09:51:34.000Z</time>
      </trkpt>
      <trkpt lat="48.68456" lon="1.73325">
        <ele>168.39999389648</ele>
        <time>2014-08-03T09:51:38.000Z</time>
      </trkpt>
      <trkpt lat="48.68449" lon="1.73338">
        <ele>168.60000610352</ele>
        <time>2014-08-03T09:51:47.000Z</time>
      </trkpt>
      <trkpt lat="48.68442" lon="1.73349">
        <ele>169</ele>
        <time>2014-08-03T09:51:54.000Z</time>
      </trkpt>
      <trkpt lat="48.68435" lon="1.73361">
        <ele>169.60000610352</ele>
        <time>2014-08-03T09:52:01.000Z</time>
      </trkpt>
      <trkpt lat="48.68427" lon="1.73372">
        <ele>170.39999389648</ele>
        <time>2014-08-03T09:52:09.000Z</time>
      </trkpt>
      <trkpt lat="48.6842" lon="1.73385">
        <ele>171.19999694824</ele>
        <time>2014-08-03T09:52:16.000Z</time>
      </trkpt>
      <trkpt lat="48.68413" lon="1.73396">
        <ele>171</ele>
        <time>2014-08-03T09:52:24.000Z</time>
      </trkpt>
      <trkpt lat="48.68407" lon="1.73405">
        <ele>171</ele>
        <time>2014-08-03T09:52:30.000Z</time>
      </trkpt>
      <trkpt lat="48.68399" lon="1.73418">
        <ele>171</ele>
        <time>2014-08-03T09:52:40.000Z</time>
      </trkpt>
      <trkpt lat="48.68394" lon="1.73426">
        <ele>171</ele>
        <time>2014-08-03T09:52:46.000Z</time>
      </trkpt>
      <trkpt lat="48.68388" lon="1.73436">
        <ele>171</ele>
        <time>2014-08-03T09:52:53.000Z</time>
      </trkpt>
      <trkpt lat="48.68382" lon="1.73447">
        <ele>171</ele>
        <time>2014-08-03T09:53:01.000Z</time>
      </trkpt>
      <trkpt lat="48.68376" lon="1.73457">
        <ele>171</ele>
        <time>2014-08-03T09:53:08.000Z</time>
      </trkpt>
      <trkpt lat="48.68369" lon="1.73468">
        <ele>171</ele>
        <time>2014-08-03T09:53:17.000Z</time>
      </trkpt>
      <trkpt lat="48.68363" lon="1.73477">
        <ele>171</ele>
        <time>2014-08-03T09:53:23.000Z</time>
      </trkpt>
      <trkpt lat="48.68354" lon="1.73489">
        <ele>171</ele>
        <time>2014-08-03T09:53:30.000Z</time>
      </trkpt>
      <trkpt lat="48.6835" lon="1.73493">
        <ele>170.80000305176</ele>
        <time>2014-08-03T09:53:33.000Z</time>
      </trkpt>
      <trkpt lat="48.68342" lon="1.73506">
        <ele>170.60000610352</ele>
        <time>2014-08-03T09:53:42.000Z</time>
      </trkpt>
      <trkpt lat="48.6834" lon="1.73514">
        <ele>170.60000610352</ele>
        <time>2014-08-03T09:53:46.000Z</time>
      </trkpt>
      <trkpt lat="48.68335" lon="1.73523">
        <ele>170.39999389648</ele>
        <time>2014-08-03T09:53:52.000Z</time>
      </trkpt>
      <trkpt lat="48.68334" lon="1.73524">
        <ele>170.39999389648</ele>
        <time>2014-08-03T09:53:53.000Z</time>
      </trkpt>
      <trkpt lat="48.6833" lon="1.73539">
        <ele>170</ele>
        <time>2014-08-03T09:54:01.000Z</time>
      </trkpt>
      <trkpt lat="48.68326" lon="1.73551">
        <ele>170</ele>
        <time>2014-08-03T09:54:08.000Z</time>
      </trkpt>
      <trkpt lat="48.68323" lon="1.73563">
        <ele>170.19999694824</ele>
        <time>2014-08-03T09:54:14.000Z</time>
      </trkpt>
      <trkpt lat="48.68321" lon="1.73568">
        <ele>170.19999694824</ele>
        <time>2014-08-03T09:54:17.000Z</time>
      </trkpt>
      <trkpt lat="48.68316" lon="1.73585">
        <ele>170.39999389648</ele>
        <time>2014-08-03T09:54:26.000Z</time>
      </trkpt>
      <trkpt lat="48.68313" lon="1.73594">
        <ele>170.39999389648</ele>
        <time>2014-08-03T09:54:31.000Z</time>
      </trkpt>
      <trkpt lat="48.68309" lon="1.73611">
        <ele>170.60000610352</ele>
        <time>2014-08-03T09:54:40.000Z</time>
      </trkpt>
      <trkpt lat="48.68308" lon="1.73616">
        <ele>170.60000610352</ele>
        <time>2014-08-03T09:54:42.000Z</time>
      </trkpt>
      <trkpt lat="48.68304" lon="1.73632">
        <ele>170.80000305176</ele>
        <time>2014-08-03T09:54:50.000Z</time>
      </trkpt>
      <trkpt lat="48.68297" lon="1.73651">
        <ele>171</ele>
        <time>2014-08-03T09:54:59.000Z</time>
      </trkpt>
      <trkpt lat="48.68292" lon="1.73668">
        <ele>171.39999389648</ele>
        <time>2014-08-03T09:55:08.000Z</time>
      </trkpt>
      <trkpt lat="48.68283" lon="1.73689">
        <ele>171.39999389648</ele>
        <time>2014-08-03T09:55:16.000Z</time>
      </trkpt>
      <trkpt lat="48.68277" lon="1.73703">
        <ele>171.39999389648</ele>
        <time>2014-08-03T09:55:23.000Z</time>
      </trkpt>
      <trkpt lat="48.68275" lon="1.73715">
        <ele>171.19999694824</ele>
        <time>2014-08-03T09:55:30.000Z</time>
      </trkpt>
      <trkpt lat="48.68273" lon="1.73727">
        <ele>171</ele>
        <time>2014-08-03T09:55:37.000Z</time>
      </trkpt>
      <trkpt lat="48.68274" lon="1.73731">
        <ele>171</ele>
        <time>2014-08-03T09:55:40.000Z</time>
      </trkpt>
      <trkpt lat="48.68274" lon="1.73735">
        <ele>171</ele>
        <time>2014-08-03T09:55:44.000Z</time>
      </trkpt>
      <trkpt lat="48.68274" lon="1.7374">
        <ele>171</ele>
        <time>2014-08-03T09:55:46.000Z</time>
      </trkpt>
      <trkpt lat="48.6827" lon="1.73749">
        <ele>170.80000305176</ele>
        <time>2014-08-03T09:55:52.000Z</time>
      </trkpt>
      <trkpt lat="48.68269" lon="1.7376">
        <ele>170.39999389648</ele>
        <time>2014-08-03T09:55:57.000Z</time>
      </trkpt>
      <trkpt lat="48.68265" lon="1.73771">
        <ele>170.19999694824</ele>
        <time>2014-08-03T09:56:03.000Z</time>
      </trkpt>
      <trkpt lat="48.68263" lon="1.73774">
        <ele>170.19999694824</ele>
        <time>2014-08-03T09:56:05.000Z</time>
      </trkpt>
      <trkpt lat="48.68262" lon="1.73785">
        <ele>170</ele>
        <time>2014-08-03T09:56:10.000Z</time>
      </trkpt>
      <trkpt lat="48.68258" lon="1.73791">
        <ele>169.80000305176</ele>
        <time>2014-08-03T09:56:14.000Z</time>
      </trkpt>
      <trkpt lat="48.68254" lon="1.73807">
        <ele>169.39999389648</ele>
        <time>2014-08-03T09:56:21.000Z</time>
      </trkpt>
      <trkpt lat="48.68253" lon="1.7381">
        <ele>169.39999389648</ele>
        <time>2014-08-03T09:56:22.000Z</time>
      </trkpt>
      <trkpt lat="48.68251" lon="1.73818">
        <ele>169.19999694824</ele>
        <time>2014-08-03T09:56:27.000Z</time>
      </trkpt>
      <trkpt lat="48.6825" lon="1.73825">
        <ele>168.80000305176</ele>
        <time>2014-08-03T09:56:31.000Z</time>
      </trkpt>
      <trkpt lat="48.68248" lon="1.73839">
        <ele>168.39999389648</ele>
        <time>2014-08-03T09:56:37.000Z</time>
      </trkpt>
      <trkpt lat="48.68246" lon="1.73852">
        <ele>167.80000305176</ele>
        <time>2014-08-03T09:56:44.000Z</time>
      </trkpt>
      <trkpt lat="48.68244" lon="1.73856">
        <ele>167.80000305176</ele>
        <time>2014-08-03T09:56:46.000Z</time>
      </trkpt>
      <trkpt lat="48.68238" lon="1.73872">
        <ele>167.19999694824</ele>
        <time>2014-08-03T09:56:54.000Z</time>
      </trkpt>
      <trkpt lat="48.68232" lon="1.73886">
        <ele>166.80000305176</ele>
        <time>2014-08-03T09:57:01.000Z</time>
      </trkpt>
      <trkpt lat="48.68227" lon="1.73898">
        <ele>166.60000610352</ele>
        <time>2014-08-03T09:57:08.000Z</time>
      </trkpt>
      <trkpt lat="48.68225" lon="1.73901">
        <ele>166.60000610352</ele>
        <time>2014-08-03T09:57:11.000Z</time>
      </trkpt>
      <trkpt lat="48.68223" lon="1.73912">
        <ele>166.39999389648</ele>
        <time>2014-08-03T09:57:16.000Z</time>
      </trkpt>
      <trkpt lat="48.68218" lon="1.73926">
        <ele>166.39999389648</ele>
        <time>2014-08-03T09:57:22.000Z</time>
      </trkpt>
      <trkpt lat="48.68214" lon="1.73938">
        <ele>166.39999389648</ele>
        <time>2014-08-03T09:57:26.000Z</time>
      </trkpt>
      <trkpt lat="48.68213" lon="1.73945">
        <ele>166.39999389648</ele>
        <time>2014-08-03T09:57:29.000Z</time>
      </trkpt>
      <trkpt lat="48.68212" lon="1.73962">
        <ele>166.39999389648</ele>
        <time>2014-08-03T09:57:37.000Z</time>
      </trkpt>
      <trkpt lat="48.68212" lon="1.73964">
        <ele>166.39999389648</ele>
        <time>2014-08-03T09:57:38.000Z</time>
      </trkpt>
      <trkpt lat="48.68217" lon="1.73979">
        <ele>166.19999694824</ele>
        <time>2014-08-03T09:57:45.000Z</time>
      </trkpt>
      <trkpt lat="48.68218" lon="1.73984">
        <ele>166.19999694824</ele>
        <time>2014-08-03T09:57:47.000Z</time>
      </trkpt>
      <trkpt lat="48.68218" lon="1.74">
        <ele>166</ele>
        <time>2014-08-03T09:57:55.000Z</time>
      </trkpt>
      <trkpt lat="48.6822" lon="1.74007">
        <ele>166</ele>
        <time>2014-08-03T09:57:58.000Z</time>
      </trkpt>
      <trkpt lat="48.68222" lon="1.74026">
        <ele>165.60000610352</ele>
        <time>2014-08-03T09:58:06.000Z</time>
      </trkpt>
      <trkpt lat="48.68223" lon="1.74028">
        <ele>165.60000610352</ele>
        <time>2014-08-03T09:58:07.000Z</time>
      </trkpt>
      <trkpt lat="48.68223" lon="1.74032">
        <ele>165.60000610352</ele>
        <time>2014-08-03T09:58:09.000Z</time>
      </trkpt>
      <trkpt lat="48.68224" lon="1.74039">
        <ele>165.39999389648</ele>
        <time>2014-08-03T09:58:13.000Z</time>
      </trkpt>
      <trkpt lat="48.68227" lon="1.74054">
        <ele>165.19999694824</ele>
        <time>2014-08-03T09:58:22.000Z</time>
      </trkpt>
      <trkpt lat="48.68229" lon="1.74068">
        <ele>165</ele>
        <time>2014-08-03T09:58:29.000Z</time>
      </trkpt>
      <trkpt lat="48.6823" lon="1.74079">
        <ele>164.80000305176</ele>
        <time>2014-08-03T09:58:34.000Z</time>
      </trkpt>
      <trkpt lat="48.68233" lon="1.74096">
        <ele>164.19999694824</ele>
        <time>2014-08-03T09:58:41.000Z</time>
      </trkpt>
      <trkpt lat="48.68236" lon="1.74117">
        <ele>163.80000305176</ele>
        <time>2014-08-03T09:58:50.000Z</time>
      </trkpt>
      <trkpt lat="48.68239" lon="1.74133">
        <ele>163.39999389648</ele>
        <time>2014-08-03T09:58:57.000Z</time>
      </trkpt>
      <trkpt lat="48.68241" lon="1.74147">
        <ele>163.39999389648</ele>
        <time>2014-08-03T09:59:04.000Z</time>
      </trkpt>
      <trkpt lat="48.68241" lon="1.7415">
        <ele>163.39999389648</ele>
        <time>2014-08-03T09:59:05.000Z</time>
      </trkpt>
      <trkpt lat="48.68243" lon="1.74166">
        <ele>163.19999694824</ele>
        <time>2014-08-03T09:59:12.000Z</time>
      </trkpt>
      <trkpt lat="48.68243" lon="1.7417">
        <ele>163.19999694824</ele>
        <time>2014-08-03T09:59:14.000Z</time>
      </trkpt>
      <trkpt lat="48.68244" lon="1.74188">
        <ele>163.19999694824</ele>
        <time>2014-08-03T09:59:22.000Z</time>
      </trkpt>
      <trkpt lat="48.68247" lon="1.74201">
        <ele>163.19999694824</ele>
        <time>2014-08-03T09:59:28.000Z</time>
      </trkpt>
      <trkpt lat="48.6825" lon="1.74217">
        <ele>163</ele>
        <time>2014-08-03T09:59:36.000Z</time>
      </trkpt>
      <trkpt lat="48.68252" lon="1.74224">
        <ele>162.80000305176</ele>
        <time>2014-08-03T09:59:40.000Z</time>
      </trkpt>
      <trkpt lat="48.68255" lon="1.74236">
        <ele>162.80000305176</ele>
        <time>2014-08-03T09:59:47.000Z</time>
      </trkpt>
      <trkpt lat="48.68257" lon="1.74242">
        <ele>162.80000305176</ele>
        <time>2014-08-03T09:59:51.000Z</time>
      </trkpt>
      <trkpt lat="48.68259" lon="1.74254">
        <ele>163</ele>
        <time>2014-08-03T09:59:58.000Z</time>
      </trkpt>
      <trkpt lat="48.68262" lon="1.74267">
        <ele>163</ele>
        <time>2014-08-03T10:00:04.000Z</time>
      </trkpt>
      <trkpt lat="48.68265" lon="1.74279">
        <ele>163.19999694824</ele>
        <time>2014-08-03T10:00:10.000Z</time>
      </trkpt>
      <trkpt lat="48.68266" lon="1.74288">
        <ele>163.39999389648</ele>
        <time>2014-08-03T10:00:15.000Z</time>
      </trkpt>
      <trkpt lat="48.68267" lon="1.74309">
        <ele>163.80000305176</ele>
        <time>2014-08-03T10:00:24.000Z</time>
      </trkpt>
      <trkpt lat="48.6827" lon="1.7432">
        <ele>164</ele>
        <time>2014-08-03T10:00:31.000Z</time>
      </trkpt>
      <trkpt lat="48.68272" lon="1.74335">
        <ele>164</ele>
        <time>2014-08-03T10:00:38.000Z</time>
      </trkpt>
      <trkpt lat="48.68275" lon="1.74345">
        <ele>163.80000305176</ele>
        <time>2014-08-03T10:00:43.000Z</time>
      </trkpt>
      <trkpt lat="48.68278" lon="1.74358">
        <ele>163.60000610352</ele>
        <time>2014-08-03T10:00:50.000Z</time>
      </trkpt>
      <trkpt lat="48.68282" lon="1.74371">
        <ele>163.60000610352</ele>
        <time>2014-08-03T10:00:57.000Z</time>
      </trkpt>
      <trkpt lat="48.68283" lon="1.74377">
        <ele>163.60000610352</ele>
        <time>2014-08-03T10:01:00.000Z</time>
      </trkpt>
      <trkpt lat="48.6829" lon="1.74393">
        <ele>163.19999694824</ele>
        <time>2014-08-03T10:01:09.000Z</time>
      </trkpt>
      <trkpt lat="48.68292" lon="1.74397">
        <ele>163.19999694824</ele>
        <time>2014-08-03T10:01:11.000Z</time>
      </trkpt>
      <trkpt lat="48.68295" lon="1.7441">
        <ele>162.80000305176</ele>
        <time>2014-08-03T10:01:17.000Z</time>
      </trkpt>
      <trkpt lat="48.68296" lon="1.7442">
        <ele>162.39999389648</ele>
        <time>2014-08-03T10:01:23.000Z</time>
      </trkpt>
      <trkpt lat="48.68299" lon="1.74437">
        <ele>162</ele>
        <time>2014-08-03T10:01:30.000Z</time>
      </trkpt>
      <trkpt lat="48.68301" lon="1.74452">
        <ele>162</ele>
        <time>2014-08-03T10:01:37.000Z</time>
      </trkpt>
      <trkpt lat="48.68301" lon="1.74463">
        <ele>162</ele>
        <time>2014-08-03T10:01:44.000Z</time>
      </trkpt>
      <trkpt lat="48.68301" lon="1.74464">
        <ele>162</ele>
        <time>2014-08-03T10:01:45.000Z</time>
      </trkpt>
      <trkpt lat="48.68298" lon="1.74472">
        <ele>162.39999389648</ele>
        <time>2014-08-03T10:01:51.000Z</time>
      </trkpt>
      <trkpt lat="48.68298" lon="1.7448">
        <ele>162.60000610352</ele>
        <time>2014-08-03T10:01:55.000Z</time>
      </trkpt>
      <trkpt lat="48.683" lon="1.74496">
        <ele>162</ele>
        <time>2014-08-03T10:02:03.000Z</time>
      </trkpt>
      <trkpt lat="48.68304" lon="1.74503">
        <ele>161.39999389648</ele>
        <time>2014-08-03T10:02:08.000Z</time>
      </trkpt>
      <trkpt lat="48.68307" lon="1.74513">
        <ele>160.60000610352</ele>
        <time>2014-08-03T10:02:15.000Z</time>
      </trkpt>
      <trkpt lat="48.68311" lon="1.7452">
        <ele>160</ele>
        <time>2014-08-03T10:02:23.000Z</time>
      </trkpt>
      <trkpt lat="48.68312" lon="1.7452">
        <ele>159.80000305176</ele>
        <time>2014-08-03T10:02:26.000Z</time>
      </trkpt>
      <trkpt lat="48.68313" lon="1.74521">
        <ele>159.80000305176</ele>
        <time>2014-08-03T10:02:30.000Z</time>
      </trkpt>
      <trkpt lat="48.68314" lon="1.74525">
        <ele>159.39999389648</ele>
        <time>2014-08-03T10:02:35.000Z</time>
      </trkpt>
      <trkpt lat="48.68316" lon="1.74525">
        <ele>159.39999389648</ele>
        <time>2014-08-03T10:02:38.000Z</time>
      </trkpt>
      <trkpt lat="48.68318" lon="1.74525">
        <ele>159.19999694824</ele>
        <time>2014-08-03T10:02:39.000Z</time>
      </trkpt>
      <trkpt lat="48.68323" lon="1.74529">
        <ele>158.60000610352</ele>
        <time>2014-08-03T10:02:45.000Z</time>
      </trkpt>
      <trkpt lat="48.68326" lon="1.74534">
        <ele>158</ele>
        <time>2014-08-03T10:02:48.000Z</time>
      </trkpt>
      <trkpt lat="48.68332" lon="1.7454">
        <ele>157.19999694824</ele>
        <time>2014-08-03T10:02:54.000Z</time>
      </trkpt>
      <trkpt lat="48.68333" lon="1.74541">
        <ele>157.19999694824</ele>
        <time>2014-08-03T10:02:55.000Z</time>
      </trkpt>
      <trkpt lat="48.68338" lon="1.74548">
        <ele>156.39999389648</ele>
        <time>2014-08-03T10:03:00.000Z</time>
      </trkpt>
      <trkpt lat="48.68345" lon="1.74558">
        <ele>155.39999389648</ele>
        <time>2014-08-03T10:03:07.000Z</time>
      </trkpt>
      <trkpt lat="48.68349" lon="1.7456">
        <ele>154.80000305176</ele>
        <time>2014-08-03T10:03:11.000Z</time>
      </trkpt>
      <trkpt lat="48.68351" lon="1.74562">
        <ele>154.60000610352</ele>
        <time>2014-08-03T10:03:13.000Z</time>
      </trkpt>
      <trkpt lat="48.6836" lon="1.74572">
        <ele>154</ele>
        <time>2014-08-03T10:03:20.000Z</time>
      </trkpt>
      <trkpt lat="48.68361" lon="1.74574">
        <ele>154.19999694824</ele>
        <time>2014-08-03T10:03:21.000Z</time>
      </trkpt>
      <trkpt lat="48.68367" lon="1.74582">
        <ele>154.60000610352</ele>
        <time>2014-08-03T10:03:27.000Z</time>
      </trkpt>
      <trkpt lat="48.6837" lon="1.74589">
        <ele>155</ele>
        <time>2014-08-03T10:03:31.000Z</time>
      </trkpt>
      <trkpt lat="48.68367" lon="1.74599">
        <ele>154.60000610352</ele>
        <time>2014-08-03T10:03:38.000Z</time>
      </trkpt>
      <trkpt lat="48.68366" lon="1.74606">
        <ele>154.39999389648</ele>
        <time>2014-08-03T10:03:42.000Z</time>
      </trkpt>
      <trkpt lat="48.68366" lon="1.74615">
        <ele>154.39999389648</ele>
        <time>2014-08-03T10:03:46.000Z</time>
      </trkpt>
      <trkpt lat="48.6836" lon="1.74628">
        <ele>153.80000305176</ele>
        <time>2014-08-03T10:03:53.000Z</time>
      </trkpt>
      <trkpt lat="48.68356" lon="1.74642">
        <ele>153.39999389648</ele>
        <time>2014-08-03T10:03:58.000Z</time>
      </trkpt>
      <trkpt lat="48.68354" lon="1.74645">
        <ele>153.19999694824</ele>
        <time>2014-08-03T10:03:59.000Z</time>
      </trkpt>
      <trkpt lat="48.6835" lon="1.74655">
        <ele>153.19999694824</ele>
        <time>2014-08-03T10:04:05.000Z</time>
      </trkpt>
      <trkpt lat="48.68342" lon="1.7467">
        <ele>154.39999389648</ele>
        <time>2014-08-03T10:04:13.000Z</time>
      </trkpt>
      <trkpt lat="48.68336" lon="1.74682">
        <ele>155.19999694824</ele>
        <time>2014-08-03T10:04:20.000Z</time>
      </trkpt>
      <trkpt lat="48.68336" lon="1.74683">
        <ele>155.39999389648</ele>
        <time>2014-08-03T10:04:21.000Z</time>
      </trkpt>
      <trkpt lat="48.68331" lon="1.74696">
        <ele>156</ele>
        <time>2014-08-03T10:04:27.000Z</time>
      </trkpt>
      <trkpt lat="48.68329" lon="1.74704">
        <ele>156.60000610352</ele>
        <time>2014-08-03T10:04:30.000Z</time>
      </trkpt>
      <trkpt lat="48.68327" lon="1.74708">
        <ele>156.80000305176</ele>
        <time>2014-08-03T10:04:32.000Z</time>
      </trkpt>
      <trkpt lat="48.68325" lon="1.74709">
        <ele>157</ele>
        <time>2014-08-03T10:04:36.000Z</time>
      </trkpt>
      <trkpt lat="48.6832" lon="1.74719">
        <ele>156.19999694824</ele>
        <time>2014-08-03T10:04:46.000Z</time>
      </trkpt>
      <trkpt lat="48.68313" lon="1.74731">
        <ele>155.39999389648</ele>
        <time>2014-08-03T10:04:53.000Z</time>
      </trkpt>
      <trkpt lat="48.68307" lon="1.74741">
        <ele>155</ele>
        <time>2014-08-03T10:05:01.000Z</time>
      </trkpt>
      <trkpt lat="48.68299" lon="1.74751">
        <ele>155.39999389648</ele>
        <time>2014-08-03T10:05:09.000Z</time>
      </trkpt>
      <trkpt lat="48.68293" lon="1.7476">
        <ele>155.60000610352</ele>
        <time>2014-08-03T10:05:15.000Z</time>
      </trkpt>
      <trkpt lat="48.68288" lon="1.74769">
        <ele>155</ele>
        <time>2014-08-03T10:05:21.000Z</time>
      </trkpt>
      <trkpt lat="48.6828" lon="1.74782">
        <ele>154</ele>
        <time>2014-08-03T10:05:28.000Z</time>
      </trkpt>
      <trkpt lat="48.68277" lon="1.74791">
        <ele>153.39999389648</ele>
        <time>2014-08-03T10:05:33.000Z</time>
      </trkpt>
      <trkpt lat="48.68274" lon="1.74805">
        <ele>152.80000305176</ele>
        <time>2014-08-03T10:05:41.000Z</time>
      </trkpt>
      <trkpt lat="48.6827" lon="1.74816">
        <ele>152.19999694824</ele>
        <time>2014-08-03T10:05:47.000Z</time>
      </trkpt>
      <trkpt lat="48.68268" lon="1.74818">
        <ele>152.19999694824</ele>
        <time>2014-08-03T10:05:49.000Z</time>
      </trkpt>
      <trkpt lat="48.68263" lon="1.74827">
        <ele>152.39999389648</ele>
        <time>2014-08-03T10:05:54.000Z</time>
      </trkpt>
      <trkpt lat="48.68261" lon="1.74832">
        <ele>152.60000610352</ele>
        <time>2014-08-03T10:05:57.000Z</time>
      </trkpt>
      <trkpt lat="48.68256" lon="1.7484">
        <ele>152.80000305176</ele>
        <time>2014-08-03T10:06:04.000Z</time>
      </trkpt>
      <trkpt lat="48.68254" lon="1.74841">
        <ele>153</ele>
        <time>2014-08-03T10:06:06.000Z</time>
      </trkpt>
      <trkpt lat="48.68252" lon="1.74849">
        <ele>153</ele>
        <time>2014-08-03T10:06:11.000Z</time>
      </trkpt>
      <trkpt lat="48.68249" lon="1.7486">
        <ele>153.19999694824</ele>
        <time>2014-08-03T10:06:18.000Z</time>
      </trkpt>
      <trkpt lat="48.68247" lon="1.74864">
        <ele>153.39999389648</ele>
        <time>2014-08-03T10:06:20.000Z</time>
      </trkpt>
      <trkpt lat="48.68245" lon="1.74871">
        <ele>153.60000610352</ele>
        <time>2014-08-03T10:06:25.000Z</time>
      </trkpt>
      <trkpt lat="48.68237" lon="1.74888">
        <ele>152.80000305176</ele>
        <time>2014-08-03T10:06:33.000Z</time>
      </trkpt>
      <trkpt lat="48.68235" lon="1.7489">
        <ele>152.60000610352</ele>
        <time>2014-08-03T10:06:34.000Z</time>
      </trkpt>
      <trkpt lat="48.68231" lon="1.74908">
        <ele>151.80000305176</ele>
        <time>2014-08-03T10:06:42.000Z</time>
      </trkpt>
      <trkpt lat="48.68228" lon="1.74924">
        <ele>152.80000305176</ele>
        <time>2014-08-03T10:06:50.000Z</time>
      </trkpt>
      <trkpt lat="48.68224" lon="1.7494">
        <ele>153.60000610352</ele>
        <time>2014-08-03T10:06:58.000Z</time>
      </trkpt>
      <trkpt lat="48.68223" lon="1.74948">
        <ele>153.60000610352</ele>
        <time>2014-08-03T10:07:04.000Z</time>
      </trkpt>
      <trkpt lat="48.68223" lon="1.74952">
        <ele>153.60000610352</ele>
        <time>2014-08-03T10:07:08.000Z</time>
      </trkpt>
      <trkpt lat="48.68222" lon="1.74963">
        <ele>153.19999694824</ele>
        <time>2014-08-03T10:07:14.000Z</time>
      </trkpt>
      <trkpt lat="48.68221" lon="1.74972">
        <ele>153</ele>
        <time>2014-08-03T10:07:19.000Z</time>
      </trkpt>
      <trkpt lat="48.68218" lon="1.74984">
        <ele>152.80000305176</ele>
        <time>2014-08-03T10:07:25.000Z</time>
      </trkpt>
      <trkpt lat="48.68218" lon="1.74986">
        <ele>152.60000610352</ele>
        <time>2014-08-03T10:07:26.000Z</time>
      </trkpt>
      <trkpt lat="48.68214" lon="1.7501">
        <ele>153.80000305176</ele>
        <time>2014-08-03T10:07:35.000Z</time>
      </trkpt>
      <trkpt lat="48.68212" lon="1.75014">
        <ele>153.80000305176</ele>
        <time>2014-08-03T10:07:36.000Z</time>
      </trkpt>
      <trkpt lat="48.68213" lon="1.75017">
        <ele>154</ele>
        <time>2014-08-03T10:07:39.000Z</time>
      </trkpt>
      <trkpt lat="48.68206" lon="1.75027">
        <ele>153</ele>
        <time>2014-08-03T10:07:46.000Z</time>
      </trkpt>
      <trkpt lat="48.68203" lon="1.75037">
        <ele>152.80000305176</ele>
        <time>2014-08-03T10:07:53.000Z</time>
      </trkpt>
      <trkpt lat="48.682" lon="1.75044">
        <ele>152.39999389648</ele>
        <time>2014-08-03T10:07:58.000Z</time>
      </trkpt>
      <trkpt lat="48.68195" lon="1.75061">
        <ele>152</ele>
        <time>2014-08-03T10:08:08.000Z</time>
      </trkpt>
      <trkpt lat="48.68187" lon="1.75071">
        <ele>151.19999694824</ele>
        <time>2014-08-03T10:08:15.000Z</time>
      </trkpt>
      <trkpt lat="48.68183" lon="1.75081">
        <ele>151.39999389648</ele>
        <time>2014-08-03T10:08:21.000Z</time>
      </trkpt>
      <trkpt lat="48.68178" lon="1.75092">
        <ele>151.80000305176</ele>
        <time>2014-08-03T10:08:28.000Z</time>
      </trkpt>
      <trkpt lat="48.68172" lon="1.75099">
        <ele>151.80000305176</ele>
        <time>2014-08-03T10:08:33.000Z</time>
      </trkpt>
      <trkpt lat="48.68163" lon="1.75113">
        <ele>152.19999694824</ele>
        <time>2014-08-03T10:08:41.000Z</time>
      </trkpt>
      <trkpt lat="48.68162" lon="1.75115">
        <ele>152.19999694824</ele>
        <time>2014-08-03T10:08:42.000Z</time>
      </trkpt>
      <trkpt lat="48.68158" lon="1.75123">
        <ele>152.39999389648</ele>
        <time>2014-08-03T10:08:47.000Z</time>
      </trkpt>
      <trkpt lat="48.68151" lon="1.75137">
        <ele>152.19999694824</ele>
        <time>2014-08-03T10:08:54.000Z</time>
      </trkpt>
      <trkpt lat="48.68143" lon="1.75151">
        <ele>151.80000305176</ele>
        <time>2014-08-03T10:09:03.000Z</time>
      </trkpt>
      <trkpt lat="48.68137" lon="1.7516">
        <ele>151.19999694824</ele>
        <time>2014-08-03T10:09:09.000Z</time>
      </trkpt>
      <trkpt lat="48.68132" lon="1.75167">
        <ele>150.80000305176</ele>
        <time>2014-08-03T10:09:15.000Z</time>
      </trkpt>
      <trkpt lat="48.68124" lon="1.75181">
        <ele>150.19999694824</ele>
        <time>2014-08-03T10:09:24.000Z</time>
      </trkpt>
      <trkpt lat="48.68121" lon="1.75184">
        <ele>150.19999694824</ele>
        <time>2014-08-03T10:09:26.000Z</time>
      </trkpt>
      <trkpt lat="48.68115" lon="1.75194">
        <ele>150.19999694824</ele>
        <time>2014-08-03T10:09:33.000Z</time>
      </trkpt>
      <trkpt lat="48.68109" lon="1.75202">
        <ele>150</ele>
        <time>2014-08-03T10:09:38.000Z</time>
      </trkpt>
      <trkpt lat="48.68102" lon="1.75211">
        <ele>150</ele>
        <time>2014-08-03T10:09:44.000Z</time>
      </trkpt>
      <trkpt lat="48.681" lon="1.75216">
        <ele>150.19999694824</ele>
        <time>2014-08-03T10:09:47.000Z</time>
      </trkpt>
      <trkpt lat="48.68096" lon="1.75218">
        <ele>150.19999694824</ele>
        <time>2014-08-03T10:09:51.000Z</time>
      </trkpt>
      <trkpt lat="48.6809" lon="1.75226">
        <ele>150.39999389648</ele>
        <time>2014-08-03T10:09:57.000Z</time>
      </trkpt>
      <trkpt lat="48.68085" lon="1.75243">
        <ele>150.19999694824</ele>
        <time>2014-08-03T10:10:06.000Z</time>
      </trkpt>
      <trkpt lat="48.68082" lon="1.75254">
        <ele>150</ele>
        <time>2014-08-03T10:10:12.000Z</time>
      </trkpt>
      <trkpt lat="48.68078" lon="1.75266">
        <ele>149.80000305176</ele>
        <time>2014-08-03T10:10:19.000Z</time>
      </trkpt>
      <trkpt lat="48.68075" lon="1.75279">
        <ele>149.60000610352</ele>
        <time>2014-08-03T10:10:26.000Z</time>
      </trkpt>
      <trkpt lat="48.68076" lon="1.75292">
        <ele>149.80000305176</ele>
        <time>2014-08-03T10:10:33.000Z</time>
      </trkpt>
      <trkpt lat="48.68072" lon="1.7531">
        <ele>149.80000305176</ele>
        <time>2014-08-03T10:10:42.000Z</time>
      </trkpt>
      <trkpt lat="48.6807" lon="1.75329">
        <ele>149.80000305176</ele>
        <time>2014-08-03T10:10:51.000Z</time>
      </trkpt>
      <trkpt lat="48.68069" lon="1.75343">
        <ele>149.60000610352</ele>
        <time>2014-08-03T10:10:58.000Z</time>
      </trkpt>
      <trkpt lat="48.68068" lon="1.75361">
        <ele>149.19999694824</ele>
        <time>2014-08-03T10:11:07.000Z</time>
      </trkpt>
      <trkpt lat="48.68067" lon="1.75377">
        <ele>149.19999694824</ele>
        <time>2014-08-03T10:11:15.000Z</time>
      </trkpt>
      <trkpt lat="48.68065" lon="1.75387">
        <ele>149</ele>
        <time>2014-08-03T10:11:20.000Z</time>
      </trkpt>
      <trkpt lat="48.68062" lon="1.75402">
        <ele>149</ele>
        <time>2014-08-03T10:11:28.000Z</time>
      </trkpt>
      <trkpt lat="48.68059" lon="1.75418">
        <ele>149</ele>
        <time>2014-08-03T10:11:35.000Z</time>
      </trkpt>
      <trkpt lat="48.68058" lon="1.7543">
        <ele>149</ele>
        <time>2014-08-03T10:11:41.000Z</time>
      </trkpt>
      <trkpt lat="48.68055" lon="1.75442">
        <ele>148.80000305176</ele>
        <time>2014-08-03T10:11:47.000Z</time>
      </trkpt>
      <trkpt lat="48.68053" lon="1.75457">
        <ele>148.39999389648</ele>
        <time>2014-08-03T10:11:54.000Z</time>
      </trkpt>
      <trkpt lat="48.68051" lon="1.75469">
        <ele>148</ele>
        <time>2014-08-03T10:12:00.000Z</time>
      </trkpt>
      <trkpt lat="48.68048" lon="1.75489">
        <ele>147.39999389648</ele>
        <time>2014-08-03T10:12:09.000Z</time>
      </trkpt>
      <trkpt lat="48.68045" lon="1.75506">
        <ele>147.19999694824</ele>
        <time>2014-08-03T10:12:17.000Z</time>
      </trkpt>
      <trkpt lat="48.6805" lon="1.75519">
        <ele>147.39999389648</ele>
        <time>2014-08-03T10:12:24.000Z</time>
      </trkpt>
      <trkpt lat="48.6806" lon="1.75529">
        <ele>148</ele>
        <time>2014-08-03T10:12:34.000Z</time>
      </trkpt>
      <trkpt lat="48.68067" lon="1.75533">
        <ele>148.19999694824</ele>
        <time>2014-08-03T10:12:40.000Z</time>
      </trkpt>
      <trkpt lat="48.68078" lon="1.75539">
        <ele>148.80000305176</ele>
        <time>2014-08-03T10:12:49.000Z</time>
      </trkpt>
      <trkpt lat="48.68082" lon="1.7554">
        <ele>149</ele>
        <time>2014-08-03T10:12:54.000Z</time>
      </trkpt>
      <trkpt lat="48.68093" lon="1.75548">
        <ele>149.60000610352</ele>
        <time>2014-08-03T10:13:03.000Z</time>
      </trkpt>
      <trkpt lat="48.68099" lon="1.75555">
        <ele>149.80000305176</ele>
        <time>2014-08-03T10:13:08.000Z</time>
      </trkpt>
      <trkpt lat="48.68108" lon="1.75563">
        <ele>150.19999694824</ele>
        <time>2014-08-03T10:13:16.000Z</time>
      </trkpt>
      <trkpt lat="48.68118" lon="1.7557">
        <ele>150.39999389648</ele>
        <time>2014-08-03T10:13:24.000Z</time>
      </trkpt>
      <trkpt lat="48.68126" lon="1.75575">
        <ele>150.60000610352</ele>
        <time>2014-08-03T10:13:30.000Z</time>
      </trkpt>
      <trkpt lat="48.68135" lon="1.75582">
        <ele>150.80000305176</ele>
        <time>2014-08-03T10:13:38.000Z</time>
      </trkpt>
      <trkpt lat="48.68145" lon="1.75588">
        <ele>151</ele>
        <time>2014-08-03T10:13:46.000Z</time>
      </trkpt>
      <trkpt lat="48.68158" lon="1.75596">
        <ele>151.39999389648</ele>
        <time>2014-08-03T10:13:56.000Z</time>
      </trkpt>
      <trkpt lat="48.68168" lon="1.75604">
        <ele>151.60000610352</ele>
        <time>2014-08-03T10:14:04.000Z</time>
      </trkpt>
      <trkpt lat="48.68179" lon="1.75608">
        <ele>151.80000305176</ele>
        <time>2014-08-03T10:14:12.000Z</time>
      </trkpt>
      <trkpt lat="48.6819" lon="1.75613">
        <ele>152</ele>
        <time>2014-08-03T10:14:20.000Z</time>
      </trkpt>
      <trkpt lat="48.68197" lon="1.75615">
        <ele>152.19999694824</ele>
        <time>2014-08-03T10:14:25.000Z</time>
      </trkpt>
      <trkpt lat="48.68207" lon="1.75619">
        <ele>152.19999694824</ele>
        <time>2014-08-03T10:14:33.000Z</time>
      </trkpt>
      <trkpt lat="48.68218" lon="1.75621">
        <ele>152.39999389648</ele>
        <time>2014-08-03T10:14:40.000Z</time>
      </trkpt>
      <trkpt lat="48.68226" lon="1.75624">
        <ele>152.39999389648</ele>
        <time>2014-08-03T10:14:46.000Z</time>
      </trkpt>
      <trkpt lat="48.68233" lon="1.75627">
        <ele>152.60000610352</ele>
        <time>2014-08-03T10:14:52.000Z</time>
      </trkpt>
      <trkpt lat="48.68244" lon="1.7563">
        <ele>152.60000610352</ele>
        <time>2014-08-03T10:15:00.000Z</time>
      </trkpt>
      <trkpt lat="48.68253" lon="1.75633">
        <ele>152.80000305176</ele>
        <time>2014-08-03T10:15:06.000Z</time>
      </trkpt>
      <trkpt lat="48.68261" lon="1.75637">
        <ele>152.80000305176</ele>
        <time>2014-08-03T10:15:13.000Z</time>
      </trkpt>
      <trkpt lat="48.68269" lon="1.75636">
        <ele>153</ele>
        <time>2014-08-03T10:15:18.000Z</time>
      </trkpt>
      <trkpt lat="48.68277" lon="1.75639">
        <ele>153</ele>
        <time>2014-08-03T10:15:24.000Z</time>
      </trkpt>
      <trkpt lat="48.68289" lon="1.75643">
        <ele>152.80000305176</ele>
        <time>2014-08-03T10:15:33.000Z</time>
      </trkpt>
      <trkpt lat="48.68293" lon="1.75645">
        <ele>152.80000305176</ele>
        <time>2014-08-03T10:15:36.000Z</time>
      </trkpt>
      <trkpt lat="48.68302" lon="1.75648">
        <ele>152.60000610352</ele>
        <time>2014-08-03T10:15:43.000Z</time>
      </trkpt>
      <trkpt lat="48.68314" lon="1.75649">
        <ele>152.39999389648</ele>
        <time>2014-08-03T10:15:51.000Z</time>
      </trkpt>
      <trkpt lat="48.68324" lon="1.75644">
        <ele>152.39999389648</ele>
        <time>2014-08-03T10:15:59.000Z</time>
      </trkpt>
      <trkpt lat="48.68327" lon="1.75642">
        <ele>152.39999389648</ele>
        <time>2014-08-03T10:16:01.000Z</time>
      </trkpt>
      <trkpt lat="48.68332" lon="1.75636">
        <ele>152.19999694824</ele>
        <time>2014-08-03T10:16:06.000Z</time>
      </trkpt>
      <trkpt lat="48.68334" lon="1.75635">
        <ele>152.19999694824</ele>
        <time>2014-08-03T10:16:10.000Z</time>
      </trkpt>
      <trkpt lat="48.68338" lon="1.75633">
        <ele>152.19999694824</ele>
        <time>2014-08-03T10:16:23.000Z</time>
      </trkpt>
      <trkpt lat="48.68346" lon="1.7563">
        <ele>152.19999694824</ele>
        <time>2014-08-03T10:16:29.000Z</time>
      </trkpt>
      <trkpt lat="48.68355" lon="1.75622">
        <ele>152.39999389648</ele>
        <time>2014-08-03T10:16:36.000Z</time>
      </trkpt>
      <trkpt lat="48.68365" lon="1.75616">
        <ele>152.80000305176</ele>
        <time>2014-08-03T10:16:43.000Z</time>
      </trkpt>
      <trkpt lat="48.68371" lon="1.7561">
        <ele>153</ele>
        <time>2014-08-03T10:16:47.000Z</time>
      </trkpt>
      <trkpt lat="48.6838" lon="1.75605">
        <ele>153.19999694824</ele>
        <time>2014-08-03T10:16:53.000Z</time>
      </trkpt>
      <trkpt lat="48.68388" lon="1.75599">
        <ele>153.60000610352</ele>
        <time>2014-08-03T10:16:59.000Z</time>
      </trkpt>
      <trkpt lat="48.68393" lon="1.75591">
        <ele>153.80000305176</ele>
        <time>2014-08-03T10:17:05.000Z</time>
      </trkpt>
      <trkpt lat="48.68394" lon="1.75591">
        <ele>153.80000305176</ele>
        <time>2014-08-03T10:17:06.000Z</time>
      </trkpt>
      <trkpt lat="48.68402" lon="1.75589">
        <ele>154</ele>
        <time>2014-08-03T10:17:13.000Z</time>
      </trkpt>
      <trkpt lat="48.68409" lon="1.75586">
        <ele>154.19999694824</ele>
        <time>2014-08-03T10:17:18.000Z</time>
      </trkpt>
      <trkpt lat="48.68417" lon="1.75583">
        <ele>154.39999389648</ele>
        <time>2014-08-03T10:17:24.000Z</time>
      </trkpt>
      <trkpt lat="48.68421" lon="1.75581">
        <ele>154.60000610352</ele>
        <time>2014-08-03T10:17:27.000Z</time>
      </trkpt>
      <trkpt lat="48.68425" lon="1.75577">
        <ele>154.60000610352</ele>
        <time>2014-08-03T10:17:31.000Z</time>
      </trkpt>
      <trkpt lat="48.68435" lon="1.75573">
        <ele>155</ele>
        <time>2014-08-03T10:17:38.000Z</time>
      </trkpt>
      <trkpt lat="48.68443" lon="1.75569">
        <ele>155.19999694824</ele>
        <time>2014-08-03T10:17:44.000Z</time>
      </trkpt>
      <trkpt lat="48.68451" lon="1.75566">
        <ele>155.39999389648</ele>
        <time>2014-08-03T10:17:50.000Z</time>
      </trkpt>
      <trkpt lat="48.68454" lon="1.75565">
        <ele>155.39999389648</ele>
        <time>2014-08-03T10:17:52.000Z</time>
      </trkpt>
      <trkpt lat="48.6846" lon="1.75561">
        <ele>155.60000610352</ele>
        <time>2014-08-03T10:17:58.000Z</time>
      </trkpt>
      <trkpt lat="48.68468" lon="1.75558">
        <ele>156</ele>
        <time>2014-08-03T10:18:05.000Z</time>
      </trkpt>
      <trkpt lat="48.6847" lon="1.75557">
        <ele>156</ele>
        <time>2014-08-03T10:18:07.000Z</time>
      </trkpt>
      <trkpt lat="48.68479" lon="1.75552">
        <ele>156.39999389648</ele>
        <time>2014-08-03T10:18:14.000Z</time>
      </trkpt>
      <trkpt lat="48.68489" lon="1.75546">
        <ele>156.80000305176</ele>
        <time>2014-08-03T10:18:21.000Z</time>
      </trkpt>
      <trkpt lat="48.68497" lon="1.75541">
        <ele>157</ele>
        <time>2014-08-03T10:18:28.000Z</time>
      </trkpt>
      <trkpt lat="48.68506" lon="1.75543">
        <ele>156.60000610352</ele>
        <time>2014-08-03T10:18:34.000Z</time>
      </trkpt>
      <trkpt lat="48.68511" lon="1.75553">
        <ele>156</ele>
        <time>2014-08-03T10:18:40.000Z</time>
      </trkpt>
      <trkpt lat="48.68512" lon="1.75559">
        <ele>155.80000305176</ele>
        <time>2014-08-03T10:18:43.000Z</time>
      </trkpt>
      <trkpt lat="48.68515" lon="1.75581">
        <ele>155</ele>
        <time>2014-08-03T10:18:54.000Z</time>
      </trkpt>
      <trkpt lat="48.68519" lon="1.75596">
        <ele>155</ele>
        <time>2014-08-03T10:19:02.000Z</time>
      </trkpt>
      <trkpt lat="48.6852" lon="1.75608">
        <ele>155</ele>
        <time>2014-08-03T10:19:08.000Z</time>
      </trkpt>
      <trkpt lat="48.68522" lon="1.75621">
        <ele>155</ele>
        <time>2014-08-03T10:19:14.000Z</time>
      </trkpt>
      <trkpt lat="48.68523" lon="1.75623">
        <ele>155.19999694824</ele>
        <time>2014-08-03T10:19:15.000Z</time>
      </trkpt>
      <trkpt lat="48.68524" lon="1.75638">
        <ele>155.19999694824</ele>
        <time>2014-08-03T10:19:23.000Z</time>
      </trkpt>
      <trkpt lat="48.68526" lon="1.75657">
        <ele>155.19999694824</ele>
        <time>2014-08-03T10:19:31.000Z</time>
      </trkpt>
      <trkpt lat="48.68528" lon="1.75672">
        <ele>154.80000305176</ele>
        <time>2014-08-03T10:19:38.000Z</time>
      </trkpt>
      <trkpt lat="48.68528" lon="1.75682">
        <ele>154.60000610352</ele>
        <time>2014-08-03T10:19:44.000Z</time>
      </trkpt>
      <trkpt lat="48.68531" lon="1.75687">
        <ele>154.60000610352</ele>
        <time>2014-08-03T10:19:50.000Z</time>
      </trkpt>
      <trkpt lat="48.68533" lon="1.75703">
        <ele>154.19999694824</ele>
        <time>2014-08-03T10:19:58.000Z</time>
      </trkpt>
      <trkpt lat="48.68533" lon="1.75717">
        <ele>154</ele>
        <time>2014-08-03T10:20:05.000Z</time>
      </trkpt>
      <trkpt lat="48.68534" lon="1.75729">
        <ele>153.80000305176</ele>
        <time>2014-08-03T10:20:10.000Z</time>
      </trkpt>
      <trkpt lat="48.68535" lon="1.75739">
        <ele>153.60000610352</ele>
        <time>2014-08-03T10:20:14.000Z</time>
      </trkpt>
      <trkpt lat="48.68537" lon="1.75759">
        <ele>153.19999694824</ele>
        <time>2014-08-03T10:20:23.000Z</time>
      </trkpt>
      <trkpt lat="48.6854" lon="1.75782">
        <ele>153</ele>
        <time>2014-08-03T10:20:33.000Z</time>
      </trkpt>
      <trkpt lat="48.68541" lon="1.75793">
        <ele>152.80000305176</ele>
        <time>2014-08-03T10:20:38.000Z</time>
      </trkpt>
      <trkpt lat="48.68545" lon="1.75807">
        <ele>152.80000305176</ele>
        <time>2014-08-03T10:20:46.000Z</time>
      </trkpt>
      <trkpt lat="48.68547" lon="1.75823">
        <ele>152.60000610352</ele>
        <time>2014-08-03T10:20:55.000Z</time>
      </trkpt>
      <trkpt lat="48.6855" lon="1.75834">
        <ele>152.60000610352</ele>
        <time>2014-08-03T10:21:02.000Z</time>
      </trkpt>
      <trkpt lat="48.6855" lon="1.75848">
        <ele>152.39999389648</ele>
        <time>2014-08-03T10:21:09.000Z</time>
      </trkpt>
      <trkpt lat="48.68553" lon="1.75865">
        <ele>152</ele>
        <time>2014-08-03T10:21:18.000Z</time>
      </trkpt>
      <trkpt lat="48.68556" lon="1.75881">
        <ele>151.60000610352</ele>
        <time>2014-08-03T10:21:26.000Z</time>
      </trkpt>
      <trkpt lat="48.68558" lon="1.75895">
        <ele>151.19999694824</ele>
        <time>2014-08-03T10:21:34.000Z</time>
      </trkpt>
      <trkpt lat="48.6856" lon="1.75909">
        <ele>151</ele>
        <time>2014-08-03T10:21:41.000Z</time>
      </trkpt>
      <trkpt lat="48.68562" lon="1.75928">
        <ele>151</ele>
        <time>2014-08-03T10:21:51.000Z</time>
      </trkpt>
      <trkpt lat="48.68565" lon="1.75944">
        <ele>151.19999694824</ele>
        <time>2014-08-03T10:22:00.000Z</time>
      </trkpt>
      <trkpt lat="48.68567" lon="1.75962">
        <ele>151.39999389648</ele>
        <time>2014-08-03T10:22:09.000Z</time>
      </trkpt>
      <trkpt lat="48.68569" lon="1.75975">
        <ele>151.60000610352</ele>
        <time>2014-08-03T10:22:16.000Z</time>
      </trkpt>
      <trkpt lat="48.6857" lon="1.75995">
        <ele>151.80000305176</ele>
        <time>2014-08-03T10:22:26.000Z</time>
      </trkpt>
      <trkpt lat="48.68572" lon="1.76">
        <ele>151.80000305176</ele>
        <time>2014-08-03T10:22:29.000Z</time>
      </trkpt>
      <trkpt lat="48.68574" lon="1.76011">
        <ele>152</ele>
        <time>2014-08-03T10:22:36.000Z</time>
      </trkpt>
      <trkpt lat="48.68572" lon="1.76011">
        <ele>151.80000305176</ele>
        <time>2014-08-03T10:22:41.000Z</time>
      </trkpt>
      <trkpt lat="48.68573" lon="1.76009">
        <ele>152</ele>
        <time>2014-08-03T10:22:42.000Z</time>
      </trkpt>
      <trkpt lat="48.68577" lon="1.76004">
        <ele>152</ele>
        <time>2014-08-03T10:22:46.000Z</time>
      </trkpt>
      <trkpt lat="48.68583" lon="1.76004">
        <ele>152.19999694824</ele>
        <time>2014-08-03T10:22:50.000Z</time>
      </trkpt>
      <trkpt lat="48.68591" lon="1.76008">
        <ele>152.60000610352</ele>
        <time>2014-08-03T10:22:58.000Z</time>
      </trkpt>
      <trkpt lat="48.68595" lon="1.76009">
        <ele>152.80000305176</ele>
        <time>2014-08-03T10:23:02.000Z</time>
      </trkpt>
      <trkpt lat="48.686" lon="1.76013">
        <ele>152.80000305176</ele>
        <time>2014-08-03T10:23:07.000Z</time>
      </trkpt>
      <trkpt lat="48.68607" lon="1.76016">
        <ele>153.19999694824</ele>
        <time>2014-08-03T10:23:14.000Z</time>
      </trkpt>
      <trkpt lat="48.68615" lon="1.76019">
        <ele>153.80000305176</ele>
        <time>2014-08-03T10:23:19.000Z</time>
      </trkpt>
      <trkpt lat="48.68623" lon="1.76019">
        <ele>154.19999694824</ele>
        <time>2014-08-03T10:23:23.000Z</time>
      </trkpt>
      <trkpt lat="48.68635" lon="1.76022">
        <ele>155</ele>
        <time>2014-08-03T10:23:30.000Z</time>
      </trkpt>
      <trkpt lat="48.68642" lon="1.76025">
        <ele>155.39999389648</ele>
        <time>2014-08-03T10:23:33.000Z</time>
      </trkpt>
      <trkpt lat="48.68656" lon="1.76032">
        <ele>156.39999389648</ele>
        <time>2014-08-03T10:23:39.000Z</time>
      </trkpt>
      <trkpt lat="48.68673" lon="1.76036">
        <ele>157.60000610352</ele>
        <time>2014-08-03T10:23:44.000Z</time>
      </trkpt>
      <trkpt lat="48.68693" lon="1.76042">
        <ele>159.19999694824</ele>
        <time>2014-08-03T10:23:49.000Z</time>
      </trkpt>
      <trkpt lat="48.68709" lon="1.76047">
        <ele>160.19999694824</ele>
        <time>2014-08-03T10:23:52.000Z</time>
      </trkpt>
      <trkpt lat="48.68729" lon="1.76056">
        <ele>161.39999389648</ele>
        <time>2014-08-03T10:23:56.000Z</time>
      </trkpt>
      <trkpt lat="48.6877" lon="1.76071">
        <ele>164</ele>
        <time>2014-08-03T10:24:04.000Z</time>
      </trkpt>
      <trkpt lat="48.68783" lon="1.76076">
        <ele>164.60000610352</ele>
        <time>2014-08-03T10:24:07.000Z</time>
      </trkpt>
      <trkpt lat="48.68805" lon="1.76084">
        <ele>165.80000305176</ele>
        <time>2014-08-03T10:24:12.000Z</time>
      </trkpt>
      <trkpt lat="48.68823" lon="1.76091">
        <ele>166.60000610352</ele>
        <time>2014-08-03T10:24:16.000Z</time>
      </trkpt>
      <trkpt lat="48.68855" lon="1.76102">
        <ele>168.19999694824</ele>
        <time>2014-08-03T10:24:23.000Z</time>
      </trkpt>
      <trkpt lat="48.68878" lon="1.7611">
        <ele>170.19999694824</ele>
        <time>2014-08-03T10:24:29.000Z</time>
      </trkpt>
      <trkpt lat="48.68893" lon="1.76114">
        <ele>171.39999389648</ele>
        <time>2014-08-03T10:24:34.000Z</time>
      </trkpt>
      <trkpt lat="48.68909" lon="1.76117">
        <ele>172.60000610352</ele>
        <time>2014-08-03T10:24:40.000Z</time>
      </trkpt>
      <trkpt lat="48.68914" lon="1.76117">
        <ele>172.80000305176</ele>
        <time>2014-08-03T10:24:43.000Z</time>
      </trkpt>
      <trkpt lat="48.6892" lon="1.76114">
        <ele>173.19999694824</ele>
        <time>2014-08-03T10:24:47.000Z</time>
      </trkpt>
      <trkpt lat="48.68931" lon="1.76114">
        <ele>173.80000305176</ele>
        <time>2014-08-03T10:24:54.000Z</time>
      </trkpt>
      <trkpt lat="48.68934" lon="1.76118">
        <ele>174</ele>
        <time>2014-08-03T10:24:57.000Z</time>
      </trkpt>
      <trkpt lat="48.68945" lon="1.76119">
        <ele>175</ele>
        <time>2014-08-03T10:25:06.000Z</time>
      </trkpt>
      <trkpt lat="48.68948" lon="1.76121">
        <ele>175.39999389648</ele>
        <time>2014-08-03T10:25:09.000Z</time>
      </trkpt>
      <trkpt lat="48.68953" lon="1.76127">
        <ele>176</ele>
        <time>2014-08-03T10:25:15.000Z</time>
      </trkpt>
      <trkpt lat="48.68963" lon="1.76136">
        <ele>177.39999389648</ele>
        <time>2014-08-03T10:25:24.000Z</time>
      </trkpt>
      <trkpt lat="48.68963" lon="1.76137">
        <ele>177.39999389648</ele>
        <time>2014-08-03T10:25:25.000Z</time>
      </trkpt>
      <trkpt lat="48.68969" lon="1.76145">
        <ele>178.39999389648</ele>
        <time>2014-08-03T10:25:32.000Z</time>
      </trkpt>
      <trkpt lat="48.68972" lon="1.76146">
        <ele>178.60000610352</ele>
        <time>2014-08-03T10:25:35.000Z</time>
      </trkpt>
      <trkpt lat="48.68978" lon="1.76153">
        <ele>179.39999389648</ele>
        <time>2014-08-03T10:25:42.000Z</time>
      </trkpt>
      <trkpt lat="48.68983" lon="1.76161">
        <ele>179.80000305176</ele>
        <time>2014-08-03T10:25:53.000Z</time>
      </trkpt>
      <trkpt lat="48.68987" lon="1.7616">
        <ele>180.19999694824</ele>
        <time>2014-08-03T10:26:02.000Z</time>
      </trkpt>
      <trkpt lat="48.68989" lon="1.76159">
        <ele>180.39999389648</ele>
        <time>2014-08-03T10:26:07.000Z</time>
      </trkpt>
      <trkpt lat="48.68992" lon="1.76158">
        <ele>180.60000610352</ele>
        <time>2014-08-03T10:26:09.000Z</time>
      </trkpt>
      <trkpt lat="48.68999" lon="1.76161">
        <ele>181.19999694824</ele>
        <time>2014-08-03T10:26:17.000Z</time>
      </trkpt>
      <trkpt lat="48.69006" lon="1.76163">
        <ele>181.80000305176</ele>
        <time>2014-08-03T10:26:23.000Z</time>
      </trkpt>
      <trkpt lat="48.69012" lon="1.76165">
        <ele>182.39999389648</ele>
        <time>2014-08-03T10:26:28.000Z</time>
      </trkpt>
      <trkpt lat="48.6902" lon="1.76172">
        <ele>183</ele>
        <time>2014-08-03T10:26:36.000Z</time>
      </trkpt>
      <trkpt lat="48.69031" lon="1.76179">
        <ele>183.19999694824</ele>
        <time>2014-08-03T10:26:44.000Z</time>
      </trkpt>
      <trkpt lat="48.69035" lon="1.7618">
        <ele>183.19999694824</ele>
        <time>2014-08-03T10:26:47.000Z</time>
      </trkpt>
      <trkpt lat="48.69042" lon="1.76184">
        <ele>183.19999694824</ele>
        <time>2014-08-03T10:26:53.000Z</time>
      </trkpt>
      <trkpt lat="48.69044" lon="1.76187">
        <ele>183.19999694824</ele>
        <time>2014-08-03T10:26:59.000Z</time>
      </trkpt>
      <trkpt lat="48.69048" lon="1.76191">
        <ele>183.39999389648</ele>
        <time>2014-08-03T10:27:02.000Z</time>
      </trkpt>
      <trkpt lat="48.69057" lon="1.76197">
        <ele>183.39999389648</ele>
        <time>2014-08-03T10:27:08.000Z</time>
      </trkpt>
      <trkpt lat="48.6906" lon="1.762">
        <ele>183.39999389648</ele>
        <time>2014-08-03T10:27:13.000Z</time>
      </trkpt>
      <trkpt lat="48.69067" lon="1.76201">
        <ele>183.60000610352</ele>
        <time>2014-08-03T10:27:20.000Z</time>
      </trkpt>
      <trkpt lat="48.69082" lon="1.76204">
        <ele>183.39999389648</ele>
        <time>2014-08-03T10:27:27.000Z</time>
      </trkpt>
      <trkpt lat="48.69095" lon="1.76212">
        <ele>183.39999389648</ele>
        <time>2014-08-03T10:27:33.000Z</time>
      </trkpt>
      <trkpt lat="48.69098" lon="1.76216">
        <ele>183.60000610352</ele>
        <time>2014-08-03T10:27:36.000Z</time>
      </trkpt>
      <trkpt lat="48.69106" lon="1.76223">
        <ele>183.60000610352</ele>
        <time>2014-08-03T10:27:41.000Z</time>
      </trkpt>
      <trkpt lat="48.69109" lon="1.76224">
        <ele>183.60000610352</ele>
        <time>2014-08-03T10:27:43.000Z</time>
      </trkpt>
      <trkpt lat="48.69123" lon="1.76231">
        <ele>183.60000610352</ele>
        <time>2014-08-03T10:27:52.000Z</time>
      </trkpt>
      <trkpt lat="48.69127" lon="1.76234">
        <ele>183.60000610352</ele>
        <time>2014-08-03T10:27:55.000Z</time>
      </trkpt>
      <trkpt lat="48.6913" lon="1.76238">
        <ele>183.60000610352</ele>
        <time>2014-08-03T10:28:00.000Z</time>
      </trkpt>
      <trkpt lat="48.69131" lon="1.76239">
        <ele>183.60000610352</ele>
        <time>2014-08-03T10:28:03.000Z</time>
      </trkpt>
      <trkpt lat="48.69129" lon="1.76242">
        <ele>183.60000610352</ele>
        <time>2014-08-03T10:28:08.000Z</time>
      </trkpt>
      <trkpt lat="48.69128" lon="1.76243">
        <ele>183.60000610352</ele>
        <time>2014-08-03T10:28:09.000Z</time>
      </trkpt>
      <trkpt lat="48.69128" lon="1.76244">
        <ele>183.80000305176</ele>
        <time>2014-08-03T10:28:16.000Z</time>
      </trkpt>
      <trkpt lat="48.69149" lon="1.76244">
        <ele>183.39999389648</ele>
        <time>2014-08-03T10:29:11.000Z</time>
      </trkpt>
      <trkpt lat="48.69153" lon="1.76247">
        <ele>183.39999389648</ele>
        <time>2014-08-03T10:29:14.000Z</time>
      </trkpt>
      <trkpt lat="48.69155" lon="1.76248">
        <ele>183.39999389648</ele>
        <time>2014-08-03T10:29:16.000Z</time>
      </trkpt>
      <trkpt lat="48.69161" lon="1.76252">
        <ele>183.39999389648</ele>
        <time>2014-08-03T10:29:21.000Z</time>
      </trkpt>
      <trkpt lat="48.69166" lon="1.76254">
        <ele>183.19999694824</ele>
        <time>2014-08-03T10:29:25.000Z</time>
      </trkpt>
      <trkpt lat="48.69171" lon="1.76258">
        <ele>183.19999694824</ele>
        <time>2014-08-03T10:29:29.000Z</time>
      </trkpt>
      <trkpt lat="48.69173" lon="1.76261">
        <ele>183.19999694824</ele>
        <time>2014-08-03T10:29:31.000Z</time>
      </trkpt>
      <trkpt lat="48.69181" lon="1.76268">
        <ele>183</ele>
        <time>2014-08-03T10:29:37.000Z</time>
      </trkpt>
      <trkpt lat="48.69186" lon="1.76271">
        <ele>183</ele>
        <time>2014-08-03T10:29:42.000Z</time>
      </trkpt>
      <trkpt lat="48.69193" lon="1.76265">
        <ele>182.80000305176</ele>
        <time>2014-08-03T10:29:48.000Z</time>
      </trkpt>
      <trkpt lat="48.69194" lon="1.76262">
        <ele>182.80000305176</ele>
        <time>2014-08-03T10:29:50.000Z</time>
      </trkpt>
      <trkpt lat="48.69197" lon="1.76257">
        <ele>182.80000305176</ele>
        <time>2014-08-03T10:29:53.000Z</time>
      </trkpt>
      <trkpt lat="48.692" lon="1.76251">
        <ele>182.60000610352</ele>
        <time>2014-08-03T10:29:57.000Z</time>
      </trkpt>
      <trkpt lat="48.69205" lon="1.76234">
        <ele>182.60000610352</ele>
        <time>2014-08-03T10:30:06.000Z</time>
      </trkpt>
      <trkpt lat="48.69206" lon="1.76226">
        <ele>182.39999389648</ele>
        <time>2014-08-03T10:30:11.000Z</time>
      </trkpt>
      <trkpt lat="48.69212" lon="1.76209">
        <ele>181.60000610352</ele>
        <time>2014-08-03T10:30:21.000Z</time>
      </trkpt>
      <trkpt lat="48.69214" lon="1.76196">
        <ele>181.19999694824</ele>
        <time>2014-08-03T10:30:27.000Z</time>
      </trkpt>
      <trkpt lat="48.69217" lon="1.76184">
        <ele>180.80000305176</ele>
        <time>2014-08-03T10:30:33.000Z</time>
      </trkpt>
      <trkpt lat="48.69217" lon="1.76182">
        <ele>180.80000305176</ele>
        <time>2014-08-03T10:30:34.000Z</time>
      </trkpt>
      <trkpt lat="48.69219" lon="1.76172">
        <ele>180.80000305176</ele>
        <time>2014-08-03T10:30:40.000Z</time>
      </trkpt>
      <trkpt lat="48.6922" lon="1.76164">
        <ele>180.80000305176</ele>
        <time>2014-08-03T10:30:44.000Z</time>
      </trkpt>
      <trkpt lat="48.69224" lon="1.7615">
        <ele>180.60000610352</ele>
        <time>2014-08-03T10:30:53.000Z</time>
      </trkpt>
      <trkpt lat="48.69226" lon="1.76144">
        <ele>180.39999389648</ele>
        <time>2014-08-03T10:30:56.000Z</time>
      </trkpt>
      <trkpt lat="48.69228" lon="1.76136">
        <ele>180.19999694824</ele>
        <time>2014-08-03T10:31:01.000Z</time>
      </trkpt>
      <trkpt lat="48.69229" lon="1.76129">
        <ele>179.80000305176</ele>
        <time>2014-08-03T10:31:05.000Z</time>
      </trkpt>
      <trkpt lat="48.6923" lon="1.76119">
        <ele>179.39999389648</ele>
        <time>2014-08-03T10:31:10.000Z</time>
      </trkpt>
      <trkpt lat="48.69232" lon="1.76106">
        <ele>179</ele>
        <time>2014-08-03T10:31:17.000Z</time>
      </trkpt>
      <trkpt lat="48.69234" lon="1.76095">
        <ele>178.60000610352</ele>
        <time>2014-08-03T10:31:22.000Z</time>
      </trkpt>
      <trkpt lat="48.69235" lon="1.76076">
        <ele>178</ele>
        <time>2014-08-03T10:31:30.000Z</time>
      </trkpt>
      <trkpt lat="48.69234" lon="1.76048">
        <ele>176.80000305176</ele>
        <time>2014-08-03T10:31:37.000Z</time>
      </trkpt>
      <trkpt lat="48.69234" lon="1.76042">
        <ele>176.60000610352</ele>
        <time>2014-08-03T10:31:40.000Z</time>
      </trkpt>
      <trkpt lat="48.69236" lon="1.76036">
        <ele>176.39999389648</ele>
        <time>2014-08-03T10:31:43.000Z</time>
      </trkpt>
      <trkpt lat="48.6924" lon="1.76025">
        <ele>176</ele>
        <time>2014-08-03T10:31:49.000Z</time>
      </trkpt>
      <trkpt lat="48.69241" lon="1.76014">
        <ele>175.19999694824</ele>
        <time>2014-08-03T10:31:54.000Z</time>
      </trkpt>
      <trkpt lat="48.69242" lon="1.76011">
        <ele>175</ele>
        <time>2014-08-03T10:31:55.000Z</time>
      </trkpt>
      <trkpt lat="48.69242" lon="1.75993">
        <ele>174</ele>
        <time>2014-08-03T10:32:02.000Z</time>
      </trkpt>
      <trkpt lat="48.69237" lon="1.75972">
        <ele>172.60000610352</ele>
        <time>2014-08-03T10:32:09.000Z</time>
      </trkpt>
      <trkpt lat="48.69237" lon="1.75961">
        <ele>172</ele>
        <time>2014-08-03T10:32:12.000Z</time>
      </trkpt>
      <trkpt lat="48.69241" lon="1.75943">
        <ele>171</ele>
        <time>2014-08-03T10:32:20.000Z</time>
      </trkpt>
      <trkpt lat="48.69248" lon="1.75923">
        <ele>169.80000305176</ele>
        <time>2014-08-03T10:32:29.000Z</time>
      </trkpt>
      <trkpt lat="48.69249" lon="1.75921">
        <ele>169.80000305176</ele>
        <time>2014-08-03T10:32:30.000Z</time>
      </trkpt>
      <trkpt lat="48.69247" lon="1.75905">
        <ele>168.80000305176</ele>
        <time>2014-08-03T10:32:36.000Z</time>
      </trkpt>
      <trkpt lat="48.69244" lon="1.75885">
        <ele>168</ele>
        <time>2014-08-03T10:32:45.000Z</time>
      </trkpt>
      <trkpt lat="48.69245" lon="1.75881">
        <ele>167.80000305176</ele>
        <time>2014-08-03T10:32:47.000Z</time>
      </trkpt>
      <trkpt lat="48.69249" lon="1.75875">
        <ele>167.39999389648</ele>
        <time>2014-08-03T10:32:51.000Z</time>
      </trkpt>
      <trkpt lat="48.69256" lon="1.75862">
        <ele>166.60000610352</ele>
        <time>2014-08-03T10:32:59.000Z</time>
      </trkpt>
      <trkpt lat="48.69261" lon="1.75852">
        <ele>166</ele>
        <time>2014-08-03T10:33:05.000Z</time>
      </trkpt>
      <trkpt lat="48.6927" lon="1.75844">
        <ele>165.39999389648</ele>
        <time>2014-08-03T10:33:12.000Z</time>
      </trkpt>
      <trkpt lat="48.69277" lon="1.7584">
        <ele>165</ele>
        <time>2014-08-03T10:33:17.000Z</time>
      </trkpt>
      <trkpt lat="48.69284" lon="1.75833">
        <ele>164.60000610352</ele>
        <time>2014-08-03T10:33:23.000Z</time>
      </trkpt>
      <trkpt lat="48.69292" lon="1.75826">
        <ele>164.39999389648</ele>
        <time>2014-08-03T10:33:29.000Z</time>
      </trkpt>
      <trkpt lat="48.69299" lon="1.75825">
        <ele>164.39999389648</ele>
        <time>2014-08-03T10:33:35.000Z</time>
      </trkpt>
      <trkpt lat="48.69306" lon="1.75825">
        <ele>164.60000610352</ele>
        <time>2014-08-03T10:33:40.000Z</time>
      </trkpt>
      <trkpt lat="48.69315" lon="1.75826">
        <ele>164.80000305176</ele>
        <time>2014-08-03T10:33:46.000Z</time>
      </trkpt>
      <trkpt lat="48.6933" lon="1.75826">
        <ele>164.80000305176</ele>
        <time>2014-08-03T10:33:54.000Z</time>
      </trkpt>
      <trkpt lat="48.69345" lon="1.75827">
        <ele>165.19999694824</ele>
        <time>2014-08-03T10:34:02.000Z</time>
      </trkpt>
      <trkpt lat="48.69353" lon="1.7583">
        <ele>165.39999389648</ele>
        <time>2014-08-03T10:34:07.000Z</time>
      </trkpt>
      <trkpt lat="48.69358" lon="1.75831">
        <ele>165.39999389648</ele>
        <time>2014-08-03T10:34:11.000Z</time>
      </trkpt>
      <trkpt lat="48.69366" lon="1.75828">
        <ele>165.39999389648</ele>
        <time>2014-08-03T10:34:16.000Z</time>
      </trkpt>
      <trkpt lat="48.69377" lon="1.75832">
        <ele>165.80000305176</ele>
        <time>2014-08-03T10:34:24.000Z</time>
      </trkpt>
      <trkpt lat="48.69384" lon="1.75836">
        <ele>166</ele>
        <time>2014-08-03T10:34:30.000Z</time>
      </trkpt>
      <trkpt lat="48.69396" lon="1.75839">
        <ele>166.39999389648</ele>
        <time>2014-08-03T10:34:37.000Z</time>
      </trkpt>
      <trkpt lat="48.69404" lon="1.75842">
        <ele>166.80000305176</ele>
        <time>2014-08-03T10:34:43.000Z</time>
      </trkpt>
      <trkpt lat="48.69413" lon="1.75848">
        <ele>167</ele>
        <time>2014-08-03T10:34:50.000Z</time>
      </trkpt>
      <trkpt lat="48.6942" lon="1.75851">
        <ele>167.39999389648</ele>
        <time>2014-08-03T10:34:55.000Z</time>
      </trkpt>
      <trkpt lat="48.69428" lon="1.75854">
        <ele>167.60000610352</ele>
        <time>2014-08-03T10:35:00.000Z</time>
      </trkpt>
      <trkpt lat="48.69438" lon="1.75856">
        <ele>167.80000305176</ele>
        <time>2014-08-03T10:35:07.000Z</time>
      </trkpt>
      <trkpt lat="48.69449" lon="1.75856">
        <ele>168.19999694824</ele>
        <time>2014-08-03T10:35:14.000Z</time>
      </trkpt>
      <trkpt lat="48.69457" lon="1.75856">
        <ele>168.39999389648</ele>
        <time>2014-08-03T10:35:20.000Z</time>
      </trkpt>
      <trkpt lat="48.69464" lon="1.75855">
        <ele>168.39999389648</ele>
        <time>2014-08-03T10:35:25.000Z</time>
      </trkpt>
      <trkpt lat="48.69466" lon="1.75855">
        <ele>168.60000610352</ele>
        <time>2014-08-03T10:35:26.000Z</time>
      </trkpt>
      <trkpt lat="48.69473" lon="1.75854">
        <ele>168.39999389648</ele>
        <time>2014-08-03T10:35:31.000Z</time>
      </trkpt>
      <trkpt lat="48.69485" lon="1.75853">
        <ele>168</ele>
        <time>2014-08-03T10:35:39.000Z</time>
      </trkpt>
      <trkpt lat="48.69491" lon="1.75852">
        <ele>167.60000610352</ele>
        <time>2014-08-03T10:35:44.000Z</time>
      </trkpt>
      <trkpt lat="48.69502" lon="1.75852">
        <ele>167.19999694824</ele>
        <time>2014-08-03T10:35:52.000Z</time>
      </trkpt>
      <trkpt lat="48.69506" lon="1.75853">
        <ele>167.19999694824</ele>
        <time>2014-08-03T10:35:55.000Z</time>
      </trkpt>
      <trkpt lat="48.69517" lon="1.75854">
        <ele>166.80000305176</ele>
        <time>2014-08-03T10:36:02.000Z</time>
      </trkpt>
      <trkpt lat="48.69528" lon="1.75855">
        <ele>166.60000610352</ele>
        <time>2014-08-03T10:36:10.000Z</time>
      </trkpt>
      <trkpt lat="48.69539" lon="1.75855">
        <ele>166.39999389648</ele>
        <time>2014-08-03T10:36:18.000Z</time>
      </trkpt>
      <trkpt lat="48.69548" lon="1.75855">
        <ele>166.19999694824</ele>
        <time>2014-08-03T10:36:24.000Z</time>
      </trkpt>
      <trkpt lat="48.69558" lon="1.75854">
        <ele>166</ele>
        <time>2014-08-03T10:36:31.000Z</time>
      </trkpt>
      <trkpt lat="48.69567" lon="1.75854">
        <ele>166.39999389648</ele>
        <time>2014-08-03T10:36:38.000Z</time>
      </trkpt>
      <trkpt lat="48.69574" lon="1.75854">
        <ele>166.39999389648</ele>
        <time>2014-08-03T10:36:43.000Z</time>
      </trkpt>
      <trkpt lat="48.69581" lon="1.75856">
        <ele>166.80000305176</ele>
        <time>2014-08-03T10:36:49.000Z</time>
      </trkpt>
      <trkpt lat="48.69584" lon="1.75857">
        <ele>166.80000305176</ele>
        <time>2014-08-03T10:36:51.000Z</time>
      </trkpt>
      <trkpt lat="48.69589" lon="1.75857">
        <ele>167</ele>
        <time>2014-08-03T10:36:55.000Z</time>
      </trkpt>
      <trkpt lat="48.69601" lon="1.75862">
        <ele>167.39999389648</ele>
        <time>2014-08-03T10:37:02.000Z</time>
      </trkpt>
      <trkpt lat="48.69606" lon="1.75864">
        <ele>167.39999389648</ele>
        <time>2014-08-03T10:37:06.000Z</time>
      </trkpt>
      <trkpt lat="48.69617" lon="1.75869">
        <ele>167.39999389648</ele>
        <time>2014-08-03T10:37:14.000Z</time>
      </trkpt>
      <trkpt lat="48.69628" lon="1.75874">
        <ele>167.39999389648</ele>
        <time>2014-08-03T10:37:21.000Z</time>
      </trkpt>
      <trkpt lat="48.69635" lon="1.75878">
        <ele>167.19999694824</ele>
        <time>2014-08-03T10:37:27.000Z</time>
      </trkpt>
      <trkpt lat="48.69645" lon="1.7588">
        <ele>167.19999694824</ele>
        <time>2014-08-03T10:37:35.000Z</time>
      </trkpt>
      <trkpt lat="48.69649" lon="1.75884">
        <ele>167.19999694824</ele>
        <time>2014-08-03T10:37:38.000Z</time>
      </trkpt>
      <trkpt lat="48.69652" lon="1.75892">
        <ele>167.39999389648</ele>
        <time>2014-08-03T10:37:44.000Z</time>
      </trkpt>
      <trkpt lat="48.69655" lon="1.75892">
        <ele>167.39999389648</ele>
        <time>2014-08-03T10:37:46.000Z</time>
      </trkpt>
      <trkpt lat="48.69666" lon="1.75898">
        <ele>167.19999694824</ele>
        <time>2014-08-03T10:37:54.000Z</time>
      </trkpt>
      <trkpt lat="48.6967" lon="1.759">
        <ele>167.19999694824</ele>
        <time>2014-08-03T10:37:57.000Z</time>
      </trkpt>
      <trkpt lat="48.69675" lon="1.75903">
        <ele>167.19999694824</ele>
        <time>2014-08-03T10:38:01.000Z</time>
      </trkpt>
      <trkpt lat="48.69687" lon="1.7591">
        <ele>167.39999389648</ele>
        <time>2014-08-03T10:38:09.000Z</time>
      </trkpt>
      <trkpt lat="48.69696" lon="1.75916">
        <ele>167.60000610352</ele>
        <time>2014-08-03T10:38:16.000Z</time>
      </trkpt>
      <trkpt lat="48.69702" lon="1.75918">
        <ele>167.39999389648</ele>
        <time>2014-08-03T10:38:20.000Z</time>
      </trkpt>
      <trkpt lat="48.69707" lon="1.75922">
        <ele>167.60000610352</ele>
        <time>2014-08-03T10:38:24.000Z</time>
      </trkpt>
      <trkpt lat="48.69716" lon="1.75927">
        <ele>167.80000305176</ele>
        <time>2014-08-03T10:38:30.000Z</time>
      </trkpt>
      <trkpt lat="48.69721" lon="1.75931">
        <ele>167.80000305176</ele>
        <time>2014-08-03T10:38:34.000Z</time>
      </trkpt>
      <trkpt lat="48.69731" lon="1.75936">
        <ele>168</ele>
        <time>2014-08-03T10:38:41.000Z</time>
      </trkpt>
      <trkpt lat="48.69732" lon="1.75936">
        <ele>168</ele>
        <time>2014-08-03T10:38:42.000Z</time>
      </trkpt>
      <trkpt lat="48.69742" lon="1.75936">
        <ele>167.80000305176</ele>
        <time>2014-08-03T10:38:50.000Z</time>
      </trkpt>
      <trkpt lat="48.69752" lon="1.75939">
        <ele>167.80000305176</ele>
        <time>2014-08-03T10:38:57.000Z</time>
      </trkpt>
      <trkpt lat="48.69753" lon="1.7594">
        <ele>167.80000305176</ele>
        <time>2014-08-03T10:38:58.000Z</time>
      </trkpt>
      <trkpt lat="48.6976" lon="1.75946">
        <ele>168.19999694824</ele>
        <time>2014-08-03T10:39:04.000Z</time>
      </trkpt>
      <trkpt lat="48.69763" lon="1.75949">
        <ele>168.19999694824</ele>
        <time>2014-08-03T10:39:06.000Z</time>
      </trkpt>
      <trkpt lat="48.69766" lon="1.75951">
        <ele>168.19999694824</ele>
        <time>2014-08-03T10:39:08.000Z</time>
      </trkpt>
      <trkpt lat="48.69774" lon="1.75955">
        <ele>168.19999694824</ele>
        <time>2014-08-03T10:39:14.000Z</time>
      </trkpt>
      <trkpt lat="48.69782" lon="1.75959">
        <ele>168.19999694824</ele>
        <time>2014-08-03T10:39:19.000Z</time>
      </trkpt>
      <trkpt lat="48.69785" lon="1.7596">
        <ele>168.19999694824</ele>
        <time>2014-08-03T10:39:21.000Z</time>
      </trkpt>
      <trkpt lat="48.69792" lon="1.75968">
        <ele>168.19999694824</ele>
        <time>2014-08-03T10:39:28.000Z</time>
      </trkpt>
      <trkpt lat="48.69803" lon="1.75973">
        <ele>168</ele>
        <time>2014-08-03T10:39:36.000Z</time>
      </trkpt>
      <trkpt lat="48.69804" lon="1.75973">
        <ele>168</ele>
        <time>2014-08-03T10:39:37.000Z</time>
      </trkpt>
      <trkpt lat="48.69811" lon="1.75976">
        <ele>168</ele>
        <time>2014-08-03T10:39:42.000Z</time>
      </trkpt>
      <trkpt lat="48.69823" lon="1.75978">
        <ele>167.60000610352</ele>
        <time>2014-08-03T10:39:50.000Z</time>
      </trkpt>
      <trkpt lat="48.69832" lon="1.75986">
        <ele>167.80000305176</ele>
        <time>2014-08-03T10:39:58.000Z</time>
      </trkpt>
      <trkpt lat="48.69837" lon="1.75993">
        <ele>167.80000305176</ele>
        <time>2014-08-03T10:40:03.000Z</time>
      </trkpt>
      <trkpt lat="48.69844" lon="1.75999">
        <ele>168</ele>
        <time>2014-08-03T10:40:08.000Z</time>
      </trkpt>
      <trkpt lat="48.69857" lon="1.76009">
        <ele>168</ele>
        <time>2014-08-03T10:40:16.000Z</time>
      </trkpt>
      <trkpt lat="48.6986" lon="1.7601">
        <ele>167.80000305176</ele>
        <time>2014-08-03T10:40:18.000Z</time>
      </trkpt>
      <trkpt lat="48.69869" lon="1.76017">
        <ele>167.60000610352</ele>
        <time>2014-08-03T10:40:25.000Z</time>
      </trkpt>
      <trkpt lat="48.69879" lon="1.76021">
        <ele>167.19999694824</ele>
        <time>2014-08-03T10:40:31.000Z</time>
      </trkpt>
      <trkpt lat="48.69886" lon="1.7603">
        <ele>167.19999694824</ele>
        <time>2014-08-03T10:40:37.000Z</time>
      </trkpt>
      <trkpt lat="48.69893" lon="1.76037">
        <ele>167.19999694824</ele>
        <time>2014-08-03T10:40:44.000Z</time>
      </trkpt>
      <trkpt lat="48.69899" lon="1.76044">
        <ele>167.19999694824</ele>
        <time>2014-08-03T10:40:49.000Z</time>
      </trkpt>
      <trkpt lat="48.69901" lon="1.76046">
        <ele>167</ele>
        <time>2014-08-03T10:40:50.000Z</time>
      </trkpt>
      <trkpt lat="48.69909" lon="1.76059">
        <ele>167.39999389648</ele>
        <time>2014-08-03T10:40:57.000Z</time>
      </trkpt>
      <trkpt lat="48.69918" lon="1.76072">
        <ele>167.39999389648</ele>
        <time>2014-08-03T10:41:05.000Z</time>
      </trkpt>
      <trkpt lat="48.69927" lon="1.76077">
        <ele>167</ele>
        <time>2014-08-03T10:41:11.000Z</time>
      </trkpt>
      <trkpt lat="48.69935" lon="1.76087">
        <ele>166.80000305176</ele>
        <time>2014-08-03T10:41:18.000Z</time>
      </trkpt>
      <trkpt lat="48.69937" lon="1.76089">
        <ele>166.80000305176</ele>
        <time>2014-08-03T10:41:20.000Z</time>
      </trkpt>
      <trkpt lat="48.6994" lon="1.76093">
        <ele>167</ele>
        <time>2014-08-03T10:41:24.000Z</time>
      </trkpt>
      <trkpt lat="48.69948" lon="1.76104">
        <ele>167</ele>
        <time>2014-08-03T10:41:32.000Z</time>
      </trkpt>
      <trkpt lat="48.69949" lon="1.76105">
        <ele>167</ele>
        <time>2014-08-03T10:41:33.000Z</time>
      </trkpt>
      <trkpt lat="48.69955" lon="1.76112">
        <ele>167</ele>
        <time>2014-08-03T10:41:39.000Z</time>
      </trkpt>
      <trkpt lat="48.69965" lon="1.76118">
        <ele>167</ele>
        <time>2014-08-03T10:41:46.000Z</time>
      </trkpt>
      <trkpt lat="48.69966" lon="1.7612">
        <ele>167</ele>
        <time>2014-08-03T10:41:47.000Z</time>
      </trkpt>
      <trkpt lat="48.6997" lon="1.76129">
        <ele>167.19999694824</ele>
        <time>2014-08-03T10:41:51.000Z</time>
      </trkpt>
      <trkpt lat="48.69979" lon="1.76143">
        <ele>167.39999389648</ele>
        <time>2014-08-03T10:41:59.000Z</time>
      </trkpt>
      <trkpt lat="48.69985" lon="1.76155">
        <ele>167.80000305176</ele>
        <time>2014-08-03T10:42:06.000Z</time>
      </trkpt>
      <trkpt lat="48.69986" lon="1.76156">
        <ele>167.60000610352</ele>
        <time>2014-08-03T10:42:07.000Z</time>
      </trkpt>
      <trkpt lat="48.69988" lon="1.76163">
        <ele>167.80000305176</ele>
        <time>2014-08-03T10:42:11.000Z</time>
      </trkpt>
      <trkpt lat="48.69996" lon="1.76172">
        <ele>167.60000610352</ele>
        <time>2014-08-03T10:42:18.000Z</time>
      </trkpt>
      <trkpt lat="48.69997" lon="1.76173">
        <ele>167.60000610352</ele>
        <time>2014-08-03T10:42:19.000Z</time>
      </trkpt>
      <trkpt lat="48.7" lon="1.76177">
        <ele>167.39999389648</ele>
        <time>2014-08-03T10:42:23.000Z</time>
      </trkpt>
      <trkpt lat="48.70007" lon="1.76183">
        <ele>167.39999389648</ele>
        <time>2014-08-03T10:42:30.000Z</time>
      </trkpt>
      <trkpt lat="48.70007" lon="1.76185">
        <ele>167.39999389648</ele>
        <time>2014-08-03T10:42:32.000Z</time>
      </trkpt>
      <trkpt lat="48.70016" lon="1.76191">
        <ele>167</ele>
        <time>2014-08-03T10:42:38.000Z</time>
      </trkpt>
      <trkpt lat="48.70027" lon="1.76185">
        <ele>166.80000305176</ele>
        <time>2014-08-03T10:42:45.000Z</time>
      </trkpt>
      <trkpt lat="48.70028" lon="1.76184">
        <ele>166.80000305176</ele>
        <time>2014-08-03T10:42:46.000Z</time>
      </trkpt>
      <trkpt lat="48.70036" lon="1.76175">
        <ele>166.39999389648</ele>
        <time>2014-08-03T10:42:52.000Z</time>
      </trkpt>
      <trkpt lat="48.70043" lon="1.76167">
        <ele>166.19999694824</ele>
        <time>2014-08-03T10:42:57.000Z</time>
      </trkpt>
      <trkpt lat="48.7005" lon="1.76158">
        <ele>166</ele>
        <time>2014-08-03T10:43:03.000Z</time>
      </trkpt>
      <trkpt lat="48.70052" lon="1.76155">
        <ele>166</ele>
        <time>2014-08-03T10:43:05.000Z</time>
      </trkpt>
      <trkpt lat="48.7006" lon="1.76144">
        <ele>165.80000305176</ele>
        <time>2014-08-03T10:43:12.000Z</time>
      </trkpt>
      <trkpt lat="48.70067" lon="1.76134">
        <ele>165.80000305176</ele>
        <time>2014-08-03T10:43:18.000Z</time>
      </trkpt>
      <trkpt lat="48.70075" lon="1.76123">
        <ele>165.60000610352</ele>
        <time>2014-08-03T10:43:25.000Z</time>
      </trkpt>
      <trkpt lat="48.70077" lon="1.7612">
        <ele>165.60000610352</ele>
        <time>2014-08-03T10:43:27.000Z</time>
      </trkpt>
      <trkpt lat="48.70086" lon="1.76103">
        <ele>165.39999389648</ele>
        <time>2014-08-03T10:43:36.000Z</time>
      </trkpt>
      <trkpt lat="48.70091" lon="1.76094">
        <ele>165.19999694824</ele>
        <time>2014-08-03T10:43:41.000Z</time>
      </trkpt>
      <trkpt lat="48.70096" lon="1.76086">
        <ele>165.19999694824</ele>
        <time>2014-08-03T10:43:46.000Z</time>
      </trkpt>
      <trkpt lat="48.70103" lon="1.7608">
        <ele>165.19999694824</ele>
        <time>2014-08-03T10:43:52.000Z</time>
      </trkpt>
      <trkpt lat="48.70109" lon="1.76075">
        <ele>165</ele>
        <time>2014-08-03T10:43:57.000Z</time>
      </trkpt>
      <trkpt lat="48.7011" lon="1.76074">
        <ele>165</ele>
        <time>2014-08-03T10:43:58.000Z</time>
      </trkpt>
      <trkpt lat="48.70118" lon="1.76064">
        <ele>165.19999694824</ele>
        <time>2014-08-03T10:44:06.000Z</time>
      </trkpt>
      <trkpt lat="48.70127" lon="1.76051">
        <ele>165.19999694824</ele>
        <time>2014-08-03T10:44:14.000Z</time>
      </trkpt>
      <trkpt lat="48.70131" lon="1.76044">
        <ele>165.39999389648</ele>
        <time>2014-08-03T10:44:18.000Z</time>
      </trkpt>
      <trkpt lat="48.70137" lon="1.76036">
        <ele>165.39999389648</ele>
        <time>2014-08-03T10:44:23.000Z</time>
      </trkpt>
      <trkpt lat="48.70138" lon="1.76035">
        <ele>165.39999389648</ele>
        <time>2014-08-03T10:44:24.000Z</time>
      </trkpt>
      <trkpt lat="48.70146" lon="1.76022">
        <ele>165.39999389648</ele>
        <time>2014-08-03T10:44:32.000Z</time>
      </trkpt>
      <trkpt lat="48.70159" lon="1.76006">
        <ele>165.19999694824</ele>
        <time>2014-08-03T10:44:43.000Z</time>
      </trkpt>
      <trkpt lat="48.70168" lon="1.75998">
        <ele>165.19999694824</ele>
        <time>2014-08-03T10:44:50.000Z</time>
      </trkpt>
      <trkpt lat="48.70175" lon="1.75985">
        <ele>165</ele>
        <time>2014-08-03T10:44:57.000Z</time>
      </trkpt>
      <trkpt lat="48.70176" lon="1.75984">
        <ele>165</ele>
        <time>2014-08-03T10:44:58.000Z</time>
      </trkpt>
      <trkpt lat="48.70179" lon="1.75978">
        <ele>165.19999694824</ele>
        <time>2014-08-03T10:45:04.000Z</time>
      </trkpt>
      <trkpt lat="48.70173" lon="1.7597">
        <ele>165.39999389648</ele>
        <time>2014-08-03T10:45:16.000Z</time>
      </trkpt>
      <trkpt lat="48.7017" lon="1.75962">
        <ele>165.80000305176</ele>
        <time>2014-08-03T10:45:20.000Z</time>
      </trkpt>
      <trkpt lat="48.70168" lon="1.75957">
        <ele>165.80000305176</ele>
        <time>2014-08-03T10:45:23.000Z</time>
      </trkpt>
      <trkpt lat="48.70165" lon="1.75943">
        <ele>166.39999389648</ele>
        <time>2014-08-03T10:45:30.000Z</time>
      </trkpt>
      <trkpt lat="48.70165" lon="1.75941">
        <ele>166.39999389648</ele>
        <time>2014-08-03T10:45:32.000Z</time>
      </trkpt>
      <trkpt lat="48.70164" lon="1.75929">
        <ele>166.80000305176</ele>
        <time>2014-08-03T10:45:39.000Z</time>
      </trkpt>
      <trkpt lat="48.70163" lon="1.75923">
        <ele>167</ele>
        <time>2014-08-03T10:45:42.000Z</time>
      </trkpt>
      <trkpt lat="48.70158" lon="1.7591">
        <ele>167.39999389648</ele>
        <time>2014-08-03T10:45:48.000Z</time>
      </trkpt>
      <trkpt lat="48.70157" lon="1.75901">
        <ele>167.60000610352</ele>
        <time>2014-08-03T10:45:53.000Z</time>
      </trkpt>
      <trkpt lat="48.70152" lon="1.75884">
        <ele>167.60000610352</ele>
        <time>2014-08-03T10:46:01.000Z</time>
      </trkpt>
      <trkpt lat="48.70147" lon="1.7587">
        <ele>167.60000610352</ele>
        <time>2014-08-03T10:46:08.000Z</time>
      </trkpt>
      <trkpt lat="48.70141" lon="1.75853">
        <ele>167.39999389648</ele>
        <time>2014-08-03T10:46:16.000Z</time>
      </trkpt>
      <trkpt lat="48.70137" lon="1.75839">
        <ele>167</ele>
        <time>2014-08-03T10:46:23.000Z</time>
      </trkpt>
      <trkpt lat="48.70133" lon="1.75834">
        <ele>167</ele>
        <time>2014-08-03T10:46:27.000Z</time>
      </trkpt>
      <trkpt lat="48.7013" lon="1.75825">
        <ele>166.80000305176</ele>
        <time>2014-08-03T10:46:32.000Z</time>
      </trkpt>
      <trkpt lat="48.70126" lon="1.75812">
        <ele>166.19999694824</ele>
        <time>2014-08-03T10:46:37.000Z</time>
      </trkpt>
      <trkpt lat="48.70124" lon="1.75805">
        <ele>166</ele>
        <time>2014-08-03T10:46:40.000Z</time>
      </trkpt>
      <trkpt lat="48.70114" lon="1.75783">
        <ele>165</ele>
        <time>2014-08-03T10:46:50.000Z</time>
      </trkpt>
      <trkpt lat="48.70112" lon="1.75767">
        <ele>164.19999694824</ele>
        <time>2014-08-03T10:46:57.000Z</time>
      </trkpt>
      <trkpt lat="48.70109" lon="1.75757">
        <ele>163.80000305176</ele>
        <time>2014-08-03T10:47:02.000Z</time>
      </trkpt>
      <trkpt lat="48.70106" lon="1.75742">
        <ele>163.19999694824</ele>
        <time>2014-08-03T10:47:09.000Z</time>
      </trkpt>
      <trkpt lat="48.70104" lon="1.75734">
        <ele>163</ele>
        <time>2014-08-03T10:47:13.000Z</time>
      </trkpt>
      <trkpt lat="48.70101" lon="1.7572">
        <ele>163.19999694824</ele>
        <time>2014-08-03T10:47:20.000Z</time>
      </trkpt>
      <trkpt lat="48.70099" lon="1.75708">
        <ele>163.39999389648</ele>
        <time>2014-08-03T10:47:26.000Z</time>
      </trkpt>
      <trkpt lat="48.70095" lon="1.75694">
        <ele>163.60000610352</ele>
        <time>2014-08-03T10:47:33.000Z</time>
      </trkpt>
      <trkpt lat="48.70091" lon="1.7568">
        <ele>163.80000305176</ele>
        <time>2014-08-03T10:47:40.000Z</time>
      </trkpt>
      <trkpt lat="48.70088" lon="1.75669">
        <ele>164</ele>
        <time>2014-08-03T10:47:46.000Z</time>
      </trkpt>
      <trkpt lat="48.70085" lon="1.75655">
        <ele>164.19999694824</ele>
        <time>2014-08-03T10:47:52.000Z</time>
      </trkpt>
      <trkpt lat="48.70084" lon="1.75653">
        <ele>164.19999694824</ele>
        <time>2014-08-03T10:47:53.000Z</time>
      </trkpt>
      <trkpt lat="48.70079" lon="1.75635">
        <ele>164.60000610352</ele>
        <time>2014-08-03T10:48:02.000Z</time>
      </trkpt>
      <trkpt lat="48.70078" lon="1.75629">
        <ele>164.60000610352</ele>
        <time>2014-08-03T10:48:05.000Z</time>
      </trkpt>
      <trkpt lat="48.70074" lon="1.75615">
        <ele>165</ele>
        <time>2014-08-03T10:48:12.000Z</time>
      </trkpt>
      <trkpt lat="48.70072" lon="1.75606">
        <ele>165.39999389648</ele>
        <time>2014-08-03T10:48:16.000Z</time>
      </trkpt>
      <trkpt lat="48.70071" lon="1.75603">
        <ele>165.39999389648</ele>
        <time>2014-08-03T10:48:18.000Z</time>
      </trkpt>
      <trkpt lat="48.70067" lon="1.7559">
        <ele>165.80000305176</ele>
        <time>2014-08-03T10:48:24.000Z</time>
      </trkpt>
      <trkpt lat="48.70063" lon="1.75581">
        <ele>166.19999694824</ele>
        <time>2014-08-03T10:48:29.000Z</time>
      </trkpt>
      <trkpt lat="48.70063" lon="1.75579">
        <ele>166.19999694824</ele>
        <time>2014-08-03T10:48:30.000Z</time>
      </trkpt>
      <trkpt lat="48.7006" lon="1.75566">
        <ele>166.60000610352</ele>
        <time>2014-08-03T10:48:37.000Z</time>
      </trkpt>
      <trkpt lat="48.70059" lon="1.75554">
        <ele>166.60000610352</ele>
        <time>2014-08-03T10:48:42.000Z</time>
      </trkpt>
      <trkpt lat="48.70059" lon="1.75552">
        <ele>166.60000610352</ele>
        <time>2014-08-03T10:48:43.000Z</time>
      </trkpt>
      <trkpt lat="48.70059" lon="1.75548">
        <ele>166.80000305176</ele>
        <time>2014-08-03T10:48:45.000Z</time>
      </trkpt>
      <trkpt lat="48.70055" lon="1.75535">
        <ele>166.80000305176</ele>
        <time>2014-08-03T10:48:51.000Z</time>
      </trkpt>
      <trkpt lat="48.70052" lon="1.75524">
        <ele>167</ele>
        <time>2014-08-03T10:48:57.000Z</time>
      </trkpt>
      <trkpt lat="48.70049" lon="1.75519">
        <ele>167</ele>
        <time>2014-08-03T10:49:00.000Z</time>
      </trkpt>
      <trkpt lat="48.70044" lon="1.75506">
        <ele>166.60000610352</ele>
        <time>2014-08-03T10:49:07.000Z</time>
      </trkpt>
      <trkpt lat="48.70043" lon="1.75503">
        <ele>166.60000610352</ele>
        <time>2014-08-03T10:49:08.000Z</time>
      </trkpt>
      <trkpt lat="48.7004" lon="1.75501">
        <ele>166.60000610352</ele>
        <time>2014-08-03T10:49:10.000Z</time>
      </trkpt>
      <trkpt lat="48.70038" lon="1.75498">
        <ele>166.60000610352</ele>
        <time>2014-08-03T10:49:12.000Z</time>
      </trkpt>
      <trkpt lat="48.70035" lon="1.75481">
        <ele>166.19999694824</ele>
        <time>2014-08-03T10:49:20.000Z</time>
      </trkpt>
      <trkpt lat="48.70029" lon="1.75467">
        <ele>166.80000305176</ele>
        <time>2014-08-03T10:49:27.000Z</time>
      </trkpt>
      <trkpt lat="48.70024" lon="1.75454">
        <ele>167.19999694824</ele>
        <time>2014-08-03T10:49:33.000Z</time>
      </trkpt>
      <trkpt lat="48.70023" lon="1.7545">
        <ele>167.39999389648</ele>
        <time>2014-08-03T10:49:35.000Z</time>
      </trkpt>
      <trkpt lat="48.70023" lon="1.75435">
        <ele>167.39999389648</ele>
        <time>2014-08-03T10:49:41.000Z</time>
      </trkpt>
      <trkpt lat="48.70021" lon="1.75427">
        <ele>167.60000610352</ele>
        <time>2014-08-03T10:49:45.000Z</time>
      </trkpt>
      <trkpt lat="48.70017" lon="1.75414">
        <ele>168</ele>
        <time>2014-08-03T10:49:51.000Z</time>
      </trkpt>
      <trkpt lat="48.70009" lon="1.75403">
        <ele>168.60000610352</ele>
        <time>2014-08-03T10:49:58.000Z</time>
      </trkpt>
      <trkpt lat="48.70007" lon="1.75392">
        <ele>168.80000305176</ele>
        <time>2014-08-03T10:50:04.000Z</time>
      </trkpt>
      <trkpt lat="48.70007" lon="1.75378">
        <ele>169.39999389648</ele>
        <time>2014-08-03T10:50:09.000Z</time>
      </trkpt>
      <trkpt lat="48.70006" lon="1.75365">
        <ele>170</ele>
        <time>2014-08-03T10:50:14.000Z</time>
      </trkpt>
      <trkpt lat="48.70005" lon="1.7536">
        <ele>170.19999694824</ele>
        <time>2014-08-03T10:50:16.000Z</time>
      </trkpt>
      <trkpt lat="48.70002" lon="1.75349">
        <ele>170.80000305176</ele>
        <time>2014-08-03T10:50:23.000Z</time>
      </trkpt>
      <trkpt lat="48.70006" lon="1.7534">
        <ele>171.19999694824</ele>
        <time>2014-08-03T10:50:28.000Z</time>
      </trkpt>
      <trkpt lat="48.70016" lon="1.75334">
        <ele>171.39999389648</ele>
        <time>2014-08-03T10:50:36.000Z</time>
      </trkpt>
      <trkpt lat="48.70019" lon="1.75333">
        <ele>171.39999389648</ele>
        <time>2014-08-03T10:50:39.000Z</time>
      </trkpt>
      <trkpt lat="48.70027" lon="1.75327">
        <ele>171.60000610352</ele>
        <time>2014-08-03T10:50:45.000Z</time>
      </trkpt>
      <trkpt lat="48.70035" lon="1.75321">
        <ele>172.19999694824</ele>
        <time>2014-08-03T10:50:52.000Z</time>
      </trkpt>
      <trkpt lat="48.70041" lon="1.75318">
        <ele>172.39999389648</ele>
        <time>2014-08-03T10:50:57.000Z</time>
      </trkpt>
      <trkpt lat="48.7005" lon="1.7531">
        <ele>172.60000610352</ele>
        <time>2014-08-03T10:51:04.000Z</time>
      </trkpt>
      <trkpt lat="48.70055" lon="1.75307">
        <ele>172.80000305176</ele>
        <time>2014-08-03T10:51:08.000Z</time>
      </trkpt>
      <trkpt lat="48.70067" lon="1.75299">
        <ele>173</ele>
        <time>2014-08-03T10:51:17.000Z</time>
      </trkpt>
      <trkpt lat="48.7007" lon="1.75298">
        <ele>173.19999694824</ele>
        <time>2014-08-03T10:51:19.000Z</time>
      </trkpt>
      <trkpt lat="48.70077" lon="1.75292">
        <ele>173.39999389648</ele>
        <time>2014-08-03T10:51:25.000Z</time>
      </trkpt>
      <trkpt lat="48.70083" lon="1.75296">
        <ele>173.39999389648</ele>
        <time>2014-08-03T10:51:31.000Z</time>
      </trkpt>
      <trkpt lat="48.70086" lon="1.75296">
        <ele>173.39999389648</ele>
        <time>2014-08-03T10:51:34.000Z</time>
      </trkpt>
      <trkpt lat="48.70099" lon="1.75294">
        <ele>173.60000610352</ele>
        <time>2014-08-03T10:51:43.000Z</time>
      </trkpt>
      <trkpt lat="48.7011" lon="1.7529">
        <ele>174</ele>
        <time>2014-08-03T10:51:52.000Z</time>
      </trkpt>
      <trkpt lat="48.70115" lon="1.75287">
        <ele>174.19999694824</ele>
        <time>2014-08-03T10:51:57.000Z</time>
      </trkpt>
      <trkpt lat="48.70119" lon="1.75285">
        <ele>174.39999389648</ele>
        <time>2014-08-03T10:52:01.000Z</time>
      </trkpt>
      <trkpt lat="48.70129" lon="1.75275">
        <ele>175</ele>
        <time>2014-08-03T10:52:08.000Z</time>
      </trkpt>
      <trkpt lat="48.70138" lon="1.75274">
        <ele>175.39999389648</ele>
        <time>2014-08-03T10:52:14.000Z</time>
      </trkpt>
      <trkpt lat="48.70144" lon="1.75271">
        <ele>175.39999389648</ele>
        <time>2014-08-03T10:52:21.000Z</time>
      </trkpt>
      <trkpt lat="48.70146" lon="1.75271">
        <ele>175.60000610352</ele>
        <time>2014-08-03T10:52:23.000Z</time>
      </trkpt>
      <trkpt lat="48.70155" lon="1.75263">
        <ele>175.60000610352</ele>
        <time>2014-08-03T10:52:30.000Z</time>
      </trkpt>
      <trkpt lat="48.70159" lon="1.75262">
        <ele>175.60000610352</ele>
        <time>2014-08-03T10:52:35.000Z</time>
      </trkpt>
      <trkpt lat="48.7017" lon="1.75258">
        <ele>175.80000305176</ele>
        <time>2014-08-03T10:52:42.000Z</time>
      </trkpt>
      <trkpt lat="48.70181" lon="1.75252">
        <ele>176</ele>
        <time>2014-08-03T10:52:50.000Z</time>
      </trkpt>
      <trkpt lat="48.70188" lon="1.75247">
        <ele>176</ele>
        <time>2014-08-03T10:52:55.000Z</time>
      </trkpt>
      <trkpt lat="48.70192" lon="1.75245">
        <ele>176.19999694824</ele>
        <time>2014-08-03T10:52:58.000Z</time>
      </trkpt>
      <trkpt lat="48.702" lon="1.75241">
        <ele>176.60000610352</ele>
        <time>2014-08-03T10:53:04.000Z</time>
      </trkpt>
      <trkpt lat="48.70203" lon="1.75238">
        <ele>176.80000305176</ele>
        <time>2014-08-03T10:53:06.000Z</time>
      </trkpt>
      <trkpt lat="48.70216" lon="1.75234">
        <ele>177.39999389648</ele>
        <time>2014-08-03T10:53:14.000Z</time>
      </trkpt>
      <trkpt lat="48.70227" lon="1.75239">
        <ele>178</ele>
        <time>2014-08-03T10:53:22.000Z</time>
      </trkpt>
      <trkpt lat="48.70233" lon="1.75244">
        <ele>178.19999694824</ele>
        <time>2014-08-03T10:53:27.000Z</time>
      </trkpt>
      <trkpt lat="48.70242" lon="1.7525">
        <ele>178.60000610352</ele>
        <time>2014-08-03T10:53:32.000Z</time>
      </trkpt>
      <trkpt lat="48.7025" lon="1.75261">
        <ele>178.80000305176</ele>
        <time>2014-08-03T10:53:39.000Z</time>
      </trkpt>
      <trkpt lat="48.70254" lon="1.75265">
        <ele>178.80000305176</ele>
        <time>2014-08-03T10:53:43.000Z</time>
      </trkpt>
      <trkpt lat="48.70262" lon="1.75272">
        <ele>179.19999694824</ele>
        <time>2014-08-03T10:53:51.000Z</time>
      </trkpt>
      <trkpt lat="48.70269" lon="1.75278">
        <ele>179.39999389648</ele>
        <time>2014-08-03T10:53:57.000Z</time>
      </trkpt>
      <trkpt lat="48.70279" lon="1.75286">
        <ele>179.60000610352</ele>
        <time>2014-08-03T10:54:04.000Z</time>
      </trkpt>
      <trkpt lat="48.70281" lon="1.75288">
        <ele>179.60000610352</ele>
        <time>2014-08-03T10:54:06.000Z</time>
      </trkpt>
      <trkpt lat="48.70287" lon="1.75288">
        <ele>179.80000305176</ele>
        <time>2014-08-03T10:54:12.000Z</time>
      </trkpt>
      <trkpt lat="48.70291" lon="1.75292">
        <ele>179.80000305176</ele>
        <time>2014-08-03T10:54:16.000Z</time>
      </trkpt>
      <trkpt lat="48.70294" lon="1.75295">
        <ele>179.80000305176</ele>
        <time>2014-08-03T10:54:18.000Z</time>
      </trkpt>
      <trkpt lat="48.70302" lon="1.75309">
        <ele>179.80000305176</ele>
        <time>2014-08-03T10:54:26.000Z</time>
      </trkpt>
      <trkpt lat="48.70306" lon="1.75319">
        <ele>179.80000305176</ele>
        <time>2014-08-03T10:54:32.000Z</time>
      </trkpt>
      <trkpt lat="48.7031" lon="1.75332">
        <ele>180</ele>
        <time>2014-08-03T10:54:40.000Z</time>
      </trkpt>
      <trkpt lat="48.70315" lon="1.75339">
        <ele>180</ele>
        <time>2014-08-03T10:54:46.000Z</time>
      </trkpt>
      <trkpt lat="48.70323" lon="1.75344">
        <ele>180.19999694824</ele>
        <time>2014-08-03T10:54:54.000Z</time>
      </trkpt>
      <trkpt lat="48.7033" lon="1.75347">
        <ele>180.39999389648</ele>
        <time>2014-08-03T10:55:01.000Z</time>
      </trkpt>
      <trkpt lat="48.70333" lon="1.75349">
        <ele>180.60000610352</ele>
        <time>2014-08-03T10:55:03.000Z</time>
      </trkpt>
      <trkpt lat="48.70339" lon="1.75355">
        <ele>180.60000610352</ele>
        <time>2014-08-03T10:55:07.000Z</time>
      </trkpt>
      <trkpt lat="48.70341" lon="1.75357">
        <ele>180.80000305176</ele>
        <time>2014-08-03T10:55:09.000Z</time>
      </trkpt>
      <trkpt lat="48.70347" lon="1.75363">
        <ele>180.80000305176</ele>
        <time>2014-08-03T10:55:14.000Z</time>
      </trkpt>
      <trkpt lat="48.7035" lon="1.75368">
        <ele>181</ele>
        <time>2014-08-03T10:55:17.000Z</time>
      </trkpt>
      <trkpt lat="48.70359" lon="1.75379">
        <ele>181</ele>
        <time>2014-08-03T10:55:25.000Z</time>
      </trkpt>
      <trkpt lat="48.70365" lon="1.75386">
        <ele>181.19999694824</ele>
        <time>2014-08-03T10:55:31.000Z</time>
      </trkpt>
      <trkpt lat="48.70373" lon="1.75396">
        <ele>181.19999694824</ele>
        <time>2014-08-03T10:55:38.000Z</time>
      </trkpt>
      <trkpt lat="48.70381" lon="1.75402">
        <ele>181.39999389648</ele>
        <time>2014-08-03T10:55:46.000Z</time>
      </trkpt>
      <trkpt lat="48.70384" lon="1.75403">
        <ele>181.39999389648</ele>
        <time>2014-08-03T10:55:52.000Z</time>
      </trkpt>
      <trkpt lat="48.704" lon="1.75419">
        <ele>182</ele>
        <time>2014-08-03T10:56:29.000Z</time>
      </trkpt>
      <trkpt lat="48.70404" lon="1.75421">
        <ele>182</ele>
        <time>2014-08-03T10:56:32.000Z</time>
      </trkpt>
      <trkpt lat="48.70407" lon="1.75419">
        <ele>182</ele>
        <time>2014-08-03T10:56:35.000Z</time>
      </trkpt>
      <trkpt lat="48.7042" lon="1.75421">
        <ele>182.19999694824</ele>
        <time>2014-08-03T10:56:44.000Z</time>
      </trkpt>
      <trkpt lat="48.70428" lon="1.75423">
        <ele>182.39999389648</ele>
        <time>2014-08-03T10:56:49.000Z</time>
      </trkpt>
      <trkpt lat="48.70436" lon="1.75429">
        <ele>182.60000610352</ele>
        <time>2014-08-03T10:56:55.000Z</time>
      </trkpt>
      <trkpt lat="48.70445" lon="1.75435">
        <ele>182.39999389648</ele>
        <time>2014-08-03T10:57:02.000Z</time>
      </trkpt>
      <trkpt lat="48.70447" lon="1.75437">
        <ele>182.39999389648</ele>
        <time>2014-08-03T10:57:04.000Z</time>
      </trkpt>
      <trkpt lat="48.70454" lon="1.75442">
        <ele>182.19999694824</ele>
        <time>2014-08-03T10:57:10.000Z</time>
      </trkpt>
      <trkpt lat="48.70458" lon="1.75447">
        <ele>182.19999694824</ele>
        <time>2014-08-03T10:57:13.000Z</time>
      </trkpt>
      <trkpt lat="48.70462" lon="1.75451">
        <ele>182.19999694824</ele>
        <time>2014-08-03T10:57:18.000Z</time>
      </trkpt>
      <trkpt lat="48.70467" lon="1.75455">
        <ele>182.19999694824</ele>
        <time>2014-08-03T10:57:21.000Z</time>
      </trkpt>
      <trkpt lat="48.70471" lon="1.75461">
        <ele>182.19999694824</ele>
        <time>2014-08-03T10:57:25.000Z</time>
      </trkpt>
      <trkpt lat="48.70473" lon="1.75464">
        <ele>182.19999694824</ele>
        <time>2014-08-03T10:57:28.000Z</time>
      </trkpt>
      <trkpt lat="48.70479" lon="1.7547">
        <ele>182</ele>
        <time>2014-08-03T10:57:33.000Z</time>
      </trkpt>
      <trkpt lat="48.70488" lon="1.75476">
        <ele>181.80000305176</ele>
        <time>2014-08-03T10:57:40.000Z</time>
      </trkpt>
      <trkpt lat="48.70496" lon="1.75486">
        <ele>181.80000305176</ele>
        <time>2014-08-03T10:57:48.000Z</time>
      </trkpt>
      <trkpt lat="48.705" lon="1.75489">
        <ele>181.80000305176</ele>
        <time>2014-08-03T10:57:52.000Z</time>
      </trkpt>
      <trkpt lat="48.70506" lon="1.75491">
        <ele>181.60000610352</ele>
        <time>2014-08-03T10:57:57.000Z</time>
      </trkpt>
      <trkpt lat="48.70513" lon="1.75497">
        <ele>181.80000305176</ele>
        <time>2014-08-03T10:58:04.000Z</time>
      </trkpt>
      <trkpt lat="48.70517" lon="1.75508">
        <ele>182</ele>
        <time>2014-08-03T10:58:10.000Z</time>
      </trkpt>
      <trkpt lat="48.70521" lon="1.75512">
        <ele>182.19999694824</ele>
        <time>2014-08-03T10:58:14.000Z</time>
      </trkpt>
      <trkpt lat="48.70526" lon="1.75519">
        <ele>182.39999389648</ele>
        <time>2014-08-03T10:58:19.000Z</time>
      </trkpt>
      <trkpt lat="48.70535" lon="1.7553">
        <ele>182.60000610352</ele>
        <time>2014-08-03T10:58:28.000Z</time>
      </trkpt>
      <trkpt lat="48.70539" lon="1.75535">
        <ele>182.80000305176</ele>
        <time>2014-08-03T10:58:32.000Z</time>
      </trkpt>
      <trkpt lat="48.70542" lon="1.75539">
        <ele>183</ele>
        <time>2014-08-03T10:58:35.000Z</time>
      </trkpt>
      <trkpt lat="48.70546" lon="1.75545">
        <ele>183.19999694824</ele>
        <time>2014-08-03T10:58:39.000Z</time>
      </trkpt>
      <trkpt lat="48.70555" lon="1.75558">
        <ele>183.60000610352</ele>
        <time>2014-08-03T10:58:48.000Z</time>
      </trkpt>
      <trkpt lat="48.70557" lon="1.75558">
        <ele>183.60000610352</ele>
        <time>2014-08-03T10:58:51.000Z</time>
      </trkpt>
      <trkpt lat="48.70558" lon="1.75559">
        <ele>183.60000610352</ele>
        <time>2014-08-03T10:58:54.000Z</time>
      </trkpt>
      <trkpt lat="48.70559" lon="1.7556">
        <ele>183.60000610352</ele>
        <time>2014-08-03T10:58:55.000Z</time>
      </trkpt>
      <trkpt lat="48.70562" lon="1.75564">
        <ele>183.60000610352</ele>
        <time>2014-08-03T10:58:56.000Z</time>
      </trkpt>
      <trkpt lat="48.70575" lon="1.75571">
        <ele>183.60000610352</ele>
        <time>2014-08-03T10:59:01.000Z</time>
      </trkpt>
      <trkpt lat="48.7058" lon="1.75574">
        <ele>183.60000610352</ele>
        <time>2014-08-03T10:59:06.000Z</time>
      </trkpt>
      <trkpt lat="48.70582" lon="1.75576">
        <ele>183.60000610352</ele>
        <time>2014-08-03T10:59:08.000Z</time>
      </trkpt>
      <trkpt lat="48.70585" lon="1.75585">
        <ele>183.80000305176</ele>
        <time>2014-08-03T10:59:14.000Z</time>
      </trkpt>
      <trkpt lat="48.70587" lon="1.75589">
        <ele>183.80000305176</ele>
        <time>2014-08-03T10:59:17.000Z</time>
      </trkpt>
      <trkpt lat="48.70591" lon="1.75595">
        <ele>183.80000305176</ele>
        <time>2014-08-03T10:59:22.000Z</time>
      </trkpt>
      <trkpt lat="48.70592" lon="1.75596">
        <ele>183.80000305176</ele>
        <time>2014-08-03T10:59:24.000Z</time>
      </trkpt>
      <trkpt lat="48.70599" lon="1.75608">
        <ele>184</ele>
        <time>2014-08-03T10:59:31.000Z</time>
      </trkpt>
      <trkpt lat="48.70603" lon="1.75614">
        <ele>184</ele>
        <time>2014-08-03T10:59:35.000Z</time>
      </trkpt>
      <trkpt lat="48.70606" lon="1.75617">
        <ele>183.80000305176</ele>
        <time>2014-08-03T10:59:37.000Z</time>
      </trkpt>
      <trkpt lat="48.70611" lon="1.75625">
        <ele>183.39999389648</ele>
        <time>2014-08-03T10:59:43.000Z</time>
      </trkpt>
      <trkpt lat="48.70618" lon="1.75633">
        <ele>182.80000305176</ele>
        <time>2014-08-03T10:59:49.000Z</time>
      </trkpt>
      <trkpt lat="48.70618" lon="1.75634">
        <ele>182.80000305176</ele>
        <time>2014-08-03T10:59:50.000Z</time>
      </trkpt>
      <trkpt lat="48.70627" lon="1.75644">
        <ele>182</ele>
        <time>2014-08-03T10:59:56.000Z</time>
      </trkpt>
      <trkpt lat="48.70629" lon="1.75647">
        <ele>181.80000305176</ele>
        <time>2014-08-03T10:59:58.000Z</time>
      </trkpt>
      <trkpt lat="48.70634" lon="1.75647">
        <ele>181.19999694824</ele>
        <time>2014-08-03T11:00:04.000Z</time>
      </trkpt>
      <trkpt lat="48.70635" lon="1.75648">
        <ele>181</ele>
        <time>2014-08-03T11:00:07.000Z</time>
      </trkpt>
      <trkpt lat="48.70638" lon="1.75649">
        <ele>180.80000305176</ele>
        <time>2014-08-03T11:00:11.000Z</time>
      </trkpt>
      <trkpt lat="48.70639" lon="1.7565">
        <ele>180.60000610352</ele>
        <time>2014-08-03T11:00:14.000Z</time>
      </trkpt>
      <trkpt lat="48.7064" lon="1.75652">
        <ele>180.39999389648</ele>
        <time>2014-08-03T11:00:16.000Z</time>
      </trkpt>
      <trkpt lat="48.70645" lon="1.75616">
        <ele>179</ele>
        <time>2014-08-03T11:01:11.000Z</time>
      </trkpt>
      <trkpt lat="48.70649" lon="1.75604">
        <ele>178.60000610352</ele>
        <time>2014-08-03T11:01:17.000Z</time>
      </trkpt>
      <trkpt lat="48.70656" lon="1.75588">
        <ele>178</ele>
        <time>2014-08-03T11:01:28.000Z</time>
      </trkpt>
      <trkpt lat="48.7066" lon="1.75581">
        <ele>177.60000610352</ele>
        <time>2014-08-03T11:01:34.000Z</time>
      </trkpt>
      <trkpt lat="48.70661" lon="1.7558">
        <ele>177.60000610352</ele>
        <time>2014-08-03T11:01:35.000Z</time>
      </trkpt>
      <trkpt lat="48.70661" lon="1.7558">
        <ele>177.60000610352</ele>
        <time>2014-08-03T11:01:35.000Z</time>
      </trkpt>
      <trkpt lat="48.70667" lon="1.75566">
        <ele>176.39999389648</ele>
        <time>2014-08-03T11:01:45.000Z</time>
      </trkpt>
      <trkpt lat="48.70671" lon="1.75559">
        <ele>175.19999694824</ele>
        <time>2014-08-03T11:01:54.000Z</time>
      </trkpt>
      <trkpt lat="48.70672" lon="1.75561">
        <ele>175.39999389648</ele>
        <time>2014-08-03T11:01:57.000Z</time>
      </trkpt>
      <trkpt lat="48.70685" lon="1.75534">
        <ele>174.19999694824</ele>
        <time>2014-08-03T11:03:15.000Z</time>
      </trkpt>
      <trkpt lat="48.70689" lon="1.75525">
        <ele>173.80000305176</ele>
        <time>2014-08-03T11:03:21.000Z</time>
      </trkpt>
      <trkpt lat="48.70693" lon="1.75518">
        <ele>173.39999389648</ele>
        <time>2014-08-03T11:03:26.000Z</time>
      </trkpt>
      <trkpt lat="48.70696" lon="1.75509">
        <ele>173</ele>
        <time>2014-08-03T11:03:32.000Z</time>
      </trkpt>
      <trkpt lat="48.70698" lon="1.75506">
        <ele>172.80000305176</ele>
        <time>2014-08-03T11:03:35.000Z</time>
      </trkpt>
      <trkpt lat="48.707" lon="1.75496">
        <ele>172.60000610352</ele>
        <time>2014-08-03T11:03:41.000Z</time>
      </trkpt>
      <trkpt lat="48.70702" lon="1.75488">
        <ele>172.60000610352</ele>
        <time>2014-08-03T11:03:47.000Z</time>
      </trkpt>
      <trkpt lat="48.70702" lon="1.75487">
        <ele>172.60000610352</ele>
        <time>2014-08-03T11:03:48.000Z</time>
      </trkpt>
      <trkpt lat="48.70703" lon="1.75482">
        <ele>172.39999389648</ele>
        <time>2014-08-03T11:03:55.000Z</time>
      </trkpt>
      <trkpt lat="48.70702" lon="1.75479">
        <ele>172.39999389648</ele>
        <time>2014-08-03T11:04:00.000Z</time>
      </trkpt>
      <trkpt lat="48.70701" lon="1.75477">
        <ele>172.39999389648</ele>
        <time>2014-08-03T11:04:03.000Z</time>
      </trkpt>
      <trkpt lat="48.70703" lon="1.75452">
        <ele>171.80000305176</ele>
        <time>2014-08-03T11:05:17.000Z</time>
      </trkpt>
      <trkpt lat="48.70696" lon="1.75451">
        <ele>171.80000305176</ele>
        <time>2014-08-03T11:05:22.000Z</time>
      </trkpt>
      <trkpt lat="48.70693" lon="1.7545">
        <ele>172</ele>
        <time>2014-08-03T11:05:25.000Z</time>
      </trkpt>
      <trkpt lat="48.70683" lon="1.75445">
        <ele>172</ele>
        <time>2014-08-03T11:05:34.000Z</time>
      </trkpt>
      <trkpt lat="48.70681" lon="1.75444">
        <ele>172</ele>
        <time>2014-08-03T11:05:36.000Z</time>
      </trkpt>
    </trkseg>
  </trk>
</gpx>